<?xml version='1.0' encoding='UTF-8'?><gpx version="1.1" creator="JPX - https://github.com/jenetics/jpx" xmlns="http://www.topografix.com/GPX/1/1"><trk><trkseg><trkpt lat="43.79004066658297" lon="11.225119787269971"><ele>42.0</ele><time>2026-04-03T08:50:55Z</time></trkpt><trkpt lat="43.78999805116707" lon="11.225207867982842"><ele>42.0</ele><time>2026-04-03T08:50:57Z</time></trkpt><trkpt lat="43.78994833198105" lon="11.225303113101262"><ele>42.0</ele><time>2026-04-03T08:50:59Z</time></trkpt><trkpt lat="43.789898393729445" lon="11.22540573229322"><ele>42.0</ele><time>2026-04-03T08:51:01Z</time></trkpt><trkpt lat="43.789829132831585" lon="11.225545739569018"><ele>42.0</ele><time>2026-04-03T08:51:03Z</time></trkpt><trkpt lat="43.78977061966905" lon="11.225660158290054"><ele>42.2</ele><time>2026-04-03T08:51:05Z</time></trkpt><trkpt lat="43.78976344508864" lon="11.225789580859653"><ele>42.400000000000006</ele><time>2026-04-03T08:51:07Z</time></trkpt><trkpt lat="43.78986312135065" lon="11.225885820387607"><ele>42.599999999999994</ele><time>2026-04-03T08:51:09Z</time></trkpt><trkpt lat="43.78995414745055" lon="11.225995429669286"><ele>42.8</ele><time>2026-04-03T08:51:11Z</time></trkpt><trkpt lat="43.79003227464863" lon="11.22610490033068"><ele>43.0</ele><time>2026-04-03T08:51:13Z</time></trkpt><trkpt lat="43.79011668390602" lon="11.226187022095907"><ele>43.16666666666667</ele><time>2026-04-03T08:51:15Z</time></trkpt><trkpt lat="43.790201933957164" lon="11.226243637067691"><ele>43.333333333333336</ele><time>2026-04-03T08:51:17Z</time></trkpt><trkpt lat="43.79026551568429" lon="11.226324667072934"><ele>43.5</ele><time>2026-04-03T08:51:20Z</time></trkpt><trkpt lat="43.790335034791795" lon="11.226396698253167"><ele>43.666666666666664</ele><time>2026-04-03T08:51:23Z</time></trkpt><trkpt lat="43.79041109093226" lon="11.226440015152725"><ele>43.83333333333333</ele><time>2026-04-03T08:51:26Z</time></trkpt><trkpt lat="43.790468443618984" lon="11.226519488992512"><ele>44.0</ele><time>2026-04-03T08:51:28Z</time></trkpt><trkpt lat="43.79053250865474" lon="11.226559331330359"><ele>44.0</ele><time>2026-04-03T08:51:34Z</time></trkpt><trkpt lat="43.790480590031045" lon="11.226674712130068"><ele>44.0</ele><time>2026-04-03T08:51:35Z</time></trkpt><trkpt lat="43.79043154218525" lon="11.226762953272344"><ele>44.0</ele><time>2026-04-03T08:51:36Z</time></trkpt><trkpt lat="43.79039049213275" lon="11.22685455966864"><ele>44.0</ele><time>2026-04-03T08:51:37Z</time></trkpt><trkpt lat="43.79034504246016" lon="11.226951840263869"><ele>44.0</ele><time>2026-04-03T08:51:38Z</time></trkpt><trkpt lat="43.790292834023525" lon="11.227052934682277"><ele>44.0</ele><time>2026-04-03T08:51:39Z</time></trkpt><trkpt lat="43.79024280635316" lon="11.227147101302327"><ele>44.0</ele><time>2026-04-03T08:51:40Z</time></trkpt><trkpt lat="43.79019464276594" lon="11.227238579423663"><ele>44.0</ele><time>2026-04-03T08:51:41Z</time></trkpt><trkpt lat="43.790149575948504" lon="11.22732045167216"><ele>44.0</ele><time>2026-04-03T08:51:42Z</time></trkpt><trkpt lat="43.790110548442705" lon="11.227394275670555"><ele>44.0</ele><time>2026-04-03T08:51:43Z</time></trkpt><trkpt lat="43.79004174780858" lon="11.227536163817117"><ele>44.0</ele><time>2026-04-03T08:51:45Z</time></trkpt><trkpt lat="43.789974786883775" lon="11.227677155906125"><ele>44.0</ele><time>2026-04-03T08:51:47Z</time></trkpt><trkpt lat="43.789925164373834" lon="11.227804705637123"><ele>44.0</ele><time>2026-04-03T08:51:49Z</time></trkpt><trkpt lat="43.789872595841025" lon="11.227940776067497"><ele>44.0</ele><time>2026-04-03T08:51:51Z</time></trkpt><trkpt lat="43.789833000327235" lon="11.22805977420836"><ele>44.0</ele><time>2026-04-03T08:51:53Z</time></trkpt><trkpt lat="43.789794980259444" lon="11.228151139682549"><ele>44.0</ele><time>2026-04-03T08:51:56Z</time></trkpt><trkpt lat="43.78974185352668" lon="11.228237017075436"><ele>44.0</ele><time>2026-04-03T08:52:20Z</time></trkpt><trkpt lat="43.78967405692439" lon="11.228321714214202"><ele>44.0</ele><time>2026-04-03T08:52:24Z</time></trkpt><trkpt lat="43.78962221949382" lon="11.228472312035718"><ele>44.0</ele><time>2026-04-03T08:52:26Z</time></trkpt><trkpt lat="43.78962270840976" lon="11.228585546067775"><ele>44.0</ele><time>2026-04-03T08:52:27Z</time></trkpt><trkpt lat="43.78966349820636" lon="11.228682311304661"><ele>44.0</ele><time>2026-04-03T08:52:28Z</time></trkpt><trkpt lat="43.78973220556111" lon="11.228731628175634"><ele>44.0</ele><time>2026-04-03T08:52:29Z</time></trkpt><trkpt lat="43.78980592996459" lon="11.228751986040558"><ele>44.0</ele><time>2026-04-03T08:52:30Z</time></trkpt><trkpt lat="43.78987407791209" lon="11.228716210998396"><ele>44.0</ele><time>2026-04-03T08:52:31Z</time></trkpt><trkpt lat="43.78993145705082" lon="11.228626880725038"><ele>44.0</ele><time>2026-04-03T08:52:32Z</time></trkpt><trkpt lat="43.789987943738815" lon="11.228392077044068"><ele>44.0</ele><time>2026-04-03T08:52:34Z</time></trkpt><trkpt lat="43.79000916485463" lon="11.2282330968158"><ele>44.0</ele><time>2026-04-03T08:52:35Z</time></trkpt><trkpt lat="43.79005360893277" lon="11.22809001608583"><ele>44.0</ele><time>2026-04-03T08:52:36Z</time></trkpt><trkpt lat="43.790102137010564" lon="11.227984048574276"><ele>44.0</ele><time>2026-04-03T08:52:37Z</time></trkpt><trkpt lat="43.79015671656943" lon="11.227879221077409"><ele>44.0</ele><time>2026-04-03T08:52:39Z</time></trkpt><trkpt lat="43.79020842484763" lon="11.227757971846838"><ele>44.0</ele><time>2026-04-03T08:52:41Z</time></trkpt><trkpt lat="43.790242887289125" lon="11.227682979878452"><ele>44.0</ele><time>2026-04-03T08:52:42Z</time></trkpt><trkpt lat="43.790287409605554" lon="11.22759284444223"><ele>44.0</ele><time>2026-04-03T08:52:43Z</time></trkpt><trkpt lat="43.790334711493635" lon="11.227485914564847"><ele>44.0</ele><time>2026-04-03T08:52:44Z</time></trkpt><trkpt lat="43.79038371685227" lon="11.227377084128042"><ele>44.0</ele><time>2026-04-03T08:52:45Z</time></trkpt><trkpt lat="43.790433074144524" lon="11.227273839937988"><ele>44.0</ele><time>2026-04-03T08:52:46Z</time></trkpt><trkpt lat="43.79047177336" lon="11.227180858622484"><ele>44.0</ele><time>2026-04-03T08:52:47Z</time></trkpt><trkpt lat="43.79050411528746" lon="11.227099814336379"><ele>44.0</ele><time>2026-04-03T08:52:48Z</time></trkpt><trkpt lat="43.7905487979363" lon="11.226975589388973"><ele>44.0</ele><time>2026-04-03T08:52:50Z</time></trkpt><trkpt lat="43.790603097219794" lon="11.226873397828065"><ele>44.0</ele><time>2026-04-03T08:52:58Z</time></trkpt><trkpt lat="43.79064785598283" lon="11.226777299942789"><ele>44.0</ele><time>2026-04-03T08:52:59Z</time></trkpt><trkpt lat="43.79069076683422" lon="11.226676817994976"><ele>44.0</ele><time>2026-04-03T08:53:00Z</time></trkpt><trkpt lat="43.790731763067974" lon="11.22658474596588"><ele>44.0</ele><time>2026-04-03T08:53:01Z</time></trkpt><trkpt lat="43.7907782606125" lon="11.22647506408068"><ele>44.0</ele><time>2026-04-03T08:53:02Z</time></trkpt><trkpt lat="43.790830525499146" lon="11.22634684490563"><ele>44.0</ele><time>2026-04-03T08:53:03Z</time></trkpt><trkpt lat="43.79089378130852" lon="11.226199258583932"><ele>44.0</ele><time>2026-04-03T08:53:04Z</time></trkpt><trkpt lat="43.7909607979826" lon="11.226047523088399"><ele>44.0</ele><time>2026-04-03T08:53:05Z</time></trkpt><trkpt lat="43.79103980442706" lon="11.225881253152874"><ele>44.0</ele><time>2026-04-03T08:53:06Z</time></trkpt><trkpt lat="43.79112013519201" lon="11.225698424144522"><ele>44.0</ele><time>2026-04-03T08:53:07Z</time></trkpt><trkpt lat="43.79120001565114" lon="11.22551097459825"><ele>44.0</ele><time>2026-04-03T08:53:08Z</time></trkpt><trkpt lat="43.791273373228265" lon="11.225340834454569"><ele>44.0</ele><time>2026-04-03T08:53:09Z</time></trkpt><trkpt lat="43.791340555050276" lon="11.22518723062147"><ele>44.0</ele><time>2026-04-03T08:53:10Z</time></trkpt><trkpt lat="43.7914040531426" lon="11.22504051501978"><ele>44.0</ele><time>2026-04-03T08:53:11Z</time></trkpt><trkpt lat="43.79145987904296" lon="11.224925312516886"><ele>44.0</ele><time>2026-04-03T08:53:12Z</time></trkpt><trkpt lat="43.79150754180951" lon="11.224833030747451"><ele>44.0</ele><time>2026-04-03T08:53:13Z</time></trkpt><trkpt lat="43.791547605629646" lon="11.224761058244198"><ele>44.0</ele><time>2026-04-03T08:53:14Z</time></trkpt><trkpt lat="43.79159760135053" lon="11.224656144743408"><ele>44.0</ele><time>2026-04-03T08:53:16Z</time></trkpt><trkpt lat="43.791632059321806" lon="11.224582738818981"><ele>44.0</ele><time>2026-04-03T08:53:19Z</time></trkpt><trkpt lat="43.79168722134945" lon="11.22446265680232"><ele>44.0</ele><time>2026-04-03T08:53:28Z</time></trkpt><trkpt lat="43.79172632270095" lon="11.224369628990807"><ele>44.0</ele><time>2026-04-03T08:53:29Z</time></trkpt><trkpt lat="43.791772937892034" lon="11.224267564361114"><ele>44.0</ele><time>2026-04-03T08:53:30Z</time></trkpt><trkpt lat="43.79182634229731" lon="11.22414750295559"><ele>44.2</ele><time>2026-04-03T08:53:31Z</time></trkpt><trkpt lat="43.791877394657064" lon="11.224031627146045"><ele>44.400000000000006</ele><time>2026-04-03T08:53:32Z</time></trkpt><trkpt lat="43.79192762589006" lon="11.22391249452108"><ele>44.6</ele><time>2026-04-03T08:53:33Z</time></trkpt><trkpt lat="43.79197566902072" lon="11.223795319874137"><ele>44.8</ele><time>2026-04-03T08:53:33.999Z</time></trkpt><trkpt lat="43.79202195776824" lon="11.223692614995725"><ele>45.0</ele><time>2026-04-03T08:53:34.999Z</time></trkpt><trkpt lat="43.792066641230406" lon="11.2236018043956"><ele>44.666666666666664</ele><time>2026-04-03T08:53:35.999Z</time></trkpt><trkpt lat="43.792109452837956" lon="11.22351620475404"><ele>44.333333333333336</ele><time>2026-04-03T08:53:36.999Z</time></trkpt><trkpt lat="43.79216585276167" lon="11.223393086801602"><ele>44.0</ele><time>2026-04-03T08:53:38.999Z</time></trkpt><trkpt lat="43.7922051317879" lon="11.223301846095104"><ele>43.66666666666667</ele><time>2026-04-03T08:53:41.999Z</time></trkpt><trkpt lat="43.7922723949574" lon="11.223181555671129"><ele>43.333333333333336</ele><time>2026-04-03T08:53:51.999Z</time></trkpt><trkpt lat="43.792313003831346" lon="11.223097064844383"><ele>43.0</ele><time>2026-04-03T08:53:52.999Z</time></trkpt><trkpt lat="43.79235217395119" lon="11.223017129697892"><ele>42.599999999999994</ele><time>2026-04-03T08:53:53.999Z</time></trkpt><trkpt lat="43.79239839019007" lon="11.222915290880897"><ele>42.199999999999996</ele><time>2026-04-03T08:53:54.999Z</time></trkpt><trkpt lat="43.79244596648645" lon="11.222804939729373"><ele>41.8</ele><time>2026-04-03T08:53:55.999Z</time></trkpt><trkpt lat="43.79248800588693" lon="11.222697945864017"><ele>41.4</ele><time>2026-04-03T08:53:56.999Z</time></trkpt><trkpt lat="43.792531326121924" lon="11.222589150682298"><ele>41.0</ele><time>2026-04-03T08:53:57.999Z</time></trkpt><trkpt lat="43.79261043763542" lon="11.222428397577723"><ele>41.25</ele><time>2026-04-03T08:53:58.999Z</time></trkpt><trkpt lat="43.792681718807536" lon="11.222277746780312"><ele>41.5</ele><time>2026-04-03T08:53:59.999Z</time></trkpt><trkpt lat="43.792755045784574" lon="11.222126145558306"><ele>41.75</ele><time>2026-04-03T08:54:00.999Z</time></trkpt><trkpt lat="43.79282611369982" lon="11.221975482326542"><ele>42.0</ele><time>2026-04-03T08:54:01.999Z</time></trkpt><trkpt lat="43.79288776305758" lon="11.221828195275949"><ele>42.0</ele><time>2026-04-03T08:54:02.999Z</time></trkpt><trkpt lat="43.7929520507586" lon="11.221683228864833"><ele>42.0</ele><time>2026-04-03T08:54:03.999Z</time></trkpt><trkpt lat="43.793016349601345" lon="11.221543896857193"><ele>42.0</ele><time>2026-04-03T08:54:04.999Z</time></trkpt><trkpt lat="43.79307922021747" lon="11.221411169904501"><ele>42.0</ele><time>2026-04-03T08:54:06Z</time></trkpt><trkpt lat="43.79313564107815" lon="11.221291217422962"><ele>42.400000000000006</ele><time>2026-04-03T08:54:07Z</time></trkpt><trkpt lat="43.793186494709815" lon="11.221176574869464"><ele>42.800000000000004</ele><time>2026-04-03T08:54:08Z</time></trkpt><trkpt lat="43.79323612494219" lon="11.221065648570722"><ele>43.2</ele><time>2026-04-03T08:54:09Z</time></trkpt><trkpt lat="43.79328300816795" lon="11.220957187211313"><ele>43.6</ele><time>2026-04-03T08:54:10Z</time></trkpt><trkpt lat="43.7933259571024" lon="11.220847018868842"><ele>44.0</ele><time>2026-04-03T08:54:11Z</time></trkpt><trkpt lat="43.7933671257326" lon="11.220751914203522"><ele>44.0</ele><time>2026-04-03T08:54:12Z</time></trkpt><trkpt lat="43.79340031078153" lon="11.220658037068754"><ele>44.0</ele><time>2026-04-03T08:54:13Z</time></trkpt><trkpt lat="43.7934434836519" lon="11.220535197473213"><ele>44.0</ele><time>2026-04-03T08:54:15Z</time></trkpt><trkpt lat="43.793474260246285" lon="11.220455456884988"><ele>44.0</ele><time>2026-04-03T08:54:17Z</time></trkpt><trkpt lat="43.793521132842464" lon="11.220340703433278"><ele>44.0</ele><time>2026-04-03T08:54:20Z</time></trkpt><trkpt lat="43.793552001862444" lon="11.220240289169697"><ele>44.0</ele><time>2026-04-03T08:54:22Z</time></trkpt><trkpt lat="43.793568828876666" lon="11.220139463815162"><ele>43.666666666666664</ele><time>2026-04-03T08:54:25Z</time></trkpt><trkpt lat="43.79358381780517" lon="11.22003697890293"><ele>43.33333333333333</ele><time>2026-04-03T08:54:29Z</time></trkpt><trkpt lat="43.79359465699714" lon="11.219938517864975"><ele>43.0</ele><time>2026-04-03T08:54:31Z</time></trkpt><trkpt lat="43.79364681853951" lon="11.219807412635008"><ele>42.666666666666664</ele><time>2026-04-03T08:54:33Z</time></trkpt><trkpt lat="43.793677691126796" lon="11.219731404351446"><ele>42.333333333333336</ele><time>2026-04-03T08:54:34Z</time></trkpt><trkpt lat="43.793727361747344" lon="11.219589020446318"><ele>42.0</ele><time>2026-04-03T08:54:36Z</time></trkpt><trkpt lat="43.793762984075904" lon="11.21943930112223"><ele>41.75</ele><time>2026-04-03T08:54:38Z</time></trkpt><trkpt lat="43.79380873020753" lon="11.219289435883267"><ele>41.5</ele><time>2026-04-03T08:54:40Z</time></trkpt><trkpt lat="43.79393727202863" lon="11.219189871823245"><ele>41.25</ele><time>2026-04-03T08:54:43Z</time></trkpt><trkpt lat="43.79401358700547" lon="11.219229594778025"><ele>41.0</ele><time>2026-04-03T08:54:44Z</time></trkpt><trkpt lat="43.79411914228207" lon="11.219293821013434"><ele>41.0</ele><time>2026-04-03T08:54:45Z</time></trkpt><trkpt lat="43.79423370182715" lon="11.21938290746463"><ele>41.0</ele><time>2026-04-03T08:54:46Z</time></trkpt><trkpt lat="43.79436439110084" lon="11.21947428566632"><ele>41.0</ele><time>2026-04-03T08:54:47Z</time></trkpt><trkpt lat="43.794473063490244" lon="11.21956063256947"><ele>41.0</ele><time>2026-04-03T08:54:48Z</time></trkpt><trkpt lat="43.79458752149391" lon="11.21965078118742"><ele>41.0</ele><time>2026-04-03T08:54:49Z</time></trkpt><trkpt lat="43.79467645674653" lon="11.219751442658344"><ele>41.0</ele><time>2026-04-03T08:54:50Z</time></trkpt><trkpt lat="43.794762576230525" lon="11.21985127210525"><ele>41.0</ele><time>2026-04-03T08:54:51Z</time></trkpt><trkpt lat="43.79484684717848" lon="11.219953361356229"><ele>41.0</ele><time>2026-04-03T08:54:52Z</time></trkpt><trkpt lat="43.794925440224404" lon="11.220056230265683"><ele>41.0</ele><time>2026-04-03T08:54:53Z</time></trkpt><trkpt lat="43.79500282945078" lon="11.220150544328087"><ele>41.0</ele><time>2026-04-03T08:54:54Z</time></trkpt><trkpt lat="43.795077090273956" lon="11.220239454970928"><ele>41.0</ele><time>2026-04-03T08:54:55Z</time></trkpt><trkpt lat="43.7951445073763" lon="11.220322321870936"><ele>41.0</ele><time>2026-04-03T08:54:56Z</time></trkpt><trkpt lat="43.79520778920297" lon="11.220392808304041"><ele>41.0</ele><time>2026-04-03T08:54:57Z</time></trkpt><trkpt lat="43.79526854643558" lon="11.220457058452915"><ele>41.0</ele><time>2026-04-03T08:54:58Z</time></trkpt><trkpt lat="43.79532011905418" lon="11.220513209369516"><ele>41.0</ele><time>2026-04-03T08:54:59Z</time></trkpt><trkpt lat="43.79539668407083" lon="11.220597014360617"><ele>41.5</ele><time>2026-04-03T08:55:01Z</time></trkpt><trkpt lat="43.79545005032579" lon="11.220663867223344"><ele>42.0</ele><time>2026-04-03T08:55:04Z</time></trkpt><trkpt lat="43.79551042951423" lon="11.220755916238426"><ele>42.5</ele><time>2026-04-03T08:55:14Z</time></trkpt><trkpt lat="43.79557537638871" lon="11.220803569677049"><ele>43.0</ele><time>2026-04-03T08:55:15Z</time></trkpt><trkpt lat="43.7956271159629" lon="11.220876310497648"><ele>43.5</ele><time>2026-04-03T08:55:16Z</time></trkpt><trkpt lat="43.795693260485564" lon="11.220957417762431"><ele>44.0</ele><time>2026-04-03T08:55:17Z</time></trkpt><trkpt lat="43.79577569600103" lon="11.22104617457309"><ele>44.0</ele><time>2026-04-03T08:55:18Z</time></trkpt><trkpt lat="43.79585270565739" lon="11.221133187557008"><ele>44.0</ele><time>2026-04-03T08:55:19Z</time></trkpt><trkpt lat="43.79593272500488" lon="11.221221414206553"><ele>44.0</ele><time>2026-04-03T08:55:20Z</time></trkpt><trkpt lat="43.79601745659888" lon="11.221325367446449"><ele>44.0</ele><time>2026-04-03T08:55:21Z</time></trkpt><trkpt lat="43.79611265730703" lon="11.221441395357129"><ele>44.0</ele><time>2026-04-03T08:55:22Z</time></trkpt><trkpt lat="43.7962079232542" lon="11.221557986460125"><ele>45.0</ele><time>2026-04-03T08:55:23Z</time></trkpt><trkpt lat="43.79630308905367" lon="11.221684214411235"><ele>46.0</ele><time>2026-04-03T08:55:24Z</time></trkpt><trkpt lat="43.796407426775964" lon="11.221809329228149"><ele>47.0</ele><time>2026-04-03T08:55:25Z</time></trkpt><trkpt lat="43.79650290912161" lon="11.22192572682754"><ele>48.0</ele><time>2026-04-03T08:55:26Z</time></trkpt><trkpt lat="43.7965807311629" lon="11.22203116367343"><ele>48.0</ele><time>2026-04-03T08:55:27Z</time></trkpt><trkpt lat="43.79665452227522" lon="11.222114922918594"><ele>48.0</ele><time>2026-04-03T08:55:28Z</time></trkpt><trkpt lat="43.796715214527374" lon="11.22220744994423"><ele>48.0</ele><time>2026-04-03T08:55:29Z</time></trkpt><trkpt lat="43.79677620328259" lon="11.22228930900307"><ele>48.0</ele><time>2026-04-03T08:55:30Z</time></trkpt><trkpt lat="43.79683148536877" lon="11.222358142216965"><ele>48.0</ele><time>2026-04-03T08:55:31Z</time></trkpt><trkpt lat="43.79688519671172" lon="11.222423237771277"><ele>48.0</ele><time>2026-04-03T08:55:32Z</time></trkpt><trkpt lat="43.79693164715176" lon="11.222482617023678"><ele>47.4</ele><time>2026-04-03T08:55:33Z</time></trkpt><trkpt lat="43.79701572930651" lon="11.222584716720023"><ele>46.8</ele><time>2026-04-03T08:55:35Z</time></trkpt><trkpt lat="43.79706243467366" lon="11.222648189463097"><ele>46.2</ele><time>2026-04-03T08:55:39Z</time></trkpt><trkpt lat="43.79712432371473" lon="11.22274619501135"><ele>45.6</ele><time>2026-04-03T08:55:44.999Z</time></trkpt><trkpt lat="43.797112054757584" lon="11.222948764166773"><ele>45.0</ele><time>2026-04-03T08:55:46.999Z</time></trkpt><trkpt lat="43.79709894085932" lon="11.223054338832466"><ele>44.8</ele><time>2026-04-03T08:55:47.999Z</time></trkpt><trkpt lat="43.79708168539431" lon="11.223163908032678"><ele>44.6</ele><time>2026-04-03T08:55:48.999Z</time></trkpt><trkpt lat="43.7970622039515" lon="11.223299627187862"><ele>44.400000000000006</ele><time>2026-04-03T08:55:49.999Z</time></trkpt><trkpt lat="43.79704496215461" lon="11.22343407491836"><ele>44.2</ele><time>2026-04-03T08:55:50.999Z</time></trkpt><trkpt lat="43.797020704557156" lon="11.223574845060561"><ele>44.0</ele><time>2026-04-03T08:55:51.999Z</time></trkpt><trkpt lat="43.79699266201695" lon="11.22371283871955"><ele>44.0</ele><time>2026-04-03T08:55:52.999Z</time></trkpt><trkpt lat="43.796957277156906" lon="11.223852408117073"><ele>44.0</ele><time>2026-04-03T08:55:53.999Z</time></trkpt><trkpt lat="43.79692506304891" lon="11.223989896121696"><ele>44.0</ele><time>2026-04-03T08:55:54.999Z</time></trkpt><trkpt lat="43.796895280090716" lon="11.224115790680377"><ele>44.0</ele><time>2026-04-03T08:55:55.999Z</time></trkpt><trkpt lat="43.796859852164346" lon="11.224238205421496"><ele>44.0</ele><time>2026-04-03T08:55:56.999Z</time></trkpt><trkpt lat="43.7968253043872" lon="11.224349198876379"><ele>44.5</ele><time>2026-04-03T08:55:57.999Z</time></trkpt><trkpt lat="43.79679250649871" lon="11.224452068722467"><ele>45.0</ele><time>2026-04-03T08:55:58.999Z</time></trkpt><trkpt lat="43.796762040179715" lon="11.224546564814453"><ele>45.5</ele><time>2026-04-03T08:55:59.999Z</time></trkpt><trkpt lat="43.79673179317711" lon="11.224640953358353"><ele>46.0</ele><time>2026-04-03T08:56:00.999Z</time></trkpt><trkpt lat="43.796700591031694" lon="11.224737158698732"><ele>46.5</ele><time>2026-04-03T08:56:01.999Z</time></trkpt><trkpt lat="43.79666920787839" lon="11.224832385975173"><ele>47.0</ele><time>2026-04-03T08:56:02.999Z</time></trkpt><trkpt lat="43.796640379061294" lon="11.224919681464307"><ele>47.0</ele><time>2026-04-03T08:56:03.999Z</time></trkpt><trkpt lat="43.79659601851529" lon="11.225056784398094"><ele>47.0</ele><time>2026-04-03T08:56:05.999Z</time></trkpt><trkpt lat="43.79655031162094" lon="11.225181302901765"><ele>47.0</ele><time>2026-04-03T08:56:07.999Z</time></trkpt><trkpt lat="43.7964929501635" lon="11.225342660089048"><ele>47.0</ele><time>2026-04-03T08:56:09.999Z</time></trkpt><trkpt lat="43.79644842590445" lon="11.225469603373938"><ele>47.0</ele><time>2026-04-03T08:56:10.999Z</time></trkpt><trkpt lat="43.79639476415529" lon="11.225617581396952"><ele>47.0</ele><time>2026-04-03T08:56:11.999Z</time></trkpt><trkpt lat="43.79633111553087" lon="11.225764975911197"><ele>47.0</ele><time>2026-04-03T08:56:12.999Z</time></trkpt><trkpt lat="43.796251862006734" lon="11.225937716653924"><ele>47.0</ele><time>2026-04-03T08:56:13.999Z</time></trkpt><trkpt lat="43.79617617946772" lon="11.226128927509638"><ele>47.0</ele><time>2026-04-03T08:56:14.999Z</time></trkpt><trkpt lat="43.79610203003925" lon="11.226321506378078"><ele>47.0</ele><time>2026-04-03T08:56:15.999Z</time></trkpt><trkpt lat="43.79602311007965" lon="11.226525649868991"><ele>47.0</ele><time>2026-04-03T08:56:16.999Z</time></trkpt><trkpt lat="43.79593858787575" lon="11.226735684191214"><ele>47.0</ele><time>2026-04-03T08:56:18Z</time></trkpt><trkpt lat="43.795850176059936" lon="11.226951631248276"><ele>47.0</ele><time>2026-04-03T08:56:19Z</time></trkpt><trkpt lat="43.795763765347296" lon="11.22716192341541"><ele>47.0</ele><time>2026-04-03T08:56:20Z</time></trkpt><trkpt lat="43.795685716505304" lon="11.227357612079636"><ele>47.0</ele><time>2026-04-03T08:56:21Z</time></trkpt><trkpt lat="43.79561265359778" lon="11.227532825991835"><ele>47.25</ele><time>2026-04-03T08:56:22Z</time></trkpt><trkpt lat="43.79554432733083" lon="11.227690513092888"><ele>47.5</ele><time>2026-04-03T08:56:23Z</time></trkpt><trkpt lat="43.79547305959687" lon="11.227849363808499"><ele>47.75</ele><time>2026-04-03T08:56:24Z</time></trkpt><trkpt lat="43.79540465701187" lon="11.228006980214595"><ele>48.0</ele><time>2026-04-03T08:56:25Z</time></trkpt><trkpt lat="43.79533718451737" lon="11.228176669153651"><ele>48.25</ele><time>2026-04-03T08:56:26Z</time></trkpt><trkpt lat="43.79526741585837" lon="11.228349136580784"><ele>48.5</ele><time>2026-04-03T08:56:27Z</time></trkpt><trkpt lat="43.795201863919736" lon="11.228508499436487"><ele>48.75</ele><time>2026-04-03T08:56:28Z</time></trkpt><trkpt lat="43.79513930471866" lon="11.228651375370813"><ele>49.0</ele><time>2026-04-03T08:56:29Z</time></trkpt><trkpt lat="43.795088128987786" lon="11.22877670528184"><ele>48.49999999999999</ele><time>2026-04-03T08:56:30Z</time></trkpt><trkpt lat="43.79504121046691" lon="11.228904102005517"><ele>48.0</ele><time>2026-04-03T08:56:31Z</time></trkpt><trkpt lat="43.79499408333666" lon="11.229022258003399"><ele>47.5</ele><time>2026-04-03T08:56:32Z</time></trkpt><trkpt lat="43.794948039950285" lon="11.229133069274491"><ele>47.0</ele><time>2026-04-03T08:56:33Z</time></trkpt><trkpt lat="43.79490156297328" lon="11.229237034681836"><ele>46.5</ele><time>2026-04-03T08:56:34Z</time></trkpt><trkpt lat="43.79486719560154" lon="11.229317308102923"><ele>46.0</ele><time>2026-04-03T08:56:35Z</time></trkpt><trkpt lat="43.79481499471998" lon="11.229386303943876"><ele>46.0</ele><time>2026-04-03T08:56:38Z</time></trkpt><trkpt lat="43.79480753062304" lon="11.22947550200231"><ele>46.0</ele><time>2026-04-03T08:57:51.999Z</time></trkpt><trkpt lat="43.79474175147422" lon="11.229623555899009"><ele>46.0</ele><time>2026-04-03T08:57:53.999Z</time></trkpt><trkpt lat="43.794706486294956" lon="11.229696913048187"><ele>46.0</ele><time>2026-04-03T08:57:54.999Z</time></trkpt><trkpt lat="43.79466414950828" lon="11.229792362108936"><ele>46.0</ele><time>2026-04-03T08:57:55.999Z</time></trkpt><trkpt lat="43.79462668954819" lon="11.229916634736423"><ele>46.0</ele><time>2026-04-03T08:57:56.999Z</time></trkpt><trkpt lat="43.794583195025936" lon="11.230087481742435"><ele>46.333333333333336</ele><time>2026-04-03T08:57:57.999Z</time></trkpt><trkpt lat="43.7945336560276" lon="11.230266771703207"><ele>46.666666666666664</ele><time>2026-04-03T08:57:58.999Z</time></trkpt><trkpt lat="43.79444770036852" lon="11.230471476391655"><ele>47.0</ele><time>2026-04-03T08:57:59.999Z</time></trkpt><trkpt lat="43.79435938447642" lon="11.230681728897775"><ele>45.666666666666664</ele><time>2026-04-03T08:58:00.999Z</time></trkpt><trkpt lat="43.794276399371206" lon="11.230897984762292"><ele>44.333333333333336</ele><time>2026-04-03T08:58:01.999Z</time></trkpt><trkpt lat="43.79420223625758" lon="11.23108344582788"><ele>43.0</ele><time>2026-04-03T08:58:02.999Z</time></trkpt><trkpt lat="43.79413083352195" lon="11.231248700771083"><ele>43.0</ele><time>2026-04-03T08:58:03.999Z</time></trkpt><trkpt lat="43.79406508472753" lon="11.23139649163148"><ele>43.0</ele><time>2026-04-03T08:58:04.999Z</time></trkpt><trkpt lat="43.7940014942918" lon="11.231538933585522"><ele>43.0</ele><time>2026-04-03T08:58:05.999Z</time></trkpt><trkpt lat="43.793945337155044" lon="11.231671399833719"><ele>43.0</ele><time>2026-04-03T08:58:06.999Z</time></trkpt><trkpt lat="43.79385130880712" lon="11.231923288656324"><ele>43.333333333333336</ele><time>2026-04-03T08:58:08.999Z</time></trkpt><trkpt lat="43.793809505516684" lon="11.232034926376505"><ele>43.66666666666667</ele><time>2026-04-03T08:58:09.999Z</time></trkpt><trkpt lat="43.79377054595758" lon="11.232138067321742"><ele>44.0</ele><time>2026-04-03T08:58:11.999Z</time></trkpt><trkpt lat="43.79371846891579" lon="11.23221134883268"><ele>44.333333333333336</ele><time>2026-04-03T08:58:26Z</time></trkpt><trkpt lat="43.79368649296857" lon="11.23231433764438"><ele>44.666666666666664</ele><time>2026-04-03T08:58:37Z</time></trkpt><trkpt lat="43.79360769736024" lon="11.232341882272577"><ele>45.0</ele><time>2026-04-03T08:58:39Z</time></trkpt><trkpt lat="43.793535342186715" lon="11.232300258570099"><ele>45.0</ele><time>2026-04-03T08:58:40Z</time></trkpt><trkpt lat="43.79347282421695" lon="11.232259618128381"><ele>45.0</ele><time>2026-04-03T08:58:41Z</time></trkpt><trkpt lat="43.793400334121515" lon="11.232215022815474"><ele>45.0</ele><time>2026-04-03T08:58:42Z</time></trkpt><trkpt lat="43.79333130575706" lon="11.232176386661026"><ele>45.0</ele><time>2026-04-03T08:58:43Z</time></trkpt><trkpt lat="43.793270919800186" lon="11.232119759890573"><ele>45.0</ele><time>2026-04-03T08:58:45Z</time></trkpt><trkpt lat="43.793342297565864" lon="11.232176137420746"><ele>45.0</ele><time>2026-04-03T08:58:48Z</time></trkpt><trkpt lat="43.79343702978684" lon="11.232250961343533"><ele>45.0</ele><time>2026-04-03T08:58:50Z</time></trkpt><trkpt lat="43.79350106327621" lon="11.232301538197175"><ele>45.0</ele><time>2026-04-03T08:58:54Z</time></trkpt><trkpt lat="43.79356824303761" lon="11.232354599953844"><ele>45.0</ele><time>2026-04-03T08:58:57Z</time></trkpt><trkpt lat="43.7936294242129" lon="11.232402923753655"><ele>45.0</ele><time>2026-04-03T08:58:59Z</time></trkpt><trkpt lat="43.79370441889755" lon="11.232462157980253"><ele>45.0</ele><time>2026-04-03T08:59:02Z</time></trkpt><trkpt lat="43.7937779480364" lon="11.232520234497803"><ele>45.0</ele><time>2026-04-03T08:59:05Z</time></trkpt><trkpt lat="43.793851985360014" lon="11.232486023981826"><ele>45.0</ele><time>2026-04-03T08:59:07Z</time></trkpt><trkpt lat="43.793422940771244" lon="11.231819816168734"><ele>45.0</ele><time>2026-04-03T08:59:09Z</time></trkpt><trkpt lat="43.79349247748588" lon="11.231649753660426"><ele>45.0</ele><time>2026-04-03T08:59:10Z</time></trkpt><trkpt lat="43.79356757289319" lon="11.231466097831293"><ele>45.0</ele><time>2026-04-03T08:59:11Z</time></trkpt><trkpt lat="43.79416906443851" lon="11.23165646726148"><ele>44.333333333333336</ele><time>2026-04-03T08:59:12Z</time></trkpt><trkpt lat="43.794263796561474" lon="11.231445899221148"><ele>43.66666666666667</ele><time>2026-04-03T08:59:13Z</time></trkpt><trkpt lat="43.79435542405632" lon="11.231230177287257"><ele>43.0</ele><time>2026-04-03T08:59:14Z</time></trkpt><trkpt lat="43.7944383532043" lon="11.231015085919301"><ele>44.333333333333336</ele><time>2026-04-03T08:59:15Z</time></trkpt><trkpt lat="43.794515567386554" lon="11.230814078646684"><ele>45.666666666666664</ele><time>2026-04-03T08:59:16Z</time></trkpt><trkpt lat="43.79459015654005" lon="11.230633464647909"><ele>47.0</ele><time>2026-04-03T08:59:17Z</time></trkpt><trkpt lat="43.79465781541695" lon="11.230469545490095"><ele>47.0</ele><time>2026-04-03T08:59:18Z</time></trkpt><trkpt lat="43.79470888550153" lon="11.23034366008616"><ele>47.0</ele><time>2026-04-03T08:59:19Z</time></trkpt><trkpt lat="43.794743972552155" lon="11.230264746029167"><ele>47.0</ele><time>2026-04-03T08:59:20Z</time></trkpt><trkpt lat="43.794776885992256" lon="11.230154788604763"><ele>47.0</ele><time>2026-04-03T09:00:05.999Z</time></trkpt><trkpt lat="43.79485319623637" lon="11.2300729676077"><ele>47.0</ele><time>2026-04-03T09:00:07.999Z</time></trkpt><trkpt lat="43.79497354724379" lon="11.230066252537316"><ele>47.0</ele><time>2026-04-03T09:00:09.999Z</time></trkpt><trkpt lat="43.79504640257519" lon="11.230067093223846"><ele>47.0</ele><time>2026-04-03T09:00:10.999Z</time></trkpt><trkpt lat="43.79512996414887" lon="11.230099989101003"><ele>47.0</ele><time>2026-04-03T09:00:11.999Z</time></trkpt><trkpt lat="43.79522296048643" lon="11.230166659614847"><ele>47.0</ele><time>2026-04-03T09:00:12.999Z</time></trkpt><trkpt lat="43.795311055124195" lon="11.230234399674409"><ele>47.0</ele><time>2026-04-03T09:00:13.999Z</time></trkpt><trkpt lat="43.795395070390754" lon="11.230277286606789"><ele>47.6</ele><time>2026-04-03T09:00:14.999Z</time></trkpt><trkpt lat="43.795481463442194" lon="11.230327583732974"><ele>48.2</ele><time>2026-04-03T09:00:15.999Z</time></trkpt><trkpt lat="43.795567122161785" lon="11.230378195654831"><ele>48.8</ele><time>2026-04-03T09:00:16.999Z</time></trkpt><trkpt lat="43.79566011375116" lon="11.230430852447418"><ele>49.4</ele><time>2026-04-03T09:00:17.999Z</time></trkpt><trkpt lat="43.79574671161443" lon="11.230474544939929"><ele>50.0</ele><time>2026-04-03T09:00:18.999Z</time></trkpt><trkpt lat="43.79582615583078" lon="11.230512991858088"><ele>50.0</ele><time>2026-04-03T09:00:19.999Z</time></trkpt><trkpt lat="43.79588665176874" lon="11.230560043201582"><ele>50.0</ele><time>2026-04-03T09:00:20.999Z</time></trkpt><trkpt lat="43.795944903301546" lon="11.230611463686548"><ele>50.0</ele><time>2026-04-03T09:00:21.999Z</time></trkpt><trkpt lat="43.796038363409444" lon="11.230726823183433"><ele>50.0</ele><time>2026-04-03T09:00:23.999Z</time></trkpt><trkpt lat="43.79608858912973" lon="11.230853940950336"><ele>50.0</ele><time>2026-04-03T09:00:25.999Z</time></trkpt><trkpt lat="43.795952955889724" lon="11.231014460447332"><ele>50.00000000000001</ele><time>2026-04-03T09:00:26.999Z</time></trkpt><trkpt lat="43.795900848992694" lon="11.231106384051142"><ele>50.0</ele><time>2026-04-03T09:00:27.999Z</time></trkpt><trkpt lat="43.79585814752196" lon="11.231201481966561"><ele>50.0</ele><time>2026-04-03T09:00:28.999Z</time></trkpt><trkpt lat="43.795804019689356" lon="11.231297191965805"><ele>50.0</ele><time>2026-04-03T09:00:29.999Z</time></trkpt><trkpt lat="43.79574991684338" lon="11.231388306716047"><ele>50.00000000000001</ele><time>2026-04-03T09:00:30.999Z</time></trkpt><trkpt lat="43.79570217712474" lon="11.231473912116634"><ele>50.0</ele><time>2026-04-03T09:00:32Z</time></trkpt><trkpt lat="43.7956205820308" lon="11.231590810016593"><ele>50.0</ele><time>2026-04-03T09:00:34Z</time></trkpt><trkpt lat="43.79557025712154" lon="11.231696209371702"><ele>50.0</ele><time>2026-04-03T09:00:35Z</time></trkpt><trkpt lat="43.795499616737914" lon="11.23183723982418"><ele>50.0</ele><time>2026-04-03T09:00:36Z</time></trkpt><trkpt lat="43.79541494554387" lon="11.23197890060689"><ele>50.0</ele><time>2026-04-03T09:00:37Z</time></trkpt><trkpt lat="43.79532533181087" lon="11.232129810202395"><ele>50.0</ele><time>2026-04-03T09:00:38Z</time></trkpt><trkpt lat="43.795248625330395" lon="11.23227180055952"><ele>50.0</ele><time>2026-04-03T09:00:39Z</time></trkpt><trkpt lat="43.795175023111426" lon="11.232400830835108"><ele>50.0</ele><time>2026-04-03T09:00:40Z</time></trkpt><trkpt lat="43.79509662307041" lon="11.232526658770476"><ele>50.0</ele><time>2026-04-03T09:00:41Z</time></trkpt><trkpt lat="43.79501831660601" lon="11.232652446512729"><ele>50.0</ele><time>2026-04-03T09:00:42Z</time></trkpt><trkpt lat="43.794941403520056" lon="11.232783840047043"><ele>50.0</ele><time>2026-04-03T09:00:43Z</time></trkpt><trkpt lat="43.79486523048065" lon="11.232911437004319"><ele>50.0</ele><time>2026-04-03T09:00:44Z</time></trkpt><trkpt lat="43.79480073072448" lon="11.233023861774901"><ele>50.0</ele><time>2026-04-03T09:00:45Z</time></trkpt><trkpt lat="43.794737088670416" lon="11.233115058351189"><ele>50.0</ele><time>2026-04-03T09:00:46Z</time></trkpt><trkpt lat="43.79466304423267" lon="11.233195875488631"><ele>50.0</ele><time>2026-04-03T09:00:48Z</time></trkpt><trkpt lat="43.79451187159403" lon="11.233094917614832"><ele>50.0</ele><time>2026-04-03T09:00:50Z</time></trkpt><trkpt lat="43.79441500804823" lon="11.233008017199044"><ele>50.0</ele><time>2026-04-03T09:00:51Z</time></trkpt><trkpt lat="43.79432892839677" lon="11.23294150290519"><ele>50.0</ele><time>2026-04-03T09:00:52Z</time></trkpt><trkpt lat="43.79423806965184" lon="11.232881521808714"><ele>50.2</ele><time>2026-04-03T09:00:53Z</time></trkpt><trkpt lat="43.79414713174317" lon="11.232817908596346"><ele>50.4</ele><time>2026-04-03T09:00:54Z</time></trkpt><trkpt lat="43.79404995605145" lon="11.232752976373064"><ele>50.599999999999994</ele><time>2026-04-03T09:00:55Z</time></trkpt><trkpt lat="43.79396682607845" lon="11.232694149489388"><ele>50.8</ele><time>2026-04-03T09:00:56Z</time></trkpt><trkpt lat="43.79389418900817" lon="11.232635697075384"><ele>51.0</ele><time>2026-04-03T09:00:57Z</time></trkpt><trkpt lat="43.79380659790151" lon="11.232739004687582"><ele>51.0</ele><time>2026-04-03T09:00:58Z</time></trkpt><trkpt lat="43.793720066850746" lon="11.232786775652245"><ele>51.0</ele><time>2026-04-03T09:00:59Z</time></trkpt><trkpt lat="43.79365380530437" lon="11.232890802912534"><ele>51.0</ele><time>2026-04-03T09:01:00Z</time></trkpt><trkpt lat="43.79359084045144" lon="11.233053665686361"><ele>51.0</ele><time>2026-04-03T09:01:01Z</time></trkpt><trkpt lat="43.79353265394563" lon="11.23324006953685"><ele>50.4</ele><time>2026-04-03T09:01:02Z</time></trkpt><trkpt lat="43.79347703248982" lon="11.233389879563427"><ele>49.8</ele><time>2026-04-03T09:01:03Z</time></trkpt><trkpt lat="43.79343019856919" lon="11.233512183336487"><ele>49.199999999999996</ele><time>2026-04-03T09:01:04Z</time></trkpt><trkpt lat="43.793394578874896" lon="11.233607563765148"><ele>48.599999999999994</ele><time>2026-04-03T09:01:05Z</time></trkpt><trkpt lat="43.79337226045746" lon="11.23370582735583"><ele>48.0</ele><time>2026-04-03T09:01:06Z</time></trkpt><trkpt lat="43.79338057402079" lon="11.233819894847912"><ele>48.0</ele><time>2026-04-03T09:01:07Z</time></trkpt><trkpt lat="43.79342891778654" lon="11.233939662064792"><ele>48.0</ele><time>2026-04-03T09:01:08Z</time></trkpt><trkpt lat="43.793494745041755" lon="11.234046308020682"><ele>48.0</ele><time>2026-04-03T09:01:09Z</time></trkpt><trkpt lat="43.79356625056316" lon="11.234143816167139"><ele>48.0</ele><time>2026-04-03T09:01:10Z</time></trkpt><trkpt lat="43.79365777322909" lon="11.234228516438854"><ele>48.0</ele><time>2026-04-03T09:01:11Z</time></trkpt><trkpt lat="43.79371538783727" lon="11.234320801733894"><ele>48.4</ele><time>2026-04-03T09:01:12Z</time></trkpt><trkpt lat="43.79375683961156" lon="11.234404431755053"><ele>48.8</ele><time>2026-04-03T09:01:14Z</time></trkpt><trkpt lat="43.793634550723475" lon="11.234543701783242"><ele>49.2</ele><time>2026-04-03T09:01:15Z</time></trkpt><trkpt lat="43.793582569674456" lon="11.234636621778051"><ele>49.6</ele><time>2026-04-03T09:01:16Z</time></trkpt><trkpt lat="43.793519464724966" lon="11.234707130800194"><ele>50.0</ele><time>2026-04-03T09:01:17Z</time></trkpt><trkpt lat="43.79346244416084" lon="11.234779275423323"><ele>50.25</ele><time>2026-04-03T09:01:18Z</time></trkpt><trkpt lat="43.79338074467669" lon="11.234898994720048"><ele>50.5</ele><time>2026-04-03T09:01:20Z</time></trkpt><trkpt lat="43.79328723692046" lon="11.235046697622263"><ele>50.75</ele><time>2026-04-03T09:01:22Z</time></trkpt><trkpt lat="43.79322016084902" lon="11.235155660168978"><ele>51.0</ele><time>2026-04-03T09:01:23Z</time></trkpt><trkpt lat="43.793147179299496" lon="11.235274752309667"><ele>51.0</ele><time>2026-04-03T09:01:24Z</time></trkpt><trkpt lat="43.79308537953704" lon="11.235376322950234"><ele>51.0</ele><time>2026-04-03T09:01:25Z</time></trkpt><trkpt lat="43.793034686978466" lon="11.235488796999558"><ele>51.0</ele><time>2026-04-03T09:01:26Z</time></trkpt><trkpt lat="43.79297457479761" lon="11.235591519925041"><ele>51.0</ele><time>2026-04-03T09:01:27Z</time></trkpt><trkpt lat="43.79292196450128" lon="11.235677808450962"><ele>51.0</ele><time>2026-04-03T09:01:28Z</time></trkpt><trkpt lat="43.792870256490104" lon="11.235748491077935"><ele>51.0</ele><time>2026-04-03T09:01:29Z</time></trkpt><trkpt lat="43.792823901851925" lon="11.235811066643597"><ele>51.0</ele><time>2026-04-03T09:01:30Z</time></trkpt><trkpt lat="43.79274016375444" lon="11.23591841288433"><ele>51.0</ele><time>2026-04-03T09:01:32Z</time></trkpt><trkpt lat="43.79268144688559" lon="11.236024330536148"><ele>51.0</ele><time>2026-04-03T09:01:34Z</time></trkpt><trkpt lat="43.79277024503118" lon="11.23615193931857"><ele>51.0</ele><time>2026-04-03T09:01:35Z</time></trkpt><trkpt lat="43.79285818367582" lon="11.236255019457337"><ele>51.0</ele><time>2026-04-03T09:01:37Z</time></trkpt><trkpt lat="43.79297122749028" lon="11.236310477960298"><ele>51.0</ele><time>2026-04-03T09:01:39Z</time></trkpt><trkpt lat="43.793041403326036" lon="11.236373480749695"><ele>51.0</ele><time>2026-04-03T09:01:40Z</time></trkpt><trkpt lat="43.79312077228708" lon="11.23644205559986"><ele>51.0</ele><time>2026-04-03T09:01:41Z</time></trkpt><trkpt lat="43.79320918375383" lon="11.236514329653962"><ele>51.0</ele><time>2026-04-03T09:01:42Z</time></trkpt><trkpt lat="43.79330976355609" lon="11.236603629811716"><ele>51.0</ele><time>2026-04-03T09:01:43Z</time></trkpt><trkpt lat="43.79341258436792" lon="11.236699380982252"><ele>51.0</ele><time>2026-04-03T09:01:44Z</time></trkpt><trkpt lat="43.79353264618631" lon="11.236797093172228"><ele>51.0</ele><time>2026-04-03T09:01:45Z</time></trkpt><trkpt lat="43.7936708538672" lon="11.236932048027121"><ele>51.0</ele><time>2026-04-03T09:01:46Z</time></trkpt><trkpt lat="43.79382585178775" lon="11.23707758241253"><ele>51.0</ele><time>2026-04-03T09:01:47Z</time></trkpt><trkpt lat="43.79399570363698" lon="11.237243976663287"><ele>51.0</ele><time>2026-04-03T09:01:48Z</time></trkpt><trkpt lat="43.79416595083096" lon="11.237406854781568"><ele>51.0</ele><time>2026-04-03T09:01:49Z</time></trkpt><trkpt lat="43.79433792066165" lon="11.237570120921482"><ele>51.66666666666667</ele><time>2026-04-03T09:01:50Z</time></trkpt><trkpt lat="43.7945110304483" lon="11.237725438403436"><ele>52.333333333333336</ele><time>2026-04-03T09:01:51Z</time></trkpt><trkpt lat="43.7946686014822" lon="11.237885810526944"><ele>53.0</ele><time>2026-04-03T09:01:52Z</time></trkpt><trkpt lat="43.79482845132217" lon="11.238035469340343"><ele>52.333333333333336</ele><time>2026-04-03T09:01:53Z</time></trkpt><trkpt lat="43.79498089480551" lon="11.238174995047611"><ele>51.66666666666667</ele><time>2026-04-03T09:01:54Z</time></trkpt><trkpt lat="43.79512122128792" lon="11.238304382190291"><ele>51.0</ele><time>2026-04-03T09:01:55Z</time></trkpt><trkpt lat="43.79525441807273" lon="11.23843192645913"><ele>51.0</ele><time>2026-04-03T09:01:56Z</time></trkpt><trkpt lat="43.79538617156584" lon="11.238565266604217"><ele>51.0</ele><time>2026-04-03T09:01:57Z</time></trkpt><trkpt lat="43.79550562141151" lon="11.238705829937427"><ele>51.0</ele><time>2026-04-03T09:01:57.999Z</time></trkpt><trkpt lat="43.79560403153436" lon="11.23886579697958"><ele>51.75</ele><time>2026-04-03T09:01:58.999Z</time></trkpt><trkpt lat="43.795680223907794" lon="11.23903866025397"><ele>52.5</ele><time>2026-04-03T09:01:59.999Z</time></trkpt><trkpt lat="43.795730139734786" lon="11.239190278724946"><ele>53.25</ele><time>2026-04-03T09:02:00.999Z</time></trkpt><trkpt lat="43.795784953831955" lon="11.239358378503278"><ele>54.0</ele><time>2026-04-03T09:02:01.999Z</time></trkpt><trkpt lat="43.79583541599753" lon="11.23951654766883"><ele>54.0</ele><time>2026-04-03T09:02:02.999Z</time></trkpt><trkpt lat="43.795885473027425" lon="11.23966951762894"><ele>54.0</ele><time>2026-04-03T09:02:03.999Z</time></trkpt><trkpt lat="43.79592031564893" lon="11.239771625148727"><ele>54.0</ele><time>2026-04-03T09:02:04.999Z</time></trkpt><trkpt lat="43.795953339048914" lon="11.239854099842418"><ele>54.0</ele><time>2026-04-03T09:02:05.999Z</time></trkpt><trkpt lat="43.795983631552104" lon="11.239937457119103"><ele>54.0</ele><time>2026-04-03T09:02:07.999Z</time></trkpt><trkpt lat="43.79602127744765" lon="11.240035888883321"><ele>54.0</ele><time>2026-04-03T09:02:12.999Z</time></trkpt><trkpt lat="43.796050344205106" lon="11.240117300451713"><ele>54.333333333333336</ele><time>2026-04-03T09:02:55Z</time></trkpt><trkpt lat="43.79609736564274" lon="11.240221091120798"><ele>54.66666666666667</ele><time>2026-04-03T09:02:57Z</time></trkpt><trkpt lat="43.796171789261386" lon="11.240361284142278"><ele>55.0</ele><time>2026-04-03T09:02:59Z</time></trkpt><trkpt lat="43.79621150807842" lon="11.24044192614308"><ele>55.333333333333336</ele><time>2026-04-03T09:03:00Z</time></trkpt><trkpt lat="43.79625091807799" lon="11.240530424672365"><ele>55.66666666666667</ele><time>2026-04-03T09:03:01Z</time></trkpt><trkpt lat="43.796292976673435" lon="11.2406256264868"><ele>56.0</ele><time>2026-04-03T09:03:02Z</time></trkpt><trkpt lat="43.79634051063641" lon="11.240723464539881"><ele>56.00000000000001</ele><time>2026-04-03T09:03:03Z</time></trkpt><trkpt lat="43.796386901148395" lon="11.240807907563752"><ele>56.0</ele><time>2026-04-03T09:03:04Z</time></trkpt><trkpt lat="43.79643647862148" lon="11.240886885759812"><ele>56.0</ele><time>2026-04-03T09:03:05Z</time></trkpt><trkpt lat="43.79648347281678" lon="11.240963811178117"><ele>56.0</ele><time>2026-04-03T09:03:06Z</time></trkpt><trkpt lat="43.7965324900798" lon="11.241035930001516"><ele>56.00000000000001</ele><time>2026-04-03T09:03:07Z</time></trkpt><trkpt lat="43.79658969887616" lon="11.24111140640201"><ele>56.0</ele><time>2026-04-03T09:03:08Z</time></trkpt><trkpt lat="43.79665746718372" lon="11.241188737436232"><ele>56.00000000000001</ele><time>2026-04-03T09:03:09Z</time></trkpt><trkpt lat="43.79671196191066" lon="11.241255104801118"><ele>56.0</ele><time>2026-04-03T09:03:10Z</time></trkpt><trkpt lat="43.79676747137113" lon="11.24131904304814"><ele>56.0</ele><time>2026-04-03T09:03:11Z</time></trkpt><trkpt lat="43.79682859984476" lon="11.241391332667282"><ele>56.0</ele><time>2026-04-03T09:03:12Z</time></trkpt><trkpt lat="43.79690082319716" lon="11.241483195738992"><ele>56.00000000000001</ele><time>2026-04-03T09:03:13Z</time></trkpt><trkpt lat="43.796979916223805" lon="11.241574273481092"><ele>56.0</ele><time>2026-04-03T09:03:14Z</time></trkpt><trkpt lat="43.79706192545281" lon="11.241679767441182"><ele>56.199999999999996</ele><time>2026-04-03T09:03:15Z</time></trkpt><trkpt lat="43.797149482782324" lon="11.24177191526349"><ele>56.39999999999999</ele><time>2026-04-03T09:03:16Z</time></trkpt><trkpt lat="43.79721513117821" lon="11.24186139011387"><ele>56.6</ele><time>2026-04-03T09:03:17Z</time></trkpt><trkpt lat="43.797296593681665" lon="11.24195150926467"><ele>56.8</ele><time>2026-04-03T09:03:18Z</time></trkpt><trkpt lat="43.79739211841442" lon="11.242047944340353"><ele>57.0</ele><time>2026-04-03T09:03:19Z</time></trkpt><trkpt lat="43.79747118236728" lon="11.242143784619278"><ele>57.0</ele><time>2026-04-03T09:03:20Z</time></trkpt><trkpt lat="43.79754102227918" lon="11.242215807711839"><ele>57.0</ele><time>2026-04-03T09:03:21Z</time></trkpt><trkpt lat="43.79760185796172" lon="11.242289607761883"><ele>57.0</ele><time>2026-04-03T09:03:22Z</time></trkpt><trkpt lat="43.79767332085635" lon="11.242369252388816"><ele>57.0</ele><time>2026-04-03T09:03:23Z</time></trkpt><trkpt lat="43.797752697648995" lon="11.24245283722067"><ele>57.0</ele><time>2026-04-03T09:03:24Z</time></trkpt><trkpt lat="43.79784464530614" lon="11.24253739084964"><ele>57.666666666666664</ele><time>2026-04-03T09:03:25Z</time></trkpt><trkpt lat="43.79791606856975" lon="11.242608434090624"><ele>58.33333333333333</ele><time>2026-04-03T09:03:26Z</time></trkpt><trkpt lat="43.79797148660696" lon="11.242663706403325"><ele>59.0</ele><time>2026-04-03T09:03:27Z</time></trkpt><trkpt lat="43.79802333330434" lon="11.242720430961755"><ele>59.666666666666664</ele><time>2026-04-03T09:03:28Z</time></trkpt><trkpt lat="43.79809326671059" lon="11.242804980061798"><ele>60.33333333333333</ele><time>2026-04-03T09:03:30Z</time></trkpt><trkpt lat="43.79815081237652" lon="11.24286452704719"><ele>61.0</ele><time>2026-04-03T09:03:32Z</time></trkpt><trkpt lat="43.798247611863836" lon="11.24295761442025"><ele>61.0</ele><time>2026-04-03T09:03:34Z</time></trkpt><trkpt lat="43.79831689457469" lon="11.243017591187172"><ele>60.99999999999999</ele><time>2026-04-03T09:03:35Z</time></trkpt><trkpt lat="43.79840880087141" lon="11.243092916525182"><ele>60.99999999999999</ele><time>2026-04-03T09:03:36Z</time></trkpt><trkpt lat="43.79850375272866" lon="11.243167624707441"><ele>61.0</ele><time>2026-04-03T09:03:37Z</time></trkpt><trkpt lat="43.798591773925445" lon="11.243245473099623"><ele>61.0</ele><time>2026-04-03T09:03:38Z</time></trkpt><trkpt lat="43.798686262950916" lon="11.243324745492306"><ele>61.199999999999996</ele><time>2026-04-03T09:03:39Z</time></trkpt><trkpt lat="43.79877881615272" lon="11.2434098471012"><ele>61.39999999999999</ele><time>2026-04-03T09:03:40Z</time></trkpt><trkpt lat="43.79886541742259" lon="11.243481366141877"><ele>61.6</ele><time>2026-04-03T09:03:41Z</time></trkpt><trkpt lat="43.7989427098417" lon="11.243550100165233"><ele>61.8</ele><time>2026-04-03T09:03:42Z</time></trkpt><trkpt lat="43.7990162966314" lon="11.243611932407596"><ele>62.0</ele><time>2026-04-03T09:03:43Z</time></trkpt><trkpt lat="43.79908090645712" lon="11.243669707623985"><ele>62.0</ele><time>2026-04-03T09:03:44Z</time></trkpt><trkpt lat="43.79913883597018" lon="11.243720960328076"><ele>62.0</ele><time>2026-04-03T09:03:45Z</time></trkpt><trkpt lat="43.79921045713342" lon="11.243776091572"><ele>62.0</ele><time>2026-04-03T09:03:47Z</time></trkpt><trkpt lat="43.79932011375388" lon="11.24385350745213"><ele>62.0</ele><time>2026-04-03T09:03:51Z</time></trkpt><trkpt lat="43.79939582308071" lon="11.2439103158066"><ele>62.0</ele><time>2026-04-03T09:03:52Z</time></trkpt><trkpt lat="43.79948150023728" lon="11.24398069857484"><ele>62.0</ele><time>2026-04-03T09:03:53Z</time></trkpt><trkpt lat="43.79958257789148" lon="11.244052175284098"><ele>62.0</ele><time>2026-04-03T09:03:54Z</time></trkpt><trkpt lat="43.799691322445575" lon="11.244128252011349"><ele>62.0</ele><time>2026-04-03T09:03:55Z</time></trkpt><trkpt lat="43.79980148505406" lon="11.244211714411835"><ele>62.0</ele><time>2026-04-03T09:03:56Z</time></trkpt><trkpt lat="43.79991490273772" lon="11.244285626384851"><ele>62.0</ele><time>2026-04-03T09:03:57Z</time></trkpt><trkpt lat="43.80003856222088" lon="11.244362762137603"><ele>62.0</ele><time>2026-04-03T09:03:58Z</time></trkpt><trkpt lat="43.800165944898126" lon="11.244429290445405"><ele>62.0</ele><time>2026-04-03T09:03:59Z</time></trkpt><trkpt lat="43.80030052197728" lon="11.244492542272436"><ele>62.0</ele><time>2026-04-03T09:04:00Z</time></trkpt><trkpt lat="43.800433238505335" lon="11.244567994042374"><ele>62.333333333333336</ele><time>2026-04-03T09:04:01Z</time></trkpt><trkpt lat="43.800565442301654" lon="11.24464574854437"><ele>62.66666666666667</ele><time>2026-04-03T09:04:02Z</time></trkpt><trkpt lat="43.80070649802307" lon="11.244730600265367"><ele>63.0</ele><time>2026-04-03T09:04:03Z</time></trkpt><trkpt lat="43.80085045633483" lon="11.244811072404739"><ele>63.0</ele><time>2026-04-03T09:04:04Z</time></trkpt><trkpt lat="43.800996953680404" lon="11.244893005648722"><ele>63.0</ele><time>2026-04-03T09:04:05Z</time></trkpt><trkpt lat="43.801141083369444" lon="11.244968523919804"><ele>63.0</ele><time>2026-04-03T09:04:06Z</time></trkpt><trkpt lat="43.80128710350008" lon="11.245041939200929"><ele>62.75</ele><time>2026-04-03T09:04:07Z</time></trkpt><trkpt lat="43.80141943371338" lon="11.245104490478962"><ele>62.5</ele><time>2026-04-03T09:04:08Z</time></trkpt><trkpt lat="43.80154493904136" lon="11.245160512881839"><ele>62.25</ele><time>2026-04-03T09:04:09Z</time></trkpt><trkpt lat="43.801664470491176" lon="11.245214247767997"><ele>62.0</ele><time>2026-04-03T09:04:10Z</time></trkpt><trkpt lat="43.80178527320146" lon="11.245264456455576"><ele>63.0</ele><time>2026-04-03T09:04:11Z</time></trkpt><trkpt lat="43.8019243316635" lon="11.245321517746191"><ele>64.0</ele><time>2026-04-03T09:04:12Z</time></trkpt><trkpt lat="43.8020719698672" lon="11.245373016814805"><ele>65.0</ele><time>2026-04-03T09:04:13Z</time></trkpt><trkpt lat="43.802229934024204" lon="11.245438702949025"><ele>65.0</ele><time>2026-04-03T09:04:14Z</time></trkpt><trkpt lat="43.8023901009835" lon="11.245504141258818"><ele>65.0</ele><time>2026-04-03T09:04:15Z</time></trkpt><trkpt lat="43.8025486217573" lon="11.245565901372942"><ele>65.0</ele><time>2026-04-03T09:04:16Z</time></trkpt><trkpt lat="43.80269327641864" lon="11.245620390890183"><ele>65.0</ele><time>2026-04-03T09:04:17Z</time></trkpt><trkpt lat="43.8028274404928" lon="11.245673044870049"><ele>65.0</ele><time>2026-04-03T09:04:18Z</time></trkpt><trkpt lat="43.80294069000857" lon="11.245720033905954"><ele>65.0</ele><time>2026-04-03T09:04:19Z</time></trkpt><trkpt lat="43.80303890265726" lon="11.24576284246442"><ele>65.0</ele><time>2026-04-03T09:04:20Z</time></trkpt><trkpt lat="43.80311341408839" lon="11.245798861237116"><ele>65.0</ele><time>2026-04-03T09:04:21Z</time></trkpt><trkpt lat="43.80317347955771" lon="11.245857557243312"><ele>65.0</ele><time>2026-04-03T09:04:23Z</time></trkpt><trkpt lat="43.80323732112412" lon="11.245951645028937"><ele>65.0</ele><time>2026-04-03T09:04:39.001Z</time></trkpt><trkpt lat="43.803261079906875" lon="11.246034902631912"><ele>65.0</ele><time>2026-04-03T09:04:40.001Z</time></trkpt><trkpt lat="43.803277043961224" lon="11.246192868096049"><ele>65.0</ele><time>2026-04-03T09:04:42.001Z</time></trkpt><trkpt lat="43.803260249379534" lon="11.246356111053771"><ele>65.0</ele><time>2026-04-03T09:04:44.001Z</time></trkpt><trkpt lat="43.80322347295645" lon="11.246504438402614"><ele>64.83333333333334</ele><time>2026-04-03T09:04:46.001Z</time></trkpt><trkpt lat="43.803205392581596" lon="11.24663998218521"><ele>64.66666666666667</ele><time>2026-04-03T09:04:48.001Z</time></trkpt><trkpt lat="43.80317876821202" lon="11.246759995054665"><ele>64.5</ele><time>2026-04-03T09:04:52.001Z</time></trkpt><trkpt lat="43.803158513562124" lon="11.246851060537455"><ele>64.33333333333333</ele><time>2026-04-03T09:04:54.001Z</time></trkpt><trkpt lat="43.8031331959772" lon="11.246941460354359"><ele>64.16666666666666</ele><time>2026-04-03T09:04:56.001Z</time></trkpt><trkpt lat="43.803112086370916" lon="11.247036775338568"><ele>64.0</ele><time>2026-04-03T09:04:58.001Z</time></trkpt><trkpt lat="43.803089651978304" lon="11.247142436972911"><ele>64.0</ele><time>2026-04-03T09:05:00.001Z</time></trkpt><trkpt lat="43.803016659149044" lon="11.247245443994991"><ele>64.0</ele><time>2026-04-03T09:05:02.001Z</time></trkpt><trkpt lat="43.80297012541775" lon="11.247389106638273"><ele>64.0</ele><time>2026-04-03T09:05:04.001Z</time></trkpt><trkpt lat="43.80303877436605" lon="11.247506892766227"><ele>64.0</ele><time>2026-04-03T09:05:05.001Z</time></trkpt><trkpt lat="43.803095371531086" lon="11.247560424922023"><ele>64.0</ele><time>2026-04-03T09:05:06.001Z</time></trkpt><trkpt lat="43.80318777010281" lon="11.247550469524498"><ele>63.83333333333333</ele><time>2026-04-03T09:05:07.001Z</time></trkpt><trkpt lat="43.803261235342816" lon="11.247552379757154"><ele>63.666666666666664</ele><time>2026-04-03T09:05:08.001Z</time></trkpt><trkpt lat="43.803344556824214" lon="11.247557780890638"><ele>63.5</ele><time>2026-04-03T09:05:09.001Z</time></trkpt><trkpt lat="43.803431649295014" lon="11.247559343439825"><ele>63.33333333333333</ele><time>2026-04-03T09:05:10.001Z</time></trkpt><trkpt lat="43.80352068389944" lon="11.247565472584869"><ele>63.166666666666664</ele><time>2026-04-03T09:05:11.001Z</time></trkpt><trkpt lat="43.803620193666546" lon="11.247585797967506"><ele>63.0</ele><time>2026-04-03T09:05:12.001Z</time></trkpt><trkpt lat="43.80372259363683" lon="11.247627210556269"><ele>63.4</ele><time>2026-04-03T09:05:13.001Z</time></trkpt><trkpt lat="43.80382620557005" lon="11.247696415099973"><ele>63.8</ele><time>2026-04-03T09:05:14.001Z</time></trkpt><trkpt lat="43.803918244701244" lon="11.24776262437049"><ele>64.2</ele><time>2026-04-03T09:05:15.001Z</time></trkpt><trkpt lat="43.80400545105055" lon="11.247822066494221"><ele>64.6</ele><time>2026-04-03T09:05:16.001Z</time></trkpt><trkpt lat="43.804093801145974" lon="11.247880839762193"><ele>65.0</ele><time>2026-04-03T09:05:17.001Z</time></trkpt><trkpt lat="43.80417843629691" lon="11.247940781731367"><ele>65.25</ele><time>2026-04-03T09:05:18.001Z</time></trkpt><trkpt lat="43.804360713299765" lon="11.248063173421597"><ele>65.5</ele><time>2026-04-03T09:05:20.001Z</time></trkpt><trkpt lat="43.80445286704868" lon="11.24811892415439"><ele>65.75</ele><time>2026-04-03T09:05:21.001Z</time></trkpt><trkpt lat="43.804553806223794" lon="11.248185287742363"><ele>66.0</ele><time>2026-04-03T09:05:22.001Z</time></trkpt><trkpt lat="43.8046545942232" lon="11.24825295736466"><ele>66.0</ele><time>2026-04-03T09:05:23.001Z</time></trkpt><trkpt lat="43.80475083983859" lon="11.248318748091371"><ele>66.0</ele><time>2026-04-03T09:05:24.001Z</time></trkpt><trkpt lat="43.80483790417715" lon="11.248373232982159"><ele>66.0</ele><time>2026-04-03T09:05:25.001Z</time></trkpt><trkpt lat="43.804909973976336" lon="11.248420902154205"><ele>66.0</ele><time>2026-04-03T09:05:26.001Z</time></trkpt><trkpt lat="43.80497479489378" lon="11.248469815231337"><ele>66.0</ele><time>2026-04-03T09:05:27.001Z</time></trkpt><trkpt lat="43.805044951538875" lon="11.24851804573564"><ele>66.0</ele><time>2026-04-03T09:05:28.001Z</time></trkpt><trkpt lat="43.805117267409344" lon="11.248564806750341"><ele>67.0</ele><time>2026-04-03T09:05:29.001Z</time></trkpt><trkpt lat="43.80519420732645" lon="11.248612174284554"><ele>68.0</ele><time>2026-04-03T09:05:30.001Z</time></trkpt><trkpt lat="43.80527689229446" lon="11.248664467104044"><ele>69.0</ele><time>2026-04-03T09:05:31.001Z</time></trkpt><trkpt lat="43.805351523699464" lon="11.248708586901792"><ele>70.0</ele><time>2026-04-03T09:05:32.001Z</time></trkpt><trkpt lat="43.80541114047297" lon="11.248776041177331"><ele>71.0</ele><time>2026-04-03T09:05:33.001Z</time></trkpt><trkpt lat="43.805483099044935" lon="11.248828999693602"><ele>72.0</ele><time>2026-04-03T09:05:34.001Z</time></trkpt><trkpt lat="43.80556866005055" lon="11.248891634972145"><ele>72.0</ele><time>2026-04-03T09:05:35.001Z</time></trkpt><trkpt lat="43.80566194332969" lon="11.248949063858037"><ele>72.0</ele><time>2026-04-03T09:05:36.001Z</time></trkpt><trkpt lat="43.80575068729438" lon="11.249032323392361"><ele>72.0</ele><time>2026-04-03T09:05:37.001Z</time></trkpt><trkpt lat="43.80586119203623" lon="11.249094395658275"><ele>72.0</ele><time>2026-04-03T09:05:38.001Z</time></trkpt><trkpt lat="43.80596673265027" lon="11.249166462465613"><ele>72.0</ele><time>2026-04-03T09:05:39.001Z</time></trkpt><trkpt lat="43.80608420970965" lon="11.249249138120655"><ele>71.75</ele><time>2026-04-03T09:05:40.001Z</time></trkpt><trkpt lat="43.80620275926124" lon="11.249333647312776"><ele>71.5</ele><time>2026-04-03T09:05:41.001Z</time></trkpt><trkpt lat="43.80630766944234" lon="11.249415280861891"><ele>71.25</ele><time>2026-04-03T09:05:42.001Z</time></trkpt><trkpt lat="43.80641417316578" lon="11.249492755840171"><ele>71.0</ele><time>2026-04-03T09:05:43.001Z</time></trkpt><trkpt lat="43.80652825795265" lon="11.24956843036771"><ele>71.0</ele><time>2026-04-03T09:05:44.001Z</time></trkpt><trkpt lat="43.80664036925322" lon="11.2496498253451"><ele>71.0</ele><time>2026-04-03T09:05:45.001Z</time></trkpt><trkpt lat="43.80674635289444" lon="11.249733849906018"><ele>71.0</ele><time>2026-04-03T09:05:46.001Z</time></trkpt><trkpt lat="43.806843914069134" lon="11.249805922499812"><ele>71.0</ele><time>2026-04-03T09:05:47.001Z</time></trkpt><trkpt lat="43.806937161087085" lon="11.24987325294256"><ele>72.6</ele><time>2026-04-03T09:05:48.001Z</time></trkpt><trkpt lat="43.80702649190164" lon="11.249932715540723"><ele>74.19999999999999</ele><time>2026-04-03T09:05:49.001Z</time></trkpt><trkpt lat="43.807118561388044" lon="11.24999594987998"><ele>75.80000000000001</ele><time>2026-04-03T09:05:50.001Z</time></trkpt><trkpt lat="43.80722329409512" lon="11.250067170778896"><ele>77.4</ele><time>2026-04-03T09:05:51.001Z</time></trkpt><trkpt lat="43.807332982716176" lon="11.250134482784619"><ele>79.0</ele><time>2026-04-03T09:05:52.001Z</time></trkpt><trkpt lat="43.8074258827343" lon="11.250199613996076"><ele>79.0</ele><time>2026-04-03T09:05:53.001Z</time></trkpt><trkpt lat="43.807527312193834" lon="11.25028696441219"><ele>79.0</ele><time>2026-04-03T09:05:54.001Z</time></trkpt><trkpt lat="43.80765962100425" lon="11.250382474426617"><ele>79.0</ele><time>2026-04-03T09:05:55.001Z</time></trkpt><trkpt lat="43.807802835878526" lon="11.250469770360834"><ele>79.0</ele><time>2026-04-03T09:05:56.001Z</time></trkpt><trkpt lat="43.807934355801684" lon="11.250576847825819"><ele>80.0</ele><time>2026-04-03T09:05:57.001Z</time></trkpt><trkpt lat="43.80805731690459" lon="11.25066571617803"><ele>81.0</ele><time>2026-04-03T09:05:58.001Z</time></trkpt><trkpt lat="43.80817224928492" lon="11.250744605243474"><ele>82.0</ele><time>2026-04-03T09:05:59.001Z</time></trkpt><trkpt lat="43.80828925334221" lon="11.250821241081681"><ele>83.0</ele><time>2026-04-03T09:06:00.001Z</time></trkpt><trkpt lat="43.8083965428927" lon="11.250901001992435"><ele>83.80000000000001</ele><time>2026-04-03T09:06:01.001Z</time></trkpt><trkpt lat="43.808498879100554" lon="11.250961842036501"><ele>84.6</ele><time>2026-04-03T09:06:02.001Z</time></trkpt><trkpt lat="43.80860137295682" lon="11.251019144802722"><ele>85.4</ele><time>2026-04-03T09:06:03.001Z</time></trkpt><trkpt lat="43.80870360926486" lon="11.251068985743201"><ele>86.19999999999999</ele><time>2026-04-03T09:06:04.001Z</time></trkpt><trkpt lat="43.80880770173223" lon="11.251076605237095"><ele>87.0</ele><time>2026-04-03T09:06:05.001Z</time></trkpt><trkpt lat="43.80891115129924" lon="11.251030706567823"><ele>87.0</ele><time>2026-04-03T09:06:06.001Z</time></trkpt><trkpt lat="43.80901584805343" lon="11.250979541975045"><ele>87.0</ele><time>2026-04-03T09:06:07.001Z</time></trkpt><trkpt lat="43.809122494208616" lon="11.25093019682335"><ele>87.0</ele><time>2026-04-03T09:06:08.001Z</time></trkpt><trkpt lat="43.80923276007069" lon="11.250868562868632"><ele>87.0</ele><time>2026-04-03T09:06:09.001Z</time></trkpt><trkpt lat="43.80933301454054" lon="11.250800238625196"><ele>87.16666666666667</ele><time>2026-04-03T09:06:10.001Z</time></trkpt><trkpt lat="43.809423984538796" lon="11.25073083038627"><ele>87.33333333333333</ele><time>2026-04-03T09:06:11.001Z</time></trkpt><trkpt lat="43.809504734351634" lon="11.250669184634633"><ele>87.5</ele><time>2026-04-03T09:06:12.001Z</time></trkpt><trkpt lat="43.80958195471946" lon="11.250607856148626"><ele>87.66666666666666</ele><time>2026-04-03T09:06:13.001Z</time></trkpt><trkpt lat="43.809651821259685" lon="11.2505542498878"><ele>87.83333333333333</ele><time>2026-04-03T09:06:14.001Z</time></trkpt><trkpt lat="43.80971897356232" lon="11.2505024481003"><ele>88.0</ele><time>2026-04-03T09:06:15.001Z</time></trkpt><trkpt lat="43.80978444649668" lon="11.25045336185464"><ele>88.4</ele><time>2026-04-03T09:06:16.001Z</time></trkpt><trkpt lat="43.8098600074282" lon="11.250396800805039"><ele>88.80000000000001</ele><time>2026-04-03T09:06:17.001Z</time></trkpt><trkpt lat="43.80995375953673" lon="11.250316953726548"><ele>89.2</ele><time>2026-04-03T09:06:18.001Z</time></trkpt><trkpt lat="43.8100443206553" lon="11.250243304044648"><ele>89.6</ele><time>2026-04-03T09:06:19.001Z</time></trkpt><trkpt lat="43.81013035784461" lon="11.25017759028649"><ele>90.0</ele><time>2026-04-03T09:06:20.001Z</time></trkpt><trkpt lat="43.81020817206199" lon="11.250112046415666"><ele>90.2</ele><time>2026-04-03T09:06:21.001Z</time></trkpt><trkpt lat="43.81029026810752" lon="11.250052980618756"><ele>90.4</ele><time>2026-04-03T09:06:22.001Z</time></trkpt><trkpt lat="43.81037285604174" lon="11.249996706832366"><ele>90.6</ele><time>2026-04-03T09:06:23.001Z</time></trkpt><trkpt lat="43.81046102135923" lon="11.24995226805264"><ele>90.8</ele><time>2026-04-03T09:06:24.001Z</time></trkpt><trkpt lat="43.810561919948405" lon="11.249937634106413"><ele>91.0</ele><time>2026-04-03T09:06:25.001Z</time></trkpt><trkpt lat="43.810675791338866" lon="11.249949300406247"><ele>91.0</ele><time>2026-04-03T09:06:26.001Z</time></trkpt><trkpt lat="43.81079103831542" lon="11.249973036157064"><ele>91.0</ele><time>2026-04-03T09:06:27.001Z</time></trkpt><trkpt lat="43.81089237243353" lon="11.24997900621802"><ele>91.0</ele><time>2026-04-03T09:06:28.001Z</time></trkpt><trkpt lat="43.81098223928039" lon="11.249983437400324"><ele>91.0</ele><time>2026-04-03T09:06:29.001Z</time></trkpt><trkpt lat="43.81106357348019" lon="11.249988046487498"><ele>91.0</ele><time>2026-04-03T09:06:30.001Z</time></trkpt><trkpt lat="43.811128117077686" lon="11.24999230877035"><ele>91.33333333333333</ele><time>2026-04-03T09:06:31.001Z</time></trkpt><trkpt lat="43.81119252766399" lon="11.249998949561286"><ele>91.66666666666666</ele><time>2026-04-03T09:06:33.001Z</time></trkpt><trkpt lat="43.81126429809799" lon="11.250020416969951"><ele>92.0</ele><time>2026-04-03T09:06:38.001Z</time></trkpt><trkpt lat="43.811364578897944" lon="11.250021689793314"><ele>92.33333333333333</ele><time>2026-04-03T09:06:48.001Z</time></trkpt><trkpt lat="43.81143597951057" lon="11.250008031351262"><ele>92.66666666666667</ele><time>2026-04-03T09:06:52.001Z</time></trkpt><trkpt lat="43.8114793645339" lon="11.249844814004321"><ele>93.0</ele><time>2026-04-03T09:06:53.001Z</time></trkpt><trkpt lat="43.81155764471843" lon="11.249767780121278"><ele>91.0</ele><time>2026-04-03T09:06:55.001Z</time></trkpt><trkpt lat="43.811659255862814" lon="11.249744072360212"><ele>89.0</ele><time>2026-04-03T09:06:57.001Z</time></trkpt><trkpt lat="43.81176872746199" lon="11.249746289182337"><ele>87.0</ele><time>2026-04-03T09:06:59.001Z</time></trkpt><trkpt lat="43.81187422762426" lon="11.24970512475521"><ele>85.0</ele><time>2026-04-03T09:07:01.001Z</time></trkpt><trkpt lat="43.811987710721894" lon="11.249624391761392"><ele>85.0</ele><time>2026-04-03T09:07:03.001Z</time></trkpt><trkpt lat="43.812041006699204" lon="11.249505086733109"><ele>85.0</ele><time>2026-04-03T09:07:05.001Z</time></trkpt><trkpt lat="43.81206986079399" lon="11.249357869765815"><ele>85.0</ele><time>2026-04-03T09:07:07.001Z</time></trkpt><trkpt lat="43.812101115580305" lon="11.24918653273888"><ele>85.0</ele><time>2026-04-03T09:07:09.001Z</time></trkpt><trkpt lat="43.81211542931146" lon="11.249074118643096"><ele>85.0</ele><time>2026-04-03T09:07:10.001Z</time></trkpt><trkpt lat="43.81213379545512" lon="11.248952004022678"><ele>84.66666666666666</ele><time>2026-04-03T09:07:11.001Z</time></trkpt><trkpt lat="43.81214927464264" lon="11.248836529902947"><ele>84.33333333333333</ele><time>2026-04-03T09:07:12.001Z</time></trkpt><trkpt lat="43.81216195098645" lon="11.248719733481824"><ele>84.0</ele><time>2026-04-03T09:07:13.001Z</time></trkpt><trkpt lat="43.81217879193052" lon="11.248600667322304"><ele>83.66666666666667</ele><time>2026-04-03T09:07:14.001Z</time></trkpt><trkpt lat="43.81219511665988" lon="11.248484261097843"><ele>83.33333333333334</ele><time>2026-04-03T09:07:15.001Z</time></trkpt><trkpt lat="43.81221320991228" lon="11.248370801773461"><ele>83.0</ele><time>2026-04-03T09:07:16.001Z</time></trkpt><trkpt lat="43.81223395618614" lon="11.248253402723899"><ele>83.0</ele><time>2026-04-03T09:07:17.001Z</time></trkpt><trkpt lat="43.81224938920541" lon="11.248137148386501"><ele>83.0</ele><time>2026-04-03T09:07:18.001Z</time></trkpt><trkpt lat="43.81226455418161" lon="11.248024726316803"><ele>83.0</ele><time>2026-04-03T09:07:19.001Z</time></trkpt><trkpt lat="43.81227659848609" lon="11.247915887701135"><ele>83.0</ele><time>2026-04-03T09:07:20.001Z</time></trkpt><trkpt lat="43.81229017610038" lon="11.247810026080556"><ele>83.0</ele><time>2026-04-03T09:07:21.001Z</time></trkpt><trkpt lat="43.81230429815312" lon="11.247709534780734"><ele>83.0</ele><time>2026-04-03T09:07:22.001Z</time></trkpt><trkpt lat="43.81231724902538" lon="11.247605970810245"><ele>82.2</ele><time>2026-04-03T09:07:23.001Z</time></trkpt><trkpt lat="43.81230810960824" lon="11.24746338294184"><ele>81.4</ele><time>2026-04-03T09:07:25.001Z</time></trkpt><trkpt lat="43.8123202829184" lon="11.24735869561238"><ele>80.60000000000001</ele><time>2026-04-03T09:07:27.001Z</time></trkpt><trkpt lat="43.81242010711351" lon="11.247323497224395"><ele>79.80000000000001</ele><time>2026-04-03T09:07:29.001Z</time></trkpt><trkpt lat="43.812534041678546" lon="11.247318930000722"><ele>79.0</ele><time>2026-04-03T09:07:31.001Z</time></trkpt><trkpt lat="43.81265478169406" lon="11.247327820561669"><ele>79.16666666666666</ele><time>2026-04-03T09:07:33.001Z</time></trkpt><trkpt lat="43.81271688784773" lon="11.24734772187648"><ele>79.33333333333333</ele><time>2026-04-03T09:07:34.001Z</time></trkpt><trkpt lat="43.8127818940366" lon="11.247372801279392"><ele>79.5</ele><time>2026-04-03T09:07:35.001Z</time></trkpt><trkpt lat="43.81285441425928" lon="11.24739934172795"><ele>79.66666666666667</ele><time>2026-04-03T09:07:36.001Z</time></trkpt><trkpt lat="43.81294231605027" lon="11.24743194516286"><ele>79.83333333333334</ele><time>2026-04-03T09:07:37.001Z</time></trkpt><trkpt lat="43.81302135621511" lon="11.247494418865212"><ele>80.0</ele><time>2026-04-03T09:07:38.001Z</time></trkpt><trkpt lat="43.81310620282634" lon="11.247535651649189"><ele>80.0</ele><time>2026-04-03T09:07:39.001Z</time></trkpt><trkpt lat="43.813199777453946" lon="11.247581125650415"><ele>80.0</ele><time>2026-04-03T09:07:40.001Z</time></trkpt><trkpt lat="43.81329152869629" lon="11.24759414318113"><ele>80.0</ele><time>2026-04-03T09:07:41.001Z</time></trkpt><trkpt lat="43.81337541999698" lon="11.247649586834173"><ele>80.0</ele><time>2026-04-03T09:07:42.001Z</time></trkpt><trkpt lat="43.81345667032854" lon="11.24770336362873"><ele>80.0</ele><time>2026-04-03T09:07:43.001Z</time></trkpt><trkpt lat="43.8135344126398" lon="11.24776794040493"><ele>80.4</ele><time>2026-04-03T09:07:44.001Z</time></trkpt><trkpt lat="43.81361258205709" lon="11.247850709687258"><ele>80.8</ele><time>2026-04-03T09:07:45.001Z</time></trkpt><trkpt lat="43.8136855376063" lon="11.247935565978336"><ele>81.19999999999999</ele><time>2026-04-03T09:07:46.001Z</time></trkpt><trkpt lat="43.81376322166532" lon="11.24801693135492"><ele>81.6</ele><time>2026-04-03T09:07:47.001Z</time></trkpt><trkpt lat="43.81384243522406" lon="11.24809927097647"><ele>82.0</ele><time>2026-04-03T09:07:48.001Z</time></trkpt><trkpt lat="43.81391984642633" lon="11.248178419818288"><ele>82.0</ele><time>2026-04-03T09:07:49.001Z</time></trkpt><trkpt lat="43.8140016412275" lon="11.24825930806778"><ele>82.0</ele><time>2026-04-03T09:07:50.001Z</time></trkpt><trkpt lat="43.8140921479313" lon="11.248339582552646"><ele>82.0</ele><time>2026-04-03T09:07:51.001Z</time></trkpt><trkpt lat="43.814183295532025" lon="11.24842284236557"><ele>82.0</ele><time>2026-04-03T09:07:52.001Z</time></trkpt><trkpt lat="43.814274882427554" lon="11.248506771279096"><ele>82.0</ele><time>2026-04-03T09:07:53.001Z</time></trkpt><trkpt lat="43.81437177122023" lon="11.248583750503904"><ele>82.19999999999999</ele><time>2026-04-03T09:07:54.001Z</time></trkpt><trkpt lat="43.814468398353114" lon="11.248634396755357"><ele>82.4</ele><time>2026-04-03T09:07:55.001Z</time></trkpt><trkpt lat="43.8145551458855" lon="11.248685439864243"><ele>82.6</ele><time>2026-04-03T09:07:56.001Z</time></trkpt><trkpt lat="43.81464203705786" lon="11.24873146241087"><ele>82.80000000000001</ele><time>2026-04-03T09:07:57.001Z</time></trkpt><trkpt lat="43.81473522096957" lon="11.248761701759072"><ele>83.0</ele><time>2026-04-03T09:07:58.001Z</time></trkpt><trkpt lat="43.81482641069996" lon="11.248790517833683"><ele>83.0</ele><time>2026-04-03T09:07:59.001Z</time></trkpt><trkpt lat="43.81492051776607" lon="11.248825461739424"><ele>83.0</ele><time>2026-04-03T09:08:00.001Z</time></trkpt><trkpt lat="43.81501233358219" lon="11.24886534015338"><ele>83.0</ele><time>2026-04-03T09:08:01.001Z</time></trkpt><trkpt lat="43.815096302322864" lon="11.248902488397142"><ele>83.0</ele><time>2026-04-03T09:08:02.001Z</time></trkpt><trkpt lat="43.815172043777146" lon="11.248917684800222"><ele>83.0</ele><time>2026-04-03T09:08:03.001Z</time></trkpt><trkpt lat="43.81524727672292" lon="11.248921544665848"><ele>83.0</ele><time>2026-04-03T09:08:04.001Z</time></trkpt><trkpt lat="43.81531176323046" lon="11.248931649664309"><ele>83.33333333333334</ele><time>2026-04-03T09:08:05.001Z</time></trkpt><trkpt lat="43.81537885073531" lon="11.2489468710962"><ele>83.66666666666667</ele><time>2026-04-03T09:08:06.001Z</time></trkpt><trkpt lat="43.815457167415644" lon="11.248962803828867"><ele>84.0</ele><time>2026-04-03T09:08:07.001Z</time></trkpt><trkpt lat="43.81554592454021" lon="11.248963029918889"><ele>84.33333333333333</ele><time>2026-04-03T09:08:08.001Z</time></trkpt><trkpt lat="43.81560819300024" lon="11.24893487381671"><ele>84.66666666666666</ele><time>2026-04-03T09:08:09.001Z</time></trkpt><trkpt lat="43.815678422442474" lon="11.248890667276239"><ele>85.0</ele><time>2026-04-03T09:08:11.001Z</time></trkpt><trkpt lat="43.81575544784931" lon="11.248853999746828"><ele>85.75</ele><time>2026-04-03T09:08:13.001Z</time></trkpt><trkpt lat="43.81582750651467" lon="11.24881127352692"><ele>86.5</ele><time>2026-04-03T09:08:19.001Z</time></trkpt><trkpt lat="43.81597127901607" lon="11.248739039060686"><ele>87.25</ele><time>2026-04-03T09:08:21.001Z</time></trkpt><trkpt lat="43.81608742087432" lon="11.248675201210393"><ele>88.0</ele><time>2026-04-03T09:08:22.001Z</time></trkpt><trkpt lat="43.81620276475902" lon="11.248595352251447"><ele>88.4</ele><time>2026-04-03T09:08:23.001Z</time></trkpt><trkpt lat="43.816313166183576" lon="11.248538641558294"><ele>88.80000000000001</ele><time>2026-04-03T09:08:24.001Z</time></trkpt><trkpt lat="43.816401301642266" lon="11.248485395613708"><ele>89.2</ele><time>2026-04-03T09:08:25.001Z</time></trkpt><trkpt lat="43.8164798715572" lon="11.248467479315932"><ele>89.6</ele><time>2026-04-03T09:08:26.001Z</time></trkpt><trkpt lat="43.81657470855686" lon="11.248522644146947"><ele>90.0</ele><time>2026-04-03T09:08:28.001Z</time></trkpt><trkpt lat="43.81668124899442" lon="11.248580649005111"><ele>90.0</ele><time>2026-04-03T09:08:29.001Z</time></trkpt><trkpt lat="43.816786287226826" lon="11.248662944393683"><ele>90.0</ele><time>2026-04-03T09:08:30.001Z</time></trkpt><trkpt lat="43.81688687711486" lon="11.248756479571856"><ele>90.0</ele><time>2026-04-03T09:08:31.001Z</time></trkpt><trkpt lat="43.81699160251055" lon="11.248811636526803"><ele>90.0</ele><time>2026-04-03T09:08:32.001Z</time></trkpt><trkpt lat="43.8170657848335" lon="11.248877011566448"><ele>90.0</ele><time>2026-04-03T09:08:33.001Z</time></trkpt><trkpt lat="43.817126525287" lon="11.24892536879428"><ele>91.8</ele><time>2026-04-03T09:08:34.001Z</time></trkpt><trkpt lat="43.817158318551556" lon="11.249025961122372"><ele>93.6</ele><time>2026-04-03T09:08:35.001Z</time></trkpt><trkpt lat="43.81722014498422" lon="11.249124021476186"><ele>95.4</ele><time>2026-04-03T09:08:36.001Z</time></trkpt><trkpt lat="43.81727504846101" lon="11.249232477091951"><ele>97.2</ele><time>2026-04-03T09:08:37.001Z</time></trkpt><trkpt lat="43.81732632048407" lon="11.249343280679104"><ele>99.0</ele><time>2026-04-03T09:08:38.001Z</time></trkpt><trkpt lat="43.81745353933013" lon="11.24938537841508"><ele>99.0</ele><time>2026-04-03T09:08:39.001Z</time></trkpt><trkpt lat="43.817576188378716" lon="11.249471729456156"><ele>99.0</ele><time>2026-04-03T09:08:40.001Z</time></trkpt><trkpt lat="43.81769910266591" lon="11.24954904926966"><ele>99.0</ele><time>2026-04-03T09:08:41.001Z</time></trkpt><trkpt lat="43.81782394574415" lon="11.249604596889194"><ele>99.0</ele><time>2026-04-03T09:08:42.001Z</time></trkpt><trkpt lat="43.81793952256955" lon="11.249676932391674"><ele>99.75</ele><time>2026-04-03T09:08:43.001Z</time></trkpt><trkpt lat="43.81804497914401" lon="11.249734512652942"><ele>100.5</ele><time>2026-04-03T09:08:44.001Z</time></trkpt><trkpt lat="43.81813766212381" lon="11.249802743468729"><ele>101.25</ele><time>2026-04-03T09:08:45.001Z</time></trkpt><trkpt lat="43.81822621829294" lon="11.24989794114731"><ele>102.0</ele><time>2026-04-03T09:08:46.001Z</time></trkpt><trkpt lat="43.81832003331678" lon="11.250004057003624"><ele>102.0</ele><time>2026-04-03T09:08:47.001Z</time></trkpt><trkpt lat="43.81841521003426" lon="11.250105111706365"><ele>102.0</ele><time>2026-04-03T09:08:48.001Z</time></trkpt><trkpt lat="43.81851011947731" lon="11.250198457912054"><ele>102.0</ele><time>2026-04-03T09:08:49.001Z</time></trkpt><trkpt lat="43.81858859798531" lon="11.250284309002454"><ele>102.0</ele><time>2026-04-03T09:08:50.001Z</time></trkpt><trkpt lat="43.81864345363272" lon="11.250394953929824"><ele>102.0</ele><time>2026-04-03T09:08:51.001Z</time></trkpt><trkpt lat="43.818705449081214" lon="11.250510677437145"><ele>103.39999999999999</ele><time>2026-04-03T09:08:52.001Z</time></trkpt><trkpt lat="43.81878289090562" lon="11.250622674505934"><ele>104.8</ele><time>2026-04-03T09:08:53.001Z</time></trkpt><trkpt lat="43.81884390704645" lon="11.250737873723102"><ele>106.2</ele><time>2026-04-03T09:08:54.001Z</time></trkpt><trkpt lat="43.81889286111516" lon="11.250828830376225"><ele>107.6</ele><time>2026-04-03T09:08:55.001Z</time></trkpt><trkpt lat="43.81894111551998" lon="11.250908905240928"><ele>109.0</ele><time>2026-04-03T09:08:56.001Z</time></trkpt><trkpt lat="43.8190005422104" lon="11.250980272438456"><ele>109.00000000000001</ele><time>2026-04-03T09:08:57.001Z</time></trkpt><trkpt lat="43.81907940802811" lon="11.251035649138723"><ele>109.0</ele><time>2026-04-03T09:08:58.001Z</time></trkpt><trkpt lat="43.81916534182217" lon="11.251079565261145"><ele>109.0</ele><time>2026-04-03T09:08:59.001Z</time></trkpt><trkpt lat="43.819254566791265" lon="11.251103268474784"><ele>109.0</ele><time>2026-04-03T09:09:00.001Z</time></trkpt><trkpt lat="43.819322238993465" lon="11.251123075341717"><ele>109.00000000000001</ele><time>2026-04-03T09:09:01.001Z</time></trkpt><trkpt lat="43.81938256622093" lon="11.251168325814579"><ele>109.0</ele><time>2026-04-03T09:09:02.001Z</time></trkpt><trkpt lat="43.81942529145189" lon="11.251241460552155"><ele>113.4</ele><time>2026-04-03T09:09:03.001Z</time></trkpt><trkpt lat="43.819415947065465" lon="11.251334366776847"><ele>117.80000000000001</ele><time>2026-04-03T09:09:04.001Z</time></trkpt><trkpt lat="43.819420395562425" lon="11.251499306179795"><ele>122.19999999999999</ele><time>2026-04-03T09:09:06.001Z</time></trkpt><trkpt lat="43.81942424875402" lon="11.251682055982718"><ele>126.6</ele><time>2026-04-03T09:09:08.001Z</time></trkpt><trkpt lat="43.81942601270346" lon="11.251771761557192"><ele>131.0</ele><time>2026-04-03T09:09:09.001Z</time></trkpt><trkpt lat="43.81946085970524" lon="11.251929551189475"><ele>131.0</ele><time>2026-04-03T09:09:11.001Z</time></trkpt><trkpt lat="43.819488121682426" lon="11.252056037737757"><ele>131.0</ele><time>2026-04-03T09:09:13.001Z</time></trkpt><trkpt lat="43.81952059415775" lon="11.252161560162929"><ele>131.0</ele><time>2026-04-03T09:09:15.001Z</time></trkpt><trkpt lat="43.81954809429456" lon="11.25226206074677"><ele>131.0</ele><time>2026-04-03T09:09:21.001Z</time></trkpt><trkpt lat="43.819587574168274" lon="11.252373824721673"><ele>131.0</ele><time>2026-04-03T09:09:23.001Z</time></trkpt><trkpt lat="43.81961769754886" lon="11.252460597491647"><ele>131.0</ele><time>2026-04-03T09:09:24.001Z</time></trkpt><trkpt lat="43.81965947438551" lon="11.252545191634958"><ele>130.5</ele><time>2026-04-03T09:09:25.001Z</time></trkpt><trkpt lat="43.819699179680306" lon="11.252643614879245"><ele>130.0</ele><time>2026-04-03T09:09:26.001Z</time></trkpt><trkpt lat="43.819745442789554" lon="11.252753926905044"><ele>129.5</ele><time>2026-04-03T09:09:27.001Z</time></trkpt><trkpt lat="43.81979679455483" lon="11.252868285102291"><ele>129.0</ele><time>2026-04-03T09:09:28.001Z</time></trkpt><trkpt lat="43.819845214711464" lon="11.252972232574402"><ele>128.5</ele><time>2026-04-03T09:09:29.001Z</time></trkpt><trkpt lat="43.81989761828" lon="11.253071740881222"><ele>128.0</ele><time>2026-04-03T09:09:30.001Z</time></trkpt><trkpt lat="43.81996731465966" lon="11.253169599954882"><ele>126.99999999999999</ele><time>2026-04-03T09:09:31.001Z</time></trkpt><trkpt lat="43.820043058350876" lon="11.253240052701672"><ele>126.0</ele><time>2026-04-03T09:09:32.001Z</time></trkpt><trkpt lat="43.82012331980735" lon="11.253311614025234"><ele>125.0</ele><time>2026-04-03T09:09:33.001Z</time></trkpt><trkpt lat="43.82019469757056" lon="11.253376831991831"><ele>124.0</ele><time>2026-04-03T09:09:34.001Z</time></trkpt><trkpt lat="43.82026452114928" lon="11.253435605734948"><ele>122.99999999999999</ele><time>2026-04-03T09:09:35.001Z</time></trkpt><trkpt lat="43.82033214033805" lon="11.253495940470106"><ele>122.0</ele><time>2026-04-03T09:09:36.001Z</time></trkpt><trkpt lat="43.82038079691693" lon="11.253582884056605"><ele>125.25</ele><time>2026-04-03T09:09:37.001Z</time></trkpt><trkpt lat="43.82043644213808" lon="11.253662626474492"><ele>128.5</ele><time>2026-04-03T09:09:38.001Z</time></trkpt><trkpt lat="43.82059056056156" lon="11.253559650178861"><ele>131.75</ele><time>2026-04-03T09:09:39.001Z</time></trkpt><trkpt lat="43.820714574471545" lon="11.253546936448306"><ele>135.0</ele><time>2026-04-03T09:09:40.001Z</time></trkpt><trkpt lat="43.82083097522211" lon="11.253562213298396"><ele>135.0</ele><time>2026-04-03T09:09:41.001Z</time></trkpt><trkpt lat="43.82092077233422" lon="11.253616802839625"><ele>135.0</ele><time>2026-04-03T09:09:42.001Z</time></trkpt><trkpt lat="43.8209894845501" lon="11.253668130503442"><ele>135.0</ele><time>2026-04-03T09:09:43.001Z</time></trkpt><trkpt lat="43.82105362026254" lon="11.253695707472218"><ele>135.0</ele><time>2026-04-03T09:09:44.001Z</time></trkpt><trkpt lat="43.821145215640314" lon="11.253696517512092"><ele>135.0</ele><time>2026-04-03T09:09:46.001Z</time></trkpt><trkpt lat="43.82116225983111" lon="11.253554433206604"><ele>135.0</ele><time>2026-04-03T09:09:48.001Z</time></trkpt><trkpt lat="43.82112438519774" lon="11.253453644749028"><ele>137.6</ele><time>2026-04-03T09:09:49.001Z</time></trkpt><trkpt lat="43.8210838317018" lon="11.253351455095272"><ele>140.2</ele><time>2026-04-03T09:09:50.001Z</time></trkpt><trkpt lat="43.82104908705902" lon="11.253237803143548"><ele>142.8</ele><time>2026-04-03T09:09:51.001Z</time></trkpt><trkpt lat="43.82100249755348" lon="11.253097927858944"><ele>145.4</ele><time>2026-04-03T09:09:52.001Z</time></trkpt><trkpt lat="43.820949033774724" lon="11.252967562483946"><ele>148.0</ele><time>2026-04-03T09:09:53.001Z</time></trkpt><trkpt lat="43.82089508400757" lon="11.252841085823123"><ele>148.0</ele><time>2026-04-03T09:09:54.001Z</time></trkpt><trkpt lat="43.82083928065221" lon="11.252710690899445"><ele>148.0</ele><time>2026-04-03T09:09:55.001Z</time></trkpt><trkpt lat="43.82078202361918" lon="11.25256886682297"><ele>148.0</ele><time>2026-04-03T09:09:56.001Z</time></trkpt><trkpt lat="43.820728423136224" lon="11.25243204426982"><ele>148.0</ele><time>2026-04-03T09:09:57.001Z</time></trkpt><trkpt lat="43.82068026906504" lon="11.252307678124007"><ele>148.0</ele><time>2026-04-03T09:09:58.001Z</time></trkpt><trkpt lat="43.82063352905262" lon="11.252198300782254"><ele>148.66666666666669</ele><time>2026-04-03T09:09:59.001Z</time></trkpt><trkpt lat="43.820599631551524" lon="11.25210609188732"><ele>149.33333333333334</ele><time>2026-04-03T09:10:00.001Z</time></trkpt><trkpt lat="43.820594107875664" lon="11.251981698735209"><ele>150.0</ele><time>2026-04-03T09:10:02.001Z</time></trkpt><trkpt lat="43.82068373298387" lon="11.251968266412108"><ele>150.66666666666666</ele><time>2026-04-03T09:10:04.001Z</time></trkpt><trkpt lat="43.820755820223546" lon="11.252055257360754"><ele>151.33333333333331</ele><time>2026-04-03T09:10:06.001Z</time></trkpt><trkpt lat="43.82081955786395" lon="11.252115080188974"><ele>152.0</ele><time>2026-04-03T09:10:07.001Z</time></trkpt><trkpt lat="43.82089090686645" lon="11.252161533296917"><ele>152.0</ele><time>2026-04-03T09:10:08.001Z</time></trkpt><trkpt lat="43.820972231893855" lon="11.252223367565648"><ele>152.0</ele><time>2026-04-03T09:10:09.001Z</time></trkpt><trkpt lat="43.82105337983456" lon="11.252289556392828"><ele>152.0</ele><time>2026-04-03T09:10:10.001Z</time></trkpt><trkpt lat="43.82113050595815" lon="11.252370151751816"><ele>152.0</ele><time>2026-04-03T09:10:11.001Z</time></trkpt><trkpt lat="43.82121655784703" lon="11.25242553923719"><ele>152.0</ele><time>2026-04-03T09:10:12.001Z</time></trkpt><trkpt lat="43.8213102776608" lon="11.252474489214139"><ele>155.0</ele><time>2026-04-03T09:10:13.001Z</time></trkpt><trkpt lat="43.821408351394375" lon="11.252530826876113"><ele>158.0</ele><time>2026-04-03T09:10:14.001Z</time></trkpt><trkpt lat="43.82150496277739" lon="11.25259259236364"><ele>161.0</ele><time>2026-04-03T09:10:15.001Z</time></trkpt><trkpt lat="43.82159621561703" lon="11.252638426037414"><ele>164.0</ele><time>2026-04-03T09:10:16.001Z</time></trkpt><trkpt lat="43.82167854789015" lon="11.252671950282025"><ele>167.0</ele><time>2026-04-03T09:10:17.001Z</time></trkpt><trkpt lat="43.821740958384844" lon="11.25269662641976"><ele>167.0</ele><time>2026-04-03T09:10:18.001Z</time></trkpt><trkpt lat="43.82183093739181" lon="11.252712195083863"><ele>167.0</ele><time>2026-04-03T09:10:20.001Z</time></trkpt><trkpt lat="43.821861450277666" lon="11.25258355293902"><ele>167.0</ele><time>2026-04-03T09:10:22.001Z</time></trkpt><trkpt lat="43.821808636297" lon="11.252493779116698"><ele>167.0</ele><time>2026-04-03T09:10:23.001Z</time></trkpt><trkpt lat="43.821777988367266" lon="11.252401863301204"><ele>167.0</ele><time>2026-04-03T09:10:24.001Z</time></trkpt><trkpt lat="43.821735851411326" lon="11.252308115240174"><ele>167.0</ele><time>2026-04-03T09:10:25.001Z</time></trkpt><trkpt lat="43.821687181473635" lon="11.252199832206973"><ele>168.2</ele><time>2026-04-03T09:10:26.001Z</time></trkpt><trkpt lat="43.82162644142667" lon="11.252096335676347"><ele>169.39999999999998</ele><time>2026-04-03T09:10:27.001Z</time></trkpt><trkpt lat="43.821607060010585" lon="11.251987743143623"><ele>170.60000000000002</ele><time>2026-04-03T09:10:28.001Z</time></trkpt><trkpt lat="43.821575401741946" lon="11.251879197551236"><ele>171.8</ele><time>2026-04-03T09:10:30.001Z</time></trkpt><trkpt lat="43.82164168119829" lon="11.25186230939354"><ele>173.0</ele><time>2026-04-03T09:10:33.001Z</time></trkpt><trkpt lat="43.82174033801056" lon="11.2519977527857"><ele>174.60000000000002</ele><time>2026-04-03T09:10:35.001Z</time></trkpt><trkpt lat="43.82181745114442" lon="11.252048046662944"><ele>176.20000000000002</ele><time>2026-04-03T09:10:36.001Z</time></trkpt><trkpt lat="43.82188389437603" lon="11.25210282268868"><ele>177.8</ele><time>2026-04-03T09:10:37.001Z</time></trkpt><trkpt lat="43.82195409030521" lon="11.252191439153506"><ele>179.4</ele><time>2026-04-03T09:10:38.001Z</time></trkpt><trkpt lat="43.822046454282535" lon="11.252273374189992"><ele>181.0</ele><time>2026-04-03T09:10:39.001Z</time></trkpt><trkpt lat="43.822133721396476" lon="11.252350302581132"><ele>181.0</ele><time>2026-04-03T09:10:40.001Z</time></trkpt><trkpt lat="43.82224317956206" lon="11.25241555987516"><ele>181.0</ele><time>2026-04-03T09:10:41.001Z</time></trkpt><trkpt lat="43.822339408466725" lon="11.252516149666409"><ele>181.0</ele><time>2026-04-03T09:10:42.001Z</time></trkpt><trkpt lat="43.82244096423384" lon="11.252599751206336"><ele>181.0</ele><time>2026-04-03T09:10:43.001Z</time></trkpt><trkpt lat="43.822541670311345" lon="11.252689692521903"><ele>184.0</ele><time>2026-04-03T09:10:44.001Z</time></trkpt><trkpt lat="43.822652264718315" lon="11.252769080045777"><ele>187.0</ele><time>2026-04-03T09:10:45.001Z</time></trkpt><trkpt lat="43.82275343428828" lon="11.252854131279555"><ele>190.0</ele><time>2026-04-03T09:10:46.001Z</time></trkpt><trkpt lat="43.82284168397169" lon="11.252926309359411"><ele>193.0</ele><time>2026-04-03T09:10:47.001Z</time></trkpt><trkpt lat="43.82291825491255" lon="11.252979898593194"><ele>196.0</ele><time>2026-04-03T09:10:48.001Z</time></trkpt><trkpt lat="43.82297815824908" lon="11.25301997137538"><ele>195.99999999999997</ele><time>2026-04-03T09:10:49.001Z</time></trkpt><trkpt lat="43.82305362428069" lon="11.2530163305511"><ele>196.0</ele><time>2026-04-03T09:10:51.001Z</time></trkpt><trkpt lat="43.82304543440572" lon="11.252897574339688"><ele>196.0</ele><time>2026-04-03T09:10:53.001Z</time></trkpt><trkpt lat="43.82300335289506" lon="11.252817247520133"><ele>196.0</ele><time>2026-04-03T09:10:54.001Z</time></trkpt><trkpt lat="43.822934630370746" lon="11.252712641434403"><ele>195.99999999999997</ele><time>2026-04-03T09:10:55.001Z</time></trkpt><trkpt lat="43.82288927720635" lon="11.25257757428643"><ele>196.0</ele><time>2026-04-03T09:10:56.001Z</time></trkpt><trkpt lat="43.82282733383208" lon="11.252471648659794"><ele>196.0</ele><time>2026-04-03T09:10:57.001Z</time></trkpt><trkpt lat="43.82276411543939" lon="11.252336692899775"><ele>196.0</ele><time>2026-04-03T09:10:58.001Z</time></trkpt><trkpt lat="43.82269642271081" lon="11.252190085483338"><ele>196.0</ele><time>2026-04-03T09:10:59.001Z</time></trkpt><trkpt lat="43.822637213629115" lon="11.252043709949502"><ele>196.0</ele><time>2026-04-03T09:11:00.001Z</time></trkpt><trkpt lat="43.82258376243375" lon="11.25192518072139"><ele>194.60000000000002</ele><time>2026-04-03T09:11:01.001Z</time></trkpt><trkpt lat="43.82253680333839" lon="11.251824844483195"><ele>193.2</ele><time>2026-04-03T09:11:02.001Z</time></trkpt><trkpt lat="43.822494078260114" lon="11.251729377274486"><ele>191.8</ele><time>2026-04-03T09:11:03.001Z</time></trkpt><trkpt lat="43.822461323078684" lon="11.251643489403984"><ele>190.39999999999998</ele><time>2026-04-03T09:11:04.001Z</time></trkpt><trkpt lat="43.82250930325953" lon="11.251503032802326"><ele>189.0</ele><time>2026-04-03T09:11:06.001Z</time></trkpt><trkpt lat="43.82266158694741" lon="11.251464682543187"><ele>192.2</ele><time>2026-04-03T09:11:08.001Z</time></trkpt><trkpt lat="43.822775746228686" lon="11.25146662244563"><ele>195.39999999999998</ele><time>2026-04-03T09:11:09.001Z</time></trkpt><trkpt lat="43.8228782510994" lon="11.251442522314692"><ele>198.6</ele><time>2026-04-03T09:11:10.001Z</time></trkpt><trkpt lat="43.82297209298205" lon="11.251439824059707"><ele>201.8</ele><time>2026-04-03T09:11:11.001Z</time></trkpt><trkpt lat="43.82307409354657" lon="11.251462143940126"><ele>205.0</ele><time>2026-04-03T09:11:12.001Z</time></trkpt><trkpt lat="43.823177988732716" lon="11.251441982521087"><ele>205.0</ele><time>2026-04-03T09:11:13.001Z</time></trkpt><trkpt lat="43.823279510394485" lon="11.251445032813107"><ele>205.0</ele><time>2026-04-03T09:11:14.001Z</time></trkpt><trkpt lat="43.82338117162209" lon="11.251448262862079"><ele>205.0</ele><time>2026-04-03T09:11:15.001Z</time></trkpt><trkpt lat="43.82348309088852" lon="11.251451583746872"><ele>205.0</ele><time>2026-04-03T09:11:16.001Z</time></trkpt><trkpt lat="43.82358106697365" lon="11.251447691013361"><ele>205.0</ele><time>2026-04-03T09:11:17.001Z</time></trkpt><trkpt lat="43.82367170881499" lon="11.251444847612799"><ele>207.4</ele><time>2026-04-03T09:11:18.001Z</time></trkpt><trkpt lat="43.8237576268552" lon="11.251447344445873"><ele>209.8</ele><time>2026-04-03T09:11:19.001Z</time></trkpt><trkpt lat="43.8238511976631" lon="11.251438767476591"><ele>212.2</ele><time>2026-04-03T09:11:20.001Z</time></trkpt><trkpt lat="43.8239404959648" lon="11.25143508304098"><ele>214.6</ele><time>2026-04-03T09:11:21.001Z</time></trkpt><trkpt lat="43.82404629758232" lon="11.251438455159954"><ele>217.0</ele><time>2026-04-03T09:11:22.001Z</time></trkpt><trkpt lat="43.82414023304885" lon="11.25144255957364"><ele>218.39999999999998</ele><time>2026-04-03T09:11:23.001Z</time></trkpt><trkpt lat="43.82424312508118" lon="11.251464812063324"><ele>219.79999999999998</ele><time>2026-04-03T09:11:24.001Z</time></trkpt><trkpt lat="43.82433914575689" lon="11.251466196540738"><ele>221.2</ele><time>2026-04-03T09:11:25.001Z</time></trkpt><trkpt lat="43.8244415525971" lon="11.251448483843669"><ele>222.6</ele><time>2026-04-03T09:11:26.001Z</time></trkpt><trkpt lat="43.82452636024456" lon="11.251455567241624"><ele>224.0</ele><time>2026-04-03T09:11:27.001Z</time></trkpt><trkpt lat="43.82460800311337" lon="11.251473106073451"><ele>227.0</ele><time>2026-04-03T09:11:28.001Z</time></trkpt><trkpt lat="43.824678742006725" lon="11.25149257446064"><ele>229.99999999999997</ele><time>2026-04-03T09:11:29.001Z</time></trkpt><trkpt lat="43.82476572712527" lon="11.251520524089656"><ele>232.99999999999997</ele><time>2026-04-03T09:11:30.001Z</time></trkpt><trkpt lat="43.82486161997297" lon="11.251555826295625"><ele>236.0</ele><time>2026-04-03T09:11:31.001Z</time></trkpt><trkpt lat="43.82495611245603" lon="11.251573085001542"><ele>239.0</ele><time>2026-04-03T09:11:32.001Z</time></trkpt><trkpt lat="43.82505227432399" lon="11.251589212443058"><ele>239.00000000000003</ele><time>2026-04-03T09:11:33.001Z</time></trkpt><trkpt lat="43.82513801382655" lon="11.251596321530357"><ele>239.0</ele><time>2026-04-03T09:11:34.001Z</time></trkpt><trkpt lat="43.82522260306044" lon="11.251580477206744"><ele>239.0</ele><time>2026-04-03T09:11:35.001Z</time></trkpt><trkpt lat="43.825302720921144" lon="11.251563951430688"><ele>239.0</ele><time>2026-04-03T09:11:36.001Z</time></trkpt><trkpt lat="43.825388899966136" lon="11.251545356145673"><ele>239.00000000000003</ele><time>2026-04-03T09:11:37.001Z</time></trkpt><trkpt lat="43.82548219796237" lon="11.251526182880385"><ele>239.0</ele><time>2026-04-03T09:11:38.001Z</time></trkpt><trkpt lat="43.82557729085141" lon="11.251514518103626"><ele>239.83333333333334</ele><time>2026-04-03T09:11:39.001Z</time></trkpt><trkpt lat="43.825656247732454" lon="11.251494027197777"><ele>240.66666666666669</ele><time>2026-04-03T09:11:40.001Z</time></trkpt><trkpt lat="43.82573734945733" lon="11.251488170886145"><ele>241.5</ele><time>2026-04-03T09:11:41.001Z</time></trkpt><trkpt lat="43.82581167291095" lon="11.251478140663167"><ele>242.33333333333331</ele><time>2026-04-03T09:11:42.001Z</time></trkpt><trkpt lat="43.82588330481942" lon="11.251474818438858"><ele>243.16666666666666</ele><time>2026-04-03T09:11:43.001Z</time></trkpt><trkpt lat="43.82596425704849" lon="11.251472775967477"><ele>244.0</ele><time>2026-04-03T09:11:44.001Z</time></trkpt><trkpt lat="43.82603351825273" lon="11.251497381193188"><ele>245.28571428571425</ele><time>2026-04-03T09:11:45.001Z</time></trkpt><trkpt lat="43.826104685669925" lon="11.251517783286317"><ele>246.57142857142856</ele><time>2026-04-03T09:11:46.001Z</time></trkpt><trkpt lat="43.82617285166691" lon="11.251533495451621"><ele>247.85714285714286</ele><time>2026-04-03T09:11:47.001Z</time></trkpt><trkpt lat="43.82624580082408" lon="11.251552077239912"><ele>249.14285714285714</ele><time>2026-04-03T09:11:48.001Z</time></trkpt><trkpt lat="43.82632013723803" lon="11.251568814515219"><ele>250.42857142857144</ele><time>2026-04-03T09:11:49.001Z</time></trkpt><trkpt lat="43.8263905506296" lon="11.251592787428157"><ele>251.71428571428575</ele><time>2026-04-03T09:11:50.001Z</time></trkpt><trkpt lat="43.826454664633694" lon="11.251637969292274"><ele>253.00000000000003</ele><time>2026-04-03T09:11:51.001Z</time></trkpt><trkpt lat="43.82652246124227" lon="11.251654271944497"><ele>252.99999999999997</ele><time>2026-04-03T09:11:52.001Z</time></trkpt><trkpt lat="43.82659231471379" lon="11.251690766568974"><ele>253.0</ele><time>2026-04-03T09:11:53.001Z</time></trkpt><trkpt lat="43.82665216465004" lon="11.251719527130765"><ele>253.0</ele><time>2026-04-03T09:11:54.001Z</time></trkpt><trkpt lat="43.82675886801204" lon="11.251782757417553"><ele>253.0</ele><time>2026-04-03T09:11:56.001Z</time></trkpt><trkpt lat="43.826818727368526" lon="11.251829817250286"><ele>252.99999999999997</ele><time>2026-04-03T09:11:57.001Z</time></trkpt><trkpt lat="43.82688398193145" lon="11.251879508624839"><ele>253.0</ele><time>2026-04-03T09:11:58.001Z</time></trkpt><trkpt lat="43.82695778268834" lon="11.25193564768495"><ele>252.99999999999997</ele><time>2026-04-03T09:11:59.001Z</time></trkpt><trkpt lat="43.82702039295734" lon="11.251994746133727"><ele>253.0</ele><time>2026-04-03T09:12:00.001Z</time></trkpt><trkpt lat="43.82713425776617" lon="11.252095391713821"><ele>253.0</ele><time>2026-04-03T09:12:02.001Z</time></trkpt><trkpt lat="43.82720121657114" lon="11.252121812006463"><ele>253.0</ele><time>2026-04-03T09:12:03.001Z</time></trkpt><trkpt lat="43.827271619286655" lon="11.252163183604756"><ele>252.99999999999997</ele><time>2026-04-03T09:12:04.001Z</time></trkpt><trkpt lat="43.827341858938226" lon="11.252185685787074"><ele>253.0</ele><time>2026-04-03T09:12:05.001Z</time></trkpt><trkpt lat="43.8274171209944" lon="11.252182328065507"><ele>253.00000000000003</ele><time>2026-04-03T09:12:06.001Z</time></trkpt><trkpt lat="43.8274855268659" lon="11.25221849086044"><ele>253.0</ele><time>2026-04-03T09:12:07.001Z</time></trkpt><trkpt lat="43.82756178975608" lon="11.252234060228691"><ele>253.00000000000003</ele><time>2026-04-03T09:12:08.001Z</time></trkpt><trkpt lat="43.827630472627554" lon="11.252248082113821"><ele>253.00000000000003</ele><time>2026-04-03T09:12:09.001Z</time></trkpt><trkpt lat="43.82771312076621" lon="11.252247718505426"><ele>253.0</ele><time>2026-04-03T09:12:10.001Z</time></trkpt><trkpt lat="43.82778284219439" lon="11.252263156121785"><ele>253.00000000000003</ele><time>2026-04-03T09:12:11.001Z</time></trkpt><trkpt lat="43.827856391563635" lon="11.252284395303692"><ele>253.00000000000003</ele><time>2026-04-03T09:12:12.001Z</time></trkpt><trkpt lat="43.827931681282294" lon="11.252300783302845"><ele>254.49999999999997</ele><time>2026-04-03T09:12:13.001Z</time></trkpt><trkpt lat="43.827997320174646" lon="11.25230804120714"><ele>256.0</ele><time>2026-04-03T09:12:14.001Z</time></trkpt><trkpt lat="43.828073898892605" lon="11.252336055710456"><ele>257.5</ele><time>2026-04-03T09:12:16.001Z</time></trkpt><trkpt lat="43.828158102138296" lon="11.25234522593096"><ele>259.0</ele><time>2026-04-03T09:12:19.001Z</time></trkpt><trkpt lat="43.82826871826532" lon="11.252365697228212"><ele>260.5</ele><time>2026-04-03T09:12:21.001Z</time></trkpt><trkpt lat="43.828367509727414" lon="11.252383694250048"><ele>262.0</ele><time>2026-04-03T09:12:23.001Z</time></trkpt><trkpt lat="43.82844628180394" lon="11.25240201271523"><ele>262.2</ele><time>2026-04-03T09:12:25.001Z</time></trkpt><trkpt lat="43.828549646882294" lon="11.252424236226982"><ele>262.4</ele><time>2026-04-03T09:12:27.001Z</time></trkpt><trkpt lat="43.82865849717094" lon="11.252449775064507"><ele>262.6</ele><time>2026-04-03T09:12:29.001Z</time></trkpt><trkpt lat="43.82874657694914" lon="11.252475528272205"><ele>262.8</ele><time>2026-04-03T09:12:31.001Z</time></trkpt><trkpt lat="43.82880750523706" lon="11.252523354662904"><ele>263.0</ele><time>2026-04-03T09:13:38.001Z</time></trkpt><trkpt lat="43.82889618501496" lon="11.252506443916072"><ele>263.0</ele><time>2026-04-03T09:13:47.001Z</time></trkpt><trkpt lat="43.828962626045" lon="11.252508699330825"><ele>263.0</ele><time>2026-04-03T09:13:48.001Z</time></trkpt><trkpt lat="43.82904212046915" lon="11.252533620380682"><ele>263.0</ele><time>2026-04-03T09:13:50.001Z</time></trkpt><trkpt lat="43.829214031604145" lon="11.252584562956754"><ele>263.0</ele><time>2026-04-03T09:13:52.001Z</time></trkpt><trkpt lat="43.8292902486033" lon="11.25259788173897"><ele>263.0</ele><time>2026-04-03T09:13:53.001Z</time></trkpt><trkpt lat="43.829377540687716" lon="11.252626981552329"><ele>263.0</ele><time>2026-04-03T09:13:54.001Z</time></trkpt><trkpt lat="43.82947081113236" lon="11.252655878916629"><ele>263.0</ele><time>2026-04-03T09:13:55.001Z</time></trkpt><trkpt lat="43.82956629943455" lon="11.252695458318943"><ele>263.0</ele><time>2026-04-03T09:13:56.001Z</time></trkpt><trkpt lat="43.8296417984414" lon="11.252734252784329"><ele>263.0</ele><time>2026-04-03T09:13:57.001Z</time></trkpt><trkpt lat="43.82972143335569" lon="11.252778227378371"><ele>263.0</ele><time>2026-04-03T09:13:58.001Z</time></trkpt><trkpt lat="43.829801318792505" lon="11.252832741751943"><ele>263.0</ele><time>2026-04-03T09:13:59.001Z</time></trkpt><trkpt lat="43.829886724689054" lon="11.252864521351004"><ele>263.0</ele><time>2026-04-03T09:14:00.001Z</time></trkpt><trkpt lat="43.82998262173192" lon="11.252890962278371"><ele>263.0</ele><time>2026-04-03T09:14:01.001Z</time></trkpt><trkpt lat="43.830086828518596" lon="11.252927677926372"><ele>263.0</ele><time>2026-04-03T09:14:02.001Z</time></trkpt><trkpt lat="43.83018764430653" lon="11.252964572112285"><ele>263.0</ele><time>2026-04-03T09:14:03.001Z</time></trkpt><trkpt lat="43.83028311300533" lon="11.252996244642784"><ele>262.83333333333337</ele><time>2026-04-03T09:14:04.001Z</time></trkpt><trkpt lat="43.830373429101016" lon="11.253027078353078"><ele>262.6666666666667</ele><time>2026-04-03T09:14:05.001Z</time></trkpt><trkpt lat="43.83045068280744" lon="11.253083599799753"><ele>262.5</ele><time>2026-04-03T09:14:06.001Z</time></trkpt><trkpt lat="43.83054050638547" lon="11.253100393237535"><ele>262.3333333333333</ele><time>2026-04-03T09:14:07.001Z</time></trkpt><trkpt lat="43.830618003097364" lon="11.253162565887553"><ele>262.16666666666663</ele><time>2026-04-03T09:14:08.001Z</time></trkpt><trkpt lat="43.83069577969333" lon="11.253218155294018"><ele>262.0</ele><time>2026-04-03T09:14:09.001Z</time></trkpt><trkpt lat="43.830778288156665" lon="11.25328437692878"><ele>264.16666666666663</ele><time>2026-04-03T09:14:10.001Z</time></trkpt><trkpt lat="43.83086590319668" lon="11.253356015282813"><ele>266.3333333333333</ele><time>2026-04-03T09:14:11.001Z</time></trkpt><trkpt lat="43.83094694945403" lon="11.253422282797839"><ele>268.5</ele><time>2026-04-03T09:14:12.001Z</time></trkpt><trkpt lat="43.831030578916334" lon="11.253493057180512"><ele>270.6666666666667</ele><time>2026-04-03T09:14:13.001Z</time></trkpt><trkpt lat="43.83109066563836" lon="11.253546540354632"><ele>272.83333333333337</ele><time>2026-04-03T09:14:14.001Z</time></trkpt><trkpt lat="43.83115120411475" lon="11.253588259529053"><ele>275.0</ele><time>2026-04-03T09:14:15.001Z</time></trkpt><trkpt lat="43.83122490166214" lon="11.253610758890982"><ele>275.0</ele><time>2026-04-03T09:14:16.001Z</time></trkpt><trkpt lat="43.8313307219749" lon="11.253640337960958"><ele>275.0</ele><time>2026-04-03T09:14:17.001Z</time></trkpt><trkpt lat="43.83142667117539" lon="11.253668628153026"><ele>275.0</ele><time>2026-04-03T09:14:18.001Z</time></trkpt><trkpt lat="43.83150320065805" lon="11.253678865232287"><ele>275.0</ele><time>2026-04-03T09:14:19.001Z</time></trkpt><trkpt lat="43.83158089480421" lon="11.25372481305066"><ele>275.0</ele><time>2026-04-03T09:14:20.001Z</time></trkpt><trkpt lat="43.831661761469555" lon="11.253740263835098"><ele>275.0</ele><time>2026-04-03T09:14:21.001Z</time></trkpt><trkpt lat="43.83173645452273" lon="11.253783602605218"><ele>275.0</ele><time>2026-04-03T09:14:22.001Z</time></trkpt><trkpt lat="43.83180326740201" lon="11.253832622245502"><ele>275.0</ele><time>2026-04-03T09:14:23.001Z</time></trkpt><trkpt lat="43.831899411237714" lon="11.253945611830785"><ele>275.0</ele><time>2026-04-03T09:14:25.001Z</time></trkpt><trkpt lat="43.831951319907844" lon="11.254012114669624"><ele>275.0</ele><time>2026-04-03T09:14:26.001Z</time></trkpt><trkpt lat="43.83200631871816" lon="11.254065417640108"><ele>275.0</ele><time>2026-04-03T09:14:27.001Z</time></trkpt><trkpt lat="43.832096318885405" lon="11.254127117224675"><ele>275.0</ele><time>2026-04-03T09:14:28.001Z</time></trkpt><trkpt lat="43.83222670861847" lon="11.254163611232006"><ele>277.4</ele><time>2026-04-03T09:14:29.001Z</time></trkpt><trkpt lat="43.832360922635395" lon="11.2542181580802"><ele>279.8</ele><time>2026-04-03T09:14:30.001Z</time></trkpt><trkpt lat="43.83247786031085" lon="11.254262438035305"><ele>282.2</ele><time>2026-04-03T09:14:31.001Z</time></trkpt><trkpt lat="43.832564973667964" lon="11.254295234168874"><ele>284.6</ele><time>2026-04-03T09:14:32.001Z</time></trkpt><trkpt lat="43.832629926047886" lon="11.254324075738381"><ele>287.0</ele><time>2026-04-03T09:14:33.001Z</time></trkpt><trkpt lat="43.83270491300082" lon="11.25435802642369"><ele>289.33333333333337</ele><time>2026-04-03T09:14:34.001Z</time></trkpt><trkpt lat="43.83279345363421" lon="11.254398113586484"><ele>291.6666666666667</ele><time>2026-04-03T09:14:35.001Z</time></trkpt><trkpt lat="43.83288623534184" lon="11.25443718025836"><ele>294.0</ele><time>2026-04-03T09:14:36.001Z</time></trkpt><trkpt lat="43.83295912315107" lon="11.254467148469605"><ele>296.3333333333333</ele><time>2026-04-03T09:14:37.001Z</time></trkpt><trkpt lat="43.83304641741731" lon="11.254480479956037"><ele>298.66666666666663</ele><time>2026-04-03T09:14:38.001Z</time></trkpt><trkpt lat="43.83313469035432" lon="11.254516893325372"><ele>301.0</ele><time>2026-04-03T09:14:39.001Z</time></trkpt><trkpt lat="43.83322503914455" lon="11.2545381500885"><ele>301.0</ele><time>2026-04-03T09:14:40.001Z</time></trkpt><trkpt lat="43.83329541206531" lon="11.254541373521498"><ele>301.0</ele><time>2026-04-03T09:14:41.001Z</time></trkpt><trkpt lat="43.83339193383719" lon="11.25457003910295"><ele>301.0</ele><time>2026-04-03T09:14:43.001Z</time></trkpt><trkpt lat="43.833520094915635" lon="11.254578742639866"><ele>301.0</ele><time>2026-04-03T09:14:45.001Z</time></trkpt><trkpt lat="43.83361557177276" lon="11.254549734752647"><ele>301.0</ele><time>2026-04-03T09:14:46.001Z</time></trkpt><trkpt lat="43.83368868098194" lon="11.254523496717344"><ele>301.14285714285717</ele><time>2026-04-03T09:14:47.001Z</time></trkpt><trkpt lat="43.83375466146212" lon="11.254502420338081"><ele>301.2857142857143</ele><time>2026-04-03T09:14:48.001Z</time></trkpt><trkpt lat="43.83381993883937" lon="11.254491719846456"><ele>301.42857142857144</ele><time>2026-04-03T09:14:49.001Z</time></trkpt><trkpt lat="43.8338811440536" lon="11.254462182219259"><ele>301.57142857142856</ele><time>2026-04-03T09:14:50.001Z</time></trkpt><trkpt lat="43.833950853042055" lon="11.254434869933073"><ele>301.7142857142857</ele><time>2026-04-03T09:14:51.001Z</time></trkpt><trkpt lat="43.83402269826557" lon="11.25440074639159"><ele>301.8571428571429</ele><time>2026-04-03T09:14:52.001Z</time></trkpt><trkpt lat="43.83408821824263" lon="11.254366391211821"><ele>302.0</ele><time>2026-04-03T09:14:53.001Z</time></trkpt><trkpt lat="43.834160381171806" lon="11.254344899746117"><ele>302.0</ele><time>2026-04-03T09:14:54.001Z</time></trkpt><trkpt lat="43.834232897412676" lon="11.25432330627477"><ele>302.0</ele><time>2026-04-03T09:14:55.001Z</time></trkpt><trkpt lat="43.834309513306145" lon="11.25431081291289"><ele>302.0</ele><time>2026-04-03T09:14:56.001Z</time></trkpt><trkpt lat="43.834377530638875" lon="11.254294683700898"><ele>302.0</ele><time>2026-04-03T09:14:57.001Z</time></trkpt><trkpt lat="43.83444349028923" lon="11.254286770667248"><ele>302.0</ele><time>2026-04-03T09:14:58.001Z</time></trkpt><trkpt lat="43.83455676014977" lon="11.25426023646072"><ele>302.0</ele><time>2026-04-03T09:15:00.001Z</time></trkpt><trkpt lat="43.83466903155885" lon="11.254180438135231"><ele>302.4</ele><time>2026-04-03T09:15:02.001Z</time></trkpt><trkpt lat="43.83475617728092" lon="11.25415934021321"><ele>302.79999999999995</ele><time>2026-04-03T09:15:03.001Z</time></trkpt><trkpt lat="43.83485320748921" lon="11.254169293332343"><ele>303.2</ele><time>2026-04-03T09:15:04.001Z</time></trkpt><trkpt lat="43.83495188376512" lon="11.254170684785729"><ele>303.59999999999997</ele><time>2026-04-03T09:15:05.001Z</time></trkpt><trkpt lat="43.835048197883566" lon="11.254170735687199"><ele>304.0</ele><time>2026-04-03T09:15:06.001Z</time></trkpt><trkpt lat="43.835140073635394" lon="11.254182122906673"><ele>306.59999999999997</ele><time>2026-04-03T09:15:07.001Z</time></trkpt><trkpt lat="43.83523153338036" lon="11.254242536171608"><ele>309.2</ele><time>2026-04-03T09:15:08.001Z</time></trkpt><trkpt lat="43.83531792242065" lon="11.25428771069484"><ele>311.79999999999995</ele><time>2026-04-03T09:15:09.001Z</time></trkpt><trkpt lat="43.83541138412379" lon="11.254344467790494"><ele>314.4</ele><time>2026-04-03T09:15:10.001Z</time></trkpt><trkpt lat="43.83549712058119" lon="11.254354229002589"><ele>317.0</ele><time>2026-04-03T09:15:11.001Z</time></trkpt><trkpt lat="43.83557720655543" lon="11.254392986428504"><ele>317.0</ele><time>2026-04-03T09:15:12.001Z</time></trkpt><trkpt lat="43.835663149521515" lon="11.254411265169727"><ele>317.0</ele><time>2026-04-03T09:15:13.001Z</time></trkpt><trkpt lat="43.83574511035405" lon="11.254406117730056"><ele>317.0</ele><time>2026-04-03T09:15:14.001Z</time></trkpt><trkpt lat="43.83582332780775" lon="11.254458670653882"><ele>317.0</ele><time>2026-04-03T09:15:15.001Z</time></trkpt><trkpt lat="43.83591263239231" lon="11.254490637627917"><ele>317.0</ele><time>2026-04-03T09:15:16.001Z</time></trkpt><trkpt lat="43.83603648882657" lon="11.25452283143926"><ele>318.4</ele><time>2026-04-03T09:15:17.001Z</time></trkpt><trkpt lat="43.83615093555306" lon="11.254563984953336"><ele>319.79999999999995</ele><time>2026-04-03T09:15:18.001Z</time></trkpt><trkpt lat="43.83626484384196" lon="11.254619215937028"><ele>321.2</ele><time>2026-04-03T09:15:19.001Z</time></trkpt><trkpt lat="43.83637069247165" lon="11.2546816219061"><ele>322.59999999999997</ele><time>2026-04-03T09:15:20.001Z</time></trkpt><trkpt lat="43.83646379007165" lon="11.254691778428564"><ele>324.0</ele><time>2026-04-03T09:15:21.001Z</time></trkpt><trkpt lat="43.83653058024679" lon="11.25470269347497"><ele>324.0</ele><time>2026-04-03T09:15:22.001Z</time></trkpt><trkpt lat="43.83659529786162" lon="11.254684225000872"><ele>324.0</ele><time>2026-04-03T09:15:23.001Z</time></trkpt><trkpt lat="43.836722845152714" lon="11.254648996374945"><ele>324.0</ele><time>2026-04-03T09:15:25.001Z</time></trkpt><trkpt lat="43.8368187912421" lon="11.254569355884334"><ele>324.0</ele><time>2026-04-03T09:15:27.001Z</time></trkpt><trkpt lat="43.83688061602931" lon="11.254515303103839"><ele>324.0</ele><time>2026-04-03T09:15:29.001Z</time></trkpt><trkpt lat="43.83696355795642" lon="11.254467491970363"><ele>324.6</ele><time>2026-04-03T09:15:31.001Z</time></trkpt><trkpt lat="43.83703072377246" lon="11.254432799857819"><ele>325.2</ele><time>2026-04-03T09:15:32.001Z</time></trkpt><trkpt lat="43.83711789793686" lon="11.254393237099615"><ele>325.8</ele><time>2026-04-03T09:15:33.001Z</time></trkpt><trkpt lat="43.83722206979929" lon="11.254422458345424"><ele>326.40000000000003</ele><time>2026-04-03T09:15:34.001Z</time></trkpt><trkpt lat="43.83731564507868" lon="11.254450741998648"><ele>327.0</ele><time>2026-04-03T09:15:35.001Z</time></trkpt><trkpt lat="43.83741569091034" lon="11.254504838469709"><ele>327.0</ele><time>2026-04-03T09:15:36.001Z</time></trkpt><trkpt lat="43.83753140530667" lon="11.254527750944213"><ele>327.0</ele><time>2026-04-03T09:15:37.001Z</time></trkpt><trkpt lat="43.83764488334847" lon="11.254566971920296"><ele>327.0</ele><time>2026-04-03T09:15:38.001Z</time></trkpt><trkpt lat="43.8377538130345" lon="11.254581311496153"><ele>327.0</ele><time>2026-04-03T09:15:39.001Z</time></trkpt><trkpt lat="43.83785343967178" lon="11.254614150055518"><ele>327.0</ele><time>2026-04-03T09:15:40.001Z</time></trkpt><trkpt lat="43.83793915466385" lon="11.25469044707317"><ele>325.40000000000003</ele><time>2026-04-03T09:15:41.001Z</time></trkpt><trkpt lat="43.838026817949455" lon="11.254767250239393"><ele>323.8</ele><time>2026-04-03T09:15:42.001Z</time></trkpt><trkpt lat="43.838116619470625" lon="11.254807090651644"><ele>322.2</ele><time>2026-04-03T09:15:43.001Z</time></trkpt><trkpt lat="43.838200744989244" lon="11.25485660988732"><ele>320.6</ele><time>2026-04-03T09:15:44.001Z</time></trkpt><trkpt lat="43.83829476099559" lon="11.254875469093625"><ele>319.0</ele><time>2026-04-03T09:15:45.001Z</time></trkpt><trkpt lat="43.838361735646856" lon="11.254909359359138"><ele>319.0</ele><time>2026-04-03T09:15:46.001Z</time></trkpt><trkpt lat="43.83843683237355" lon="11.255068366409022"><ele>319.0</ele><time>2026-04-03T09:15:48.001Z</time></trkpt><trkpt lat="43.838529327420034" lon="11.255198995371925"><ele>319.0</ele><time>2026-04-03T09:15:49.001Z</time></trkpt><trkpt lat="43.83859439095302" lon="11.255335651849663"><ele>319.0</ele><time>2026-04-03T09:15:50.001Z</time></trkpt><trkpt lat="43.83864392725476" lon="11.25543616760759"><ele>323.2</ele><time>2026-04-03T09:15:51.001Z</time></trkpt><trkpt lat="43.83869275081441" lon="11.255553240202808"><ele>327.4</ele><time>2026-04-03T09:15:52.001Z</time></trkpt><trkpt lat="43.83871886562991" lon="11.255676476597108"><ele>331.6</ele><time>2026-04-03T09:15:53.001Z</time></trkpt><trkpt lat="43.83874571996714" lon="11.255790664666451"><ele>335.8</ele><time>2026-04-03T09:15:54.001Z</time></trkpt><trkpt lat="43.83879685533016" lon="11.255914723163928"><ele>340.0</ele><time>2026-04-03T09:15:55.001Z</time></trkpt><trkpt lat="43.83885271804704" lon="11.255997878978919"><ele>340.0</ele><time>2026-04-03T09:15:56.001Z</time></trkpt><trkpt lat="43.83895536355377" lon="11.256114504952453"><ele>340.0</ele><time>2026-04-03T09:15:57.001Z</time></trkpt><trkpt lat="43.83904296647716" lon="11.256243473813486"><ele>340.0</ele><time>2026-04-03T09:15:58.001Z</time></trkpt><trkpt lat="43.83911842770104" lon="11.25633025616785"><ele>340.0</ele><time>2026-04-03T09:15:59.001Z</time></trkpt><trkpt lat="43.8391920648179" lon="11.256366845777046"><ele>340.0</ele><time>2026-04-03T09:16:00.001Z</time></trkpt><trkpt lat="43.83926469889606" lon="11.256385811413846"><ele>339.8</ele><time>2026-04-03T09:16:01.001Z</time></trkpt><trkpt lat="43.83934138968782" lon="11.256398911175575"><ele>339.6</ele><time>2026-04-03T09:16:02.001Z</time></trkpt><trkpt lat="43.839408672766325" lon="11.256442233549729"><ele>339.4</ele><time>2026-04-03T09:16:03.001Z</time></trkpt><trkpt lat="43.839498293254" lon="11.256447797785846"><ele>339.2</ele><time>2026-04-03T09:16:04.001Z</time></trkpt><trkpt lat="43.839606424051496" lon="11.256432398066302"><ele>339.0</ele><time>2026-04-03T09:16:05.001Z</time></trkpt><trkpt lat="43.839708174913206" lon="11.256470507521895"><ele>339.0</ele><time>2026-04-03T09:16:06.001Z</time></trkpt><trkpt lat="43.839787417455845" lon="11.256506472528745"><ele>339.0</ele><time>2026-04-03T09:16:07.001Z</time></trkpt><trkpt lat="43.839872758510694" lon="11.256557329703568"><ele>339.0</ele><time>2026-04-03T09:16:08.001Z</time></trkpt><trkpt lat="43.839945067407314" lon="11.256598078942057"><ele>339.0</ele><time>2026-04-03T09:16:09.001Z</time></trkpt><trkpt lat="43.84000946310723" lon="11.25663211486004"><ele>339.0</ele><time>2026-04-03T09:16:10.001Z</time></trkpt><trkpt lat="43.84008285724432" lon="11.256665153044324"><ele>339.0</ele><time>2026-04-03T09:16:11.001Z</time></trkpt><trkpt lat="43.84015978373975" lon="11.256691672217311"><ele>339.4285714285714</ele><time>2026-04-03T09:16:12.001Z</time></trkpt><trkpt lat="43.840226965723325" lon="11.256705940264336"><ele>339.8571428571429</ele><time>2026-04-03T09:16:13.001Z</time></trkpt><trkpt lat="43.84030710840945" lon="11.256692163547026"><ele>340.2857142857143</ele><time>2026-04-03T09:16:14.001Z</time></trkpt><trkpt lat="43.84037845544447" lon="11.25669936312246"><ele>340.71428571428567</ele><time>2026-04-03T09:16:15.001Z</time></trkpt><trkpt lat="43.840449890656785" lon="11.256687324123867"><ele>341.1428571428571</ele><time>2026-04-03T09:16:16.001Z</time></trkpt><trkpt lat="43.84052286927184" lon="11.256662152287012"><ele>341.57142857142856</ele><time>2026-04-03T09:16:17.001Z</time></trkpt><trkpt lat="43.84058148675384" lon="11.256614221239573"><ele>342.0</ele><time>2026-04-03T09:16:18.001Z</time></trkpt><trkpt lat="43.84065998760018" lon="11.256580017563275"><ele>342.0</ele><time>2026-04-03T09:16:20.001Z</time></trkpt><trkpt lat="43.84071838429588" lon="11.256636938953944"><ele>342.0</ele><time>2026-04-03T09:16:22.001Z</time></trkpt><trkpt lat="43.840779505839805" lon="11.256740385653442"><ele>342.0</ele><time>2026-04-03T09:16:24.001Z</time></trkpt><trkpt lat="43.84083178016525" lon="11.256801482708813"><ele>342.0</ele><time>2026-04-03T09:16:25.001Z</time></trkpt><trkpt lat="43.84089460360182" lon="11.256865109773072"><ele>342.0</ele><time>2026-04-03T09:16:26.001Z</time></trkpt><trkpt lat="43.840968816447095" lon="11.256943688121694"><ele>342.0</ele><time>2026-04-03T09:16:27.001Z</time></trkpt><trkpt lat="43.84103892569295" lon="11.257032067791897"><ele>342.6666666666667</ele><time>2026-04-03T09:16:28.001Z</time></trkpt><trkpt lat="43.84111060984074" lon="11.25716026608808"><ele>343.33333333333337</ele><time>2026-04-03T09:16:29.001Z</time></trkpt><trkpt lat="43.84118025550312" lon="11.25734439198263"><ele>344.0</ele><time>2026-04-03T09:16:30.001Z</time></trkpt><trkpt lat="43.84126986899252" lon="11.257578208488914"><ele>344.0</ele><time>2026-04-03T09:16:31.001Z</time></trkpt><trkpt lat="43.84134483112434" lon="11.25779246274335"><ele>344.0</ele><time>2026-04-03T09:16:32.001Z</time></trkpt><trkpt lat="43.84139437206036" lon="11.25798380239899"><ele>344.0</ele><time>2026-04-03T09:16:33.001Z</time></trkpt><trkpt lat="43.84143866721425" lon="11.258144346712694"><ele>344.0</ele><time>2026-04-03T09:16:34.001Z</time></trkpt><trkpt lat="43.841485154644694" lon="11.258249631752907"><ele>343.4</ele><time>2026-04-03T09:16:35.001Z</time></trkpt><trkpt lat="43.84153981257144" lon="11.258364554712731"><ele>342.79999999999995</ele><time>2026-04-03T09:16:36.001Z</time></trkpt><trkpt lat="43.841606819110886" lon="11.25848769639532"><ele>342.20000000000005</ele><time>2026-04-03T09:16:37.001Z</time></trkpt><trkpt lat="43.84167682054918" lon="11.258597332712295"><ele>341.6</ele><time>2026-04-03T09:16:38.001Z</time></trkpt><trkpt lat="43.84176035104396" lon="11.258692090193858"><ele>341.0</ele><time>2026-04-03T09:16:39.001Z</time></trkpt><trkpt lat="43.84186085181159" lon="11.258772510247889"><ele>343.8</ele><time>2026-04-03T09:16:40.001Z</time></trkpt><trkpt lat="43.84197053850688" lon="11.258842829035572"><ele>346.6</ele><time>2026-04-03T09:16:41.001Z</time></trkpt><trkpt lat="43.84205732047642" lon="11.258941622200892"><ele>349.4</ele><time>2026-04-03T09:16:42.001Z</time></trkpt><trkpt lat="43.84212371820409" lon="11.259021914149182"><ele>352.2</ele><time>2026-04-03T09:16:43.001Z</time></trkpt><trkpt lat="43.84214779137667" lon="11.259110216776314"><ele>355.0</ele><time>2026-04-03T09:16:44.001Z</time></trkpt><trkpt lat="43.842134691791685" lon="11.259257999653023"><ele>355.0</ele><time>2026-04-03T09:16:45.001Z</time></trkpt><trkpt lat="43.84216404361658" lon="11.2594401935749"><ele>355.0</ele><time>2026-04-03T09:16:46.001Z</time></trkpt><trkpt lat="43.84219082231919" lon="11.259628698556407"><ele>355.0</ele><time>2026-04-03T09:16:47.001Z</time></trkpt><trkpt lat="43.84219068017952" lon="11.25978365366521"><ele>355.0</ele><time>2026-04-03T09:16:48.001Z</time></trkpt><trkpt lat="43.84218945860653" lon="11.25994302459669"><ele>354.2</ele><time>2026-04-03T09:16:49.001Z</time></trkpt><trkpt lat="43.84221023182992" lon="11.260081350193827"><ele>353.4</ele><time>2026-04-03T09:16:50.001Z</time></trkpt><trkpt lat="43.84222689826329" lon="11.260189816199645"><ele>352.6</ele><time>2026-04-03T09:16:51.001Z</time></trkpt><trkpt lat="43.84228531477901" lon="11.260301631772318"><ele>351.8</ele><time>2026-04-03T09:16:53.001Z</time></trkpt><trkpt lat="43.84239664580947" lon="11.260398860653252"><ele>351.0</ele><time>2026-04-03T09:16:55.001Z</time></trkpt><trkpt lat="43.84245653684336" lon="11.260481961170226"><ele>351.0</ele><time>2026-04-03T09:16:56.001Z</time></trkpt><trkpt lat="43.84253206393207" lon="11.260539637133377"><ele>351.0</ele><time>2026-04-03T09:16:57.001Z</time></trkpt><trkpt lat="43.84260605367918" lon="11.260612233653893"><ele>351.0</ele><time>2026-04-03T09:16:58.001Z</time></trkpt><trkpt lat="43.84267833390181" lon="11.26067793375925"><ele>351.0</ele><time>2026-04-03T09:16:59.001Z</time></trkpt><trkpt lat="43.84275845098396" lon="11.260724778154167"><ele>351.0</ele><time>2026-04-03T09:17:00.001Z</time></trkpt><trkpt lat="43.84282442715019" lon="11.26077809076809"><ele>351.0</ele><time>2026-04-03T09:17:01.001Z</time></trkpt><trkpt lat="43.84294385329396" lon="11.26086492845277"><ele>349.6666666666667</ele><time>2026-04-03T09:17:03.001Z</time></trkpt><trkpt lat="43.84301968625517" lon="11.260903018854405"><ele>348.3333333333333</ele><time>2026-04-03T09:17:04.001Z</time></trkpt><trkpt lat="43.84309430292599" lon="11.260948892624947"><ele>347.0</ele><time>2026-04-03T09:17:05.001Z</time></trkpt><trkpt lat="43.84317494832138" lon="11.260988974024373"><ele>345.66666666666663</ele><time>2026-04-03T09:17:06.001Z</time></trkpt><trkpt lat="43.843254064260336" lon="11.261055301778848"><ele>344.3333333333333</ele><time>2026-04-03T09:17:07.001Z</time></trkpt><trkpt lat="43.84335308783206" lon="11.261090665461285"><ele>343.0</ele><time>2026-04-03T09:17:08.001Z</time></trkpt><trkpt lat="43.84345102196086" lon="11.261161060460548"><ele>344.25</ele><time>2026-04-03T09:17:09.001Z</time></trkpt><trkpt lat="43.84356557138764" lon="11.261226266786602"><ele>345.5</ele><time>2026-04-03T09:17:10.001Z</time></trkpt><trkpt lat="43.84367466927326" lon="11.261298858061586"><ele>346.75</ele><time>2026-04-03T09:17:11.001Z</time></trkpt><trkpt lat="43.84376960132317" lon="11.261367045143606"><ele>348.0</ele><time>2026-04-03T09:17:12.001Z</time></trkpt><trkpt lat="43.843862459682015" lon="11.261432521280229"><ele>348.5</ele><time>2026-04-03T09:17:13.001Z</time></trkpt><trkpt lat="43.843955756987945" lon="11.261496879719356"><ele>349.0</ele><time>2026-04-03T09:17:14.001Z</time></trkpt><trkpt lat="43.844039576989545" lon="11.2615523910056"><ele>349.5</ele><time>2026-04-03T09:17:15.001Z</time></trkpt><trkpt lat="43.844119577994235" lon="11.261600144371643"><ele>350.0</ele><time>2026-04-03T09:17:16.001Z</time></trkpt><trkpt lat="43.84418867050843" lon="11.2616450020434"><ele>350.5</ele><time>2026-04-03T09:17:17.001Z</time></trkpt><trkpt lat="43.84425937944411" lon="11.261691854882608"><ele>351.0</ele><time>2026-04-03T09:17:18.001Z</time></trkpt><trkpt lat="43.84433210733764" lon="11.261739581410133"><ele>351.0</ele><time>2026-04-03T09:17:19.001Z</time></trkpt><trkpt lat="43.84440584533743" lon="11.2617901860534"><ele>351.0</ele><time>2026-04-03T09:17:20.001Z</time></trkpt><trkpt lat="43.84447786938119" lon="11.26183626374112"><ele>351.0</ele><time>2026-04-03T09:17:21.001Z</time></trkpt><trkpt lat="43.84455091513841" lon="11.261887119850728"><ele>351.0</ele><time>2026-04-03T09:17:22.001Z</time></trkpt><trkpt lat="43.844622873221844" lon="11.261938493753915"><ele>351.0</ele><time>2026-04-03T09:17:23.001Z</time></trkpt><trkpt lat="43.84469808124116" lon="11.261987175717348"><ele>351.0</ele><time>2026-04-03T09:17:24.001Z</time></trkpt><trkpt lat="43.8447676932912" lon="11.262030763843661"><ele>351.00000000000006</ele><time>2026-04-03T09:17:25.001Z</time></trkpt><trkpt lat="43.8448341630844" lon="11.262069761613644"><ele>351.0</ele><time>2026-04-03T09:17:26.001Z</time></trkpt><trkpt lat="43.84490178807814" lon="11.262107366489436"><ele>351.0</ele><time>2026-04-03T09:17:27.001Z</time></trkpt><trkpt lat="43.844967028010736" lon="11.262142141516087"><ele>351.0</ele><time>2026-04-03T09:17:28.001Z</time></trkpt><trkpt lat="43.84502799167044" lon="11.262179239820382"><ele>351.0</ele><time>2026-04-03T09:17:29.001Z</time></trkpt><trkpt lat="43.84507604730632" lon="11.262243814333251"><ele>351.00000000000006</ele><time>2026-04-03T09:17:30.001Z</time></trkpt><trkpt lat="43.845136277836396" lon="11.26227745281299"><ele>351.0</ele><time>2026-04-03T09:17:31.001Z</time></trkpt><trkpt lat="43.84521282003873" lon="11.26236554271692"><ele>350.4</ele><time>2026-04-03T09:17:33.001Z</time></trkpt><trkpt lat="43.84532748539205" lon="11.262352176627013"><ele>349.8</ele><time>2026-04-03T09:17:35.001Z</time></trkpt><trkpt lat="43.8454334089829" lon="11.262361148928196"><ele>349.2</ele><time>2026-04-03T09:17:37.001Z</time></trkpt><trkpt lat="43.84551303831698" lon="11.262378443729851"><ele>348.59999999999997</ele><time>2026-04-03T09:17:39.001Z</time></trkpt><trkpt lat="43.845577794432394" lon="11.262373968453453"><ele>348.0</ele><time>2026-04-03T09:17:42.001Z</time></trkpt><trkpt lat="43.845599105852344" lon="11.26225774894498"><ele>349.3333333333333</ele><time>2026-04-03T09:18:28.001Z</time></trkpt><trkpt lat="43.845580877770885" lon="11.262160154992756"><ele>350.6666666666667</ele><time>2026-04-03T09:18:29.001Z</time></trkpt><trkpt lat="43.84560491379458" lon="11.262047439667803"><ele>352.0</ele><time>2026-04-03T09:18:30.001Z</time></trkpt><trkpt lat="43.84561719491412" lon="11.261936859689614"><ele>353.33333333333337</ele><time>2026-04-03T09:18:31.001Z</time></trkpt><trkpt lat="43.845615418906476" lon="11.261816980400207"><ele>354.6666666666667</ele><time>2026-04-03T09:18:32.001Z</time></trkpt><trkpt lat="43.84563174188798" lon="11.26171143702783"><ele>356.0</ele><time>2026-04-03T09:18:33.001Z</time></trkpt><trkpt lat="43.84564292672942" lon="11.261600076289524"><ele>355.99999999999994</ele><time>2026-04-03T09:18:34.001Z</time></trkpt><trkpt lat="43.84566126002518" lon="11.261490839413312"><ele>356.0</ele><time>2026-04-03T09:18:35.001Z</time></trkpt><trkpt lat="43.84567557417734" lon="11.26139071941792"><ele>356.0</ele><time>2026-04-03T09:18:36.001Z</time></trkpt><trkpt lat="43.84567945634408" lon="11.261284620998312"><ele>356.0</ele><time>2026-04-03T09:18:37.001Z</time></trkpt><trkpt lat="43.845681325742866" lon="11.261192713301309"><ele>356.0</ele><time>2026-04-03T09:18:38.001Z</time></trkpt><trkpt lat="43.84568888553843" lon="11.26109293028055"><ele>355.99999999999994</ele><time>2026-04-03T09:18:39.001Z</time></trkpt><trkpt lat="43.84571611288346" lon="11.260999179590653"><ele>356.0</ele><time>2026-04-03T09:18:40.001Z</time></trkpt><trkpt lat="43.84571102661798" lon="11.260907068035225"><ele>357.1666666666667</ele><time>2026-04-03T09:18:41.001Z</time></trkpt><trkpt lat="43.8457237342095" lon="11.260821444982135"><ele>358.33333333333337</ele><time>2026-04-03T09:18:42.001Z</time></trkpt><trkpt lat="43.845768661511094" lon="11.260674904775094"><ele>359.5</ele><time>2026-04-03T09:18:44.001Z</time></trkpt><trkpt lat="43.8457884670066" lon="11.260504014474414"><ele>360.6666666666667</ele><time>2026-04-03T09:18:46.001Z</time></trkpt><trkpt lat="43.84580668255368" lon="11.260409234190629"><ele>361.8333333333333</ele><time>2026-04-03T09:18:47.001Z</time></trkpt><trkpt lat="43.84582083135263" lon="11.260312655343357"><ele>363.0</ele><time>2026-04-03T09:18:48.001Z</time></trkpt><trkpt lat="43.845832898928954" lon="11.260212413548027"><ele>364.4</ele><time>2026-04-03T09:18:49.001Z</time></trkpt><trkpt lat="43.845847210607424" lon="11.260126561665084"><ele>365.79999999999995</ele><time>2026-04-03T09:18:50.001Z</time></trkpt><trkpt lat="43.845867263623546" lon="11.259969262780219"><ele>367.2</ele><time>2026-04-03T09:18:52.001Z</time></trkpt><trkpt lat="43.845876115196624" lon="11.25982092081624"><ele>368.6</ele><time>2026-04-03T09:18:54Z</time></trkpt><trkpt lat="43.845901032463395" lon="11.259716682681745"><ele>370.0</ele><time>2026-04-03T09:18:57Z</time></trkpt><trkpt lat="43.845999182854236" lon="11.259651430621263"><ele>371.8333333333333</ele><time>2026-04-03T09:18:59Z</time></trkpt><trkpt lat="43.84607759135343" lon="11.25962126266348"><ele>373.66666666666663</ele><time>2026-04-03T09:19:00Z</time></trkpt><trkpt lat="43.846146629688484" lon="11.259587650871573"><ele>375.5</ele><time>2026-04-03T09:19:01Z</time></trkpt><trkpt lat="43.846213338063436" lon="11.259539223009865"><ele>377.3333333333333</ele><time>2026-04-03T09:19:02Z</time></trkpt><trkpt lat="43.846286183016176" lon="11.259485530812999"><ele>379.1666666666667</ele><time>2026-04-03T09:19:03Z</time></trkpt><trkpt lat="43.84635508196799" lon="11.25942412735388"><ele>381.0</ele><time>2026-04-03T09:19:04Z</time></trkpt><trkpt lat="43.846415316621744" lon="11.259372127520795"><ele>381.0</ele><time>2026-04-03T09:19:05Z</time></trkpt><trkpt lat="43.846467046743506" lon="11.25931534355136"><ele>381.0</ele><time>2026-04-03T09:19:06Z</time></trkpt><trkpt lat="43.846546577462874" lon="11.259205359393192"><ele>381.0</ele><time>2026-04-03T09:19:08Z</time></trkpt><trkpt lat="43.84661484547241" lon="11.259132995090976"><ele>381.0</ele><time>2026-04-03T09:19:10Z</time></trkpt><trkpt lat="43.84669693413285" lon="11.259106958867571"><ele>381.0</ele><time>2026-04-03T09:19:11Z</time></trkpt><trkpt lat="43.84678350407061" lon="11.25905809026998"><ele>381.0</ele><time>2026-04-03T09:19:12Z</time></trkpt><trkpt lat="43.846876819403676" lon="11.259066910389238"><ele>382.6666666666667</ele><time>2026-04-03T09:19:13Z</time></trkpt><trkpt lat="43.84695756722441" lon="11.259067409229733"><ele>384.33333333333337</ele><time>2026-04-03T09:19:14Z</time></trkpt><trkpt lat="43.84703089638072" lon="11.259062143978845"><ele>386.0</ele><time>2026-04-03T09:19:15Z</time></trkpt><trkpt lat="43.84711457331843" lon="11.259058987028709"><ele>387.6666666666667</ele><time>2026-04-03T09:19:16Z</time></trkpt><trkpt lat="43.847191209943894" lon="11.259110843896034"><ele>389.33333333333337</ele><time>2026-04-03T09:19:17Z</time></trkpt><trkpt lat="43.84726811008673" lon="11.259141624248304"><ele>391.0</ele><time>2026-04-03T09:19:18Z</time></trkpt><trkpt lat="43.84734601494031" lon="11.259152267216582"><ele>391.0</ele><time>2026-04-03T09:19:19Z</time></trkpt><trkpt lat="43.847418038234174" lon="11.259223832432207"><ele>391.0</ele><time>2026-04-03T09:19:20Z</time></trkpt><trkpt lat="43.847497746777826" lon="11.259287808047471"><ele>391.0</ele><time>2026-04-03T09:19:21Z</time></trkpt><trkpt lat="43.8475889840545" lon="11.259339474260091"><ele>391.0</ele><time>2026-04-03T09:19:22Z</time></trkpt><trkpt lat="43.847657817458504" lon="11.259442217301743"><ele>391.0</ele><time>2026-04-03T09:19:23Z</time></trkpt><trkpt lat="43.847725059520066" lon="11.259534932100456"><ele>392.1666666666667</ele><time>2026-04-03T09:19:24Z</time></trkpt><trkpt lat="43.8477848015138" lon="11.25962566078421"><ele>393.33333333333337</ele><time>2026-04-03T09:19:25Z</time></trkpt><trkpt lat="43.84784595951729" lon="11.259720935474549"><ele>394.5</ele><time>2026-04-03T09:19:26Z</time></trkpt><trkpt lat="43.84789955602662" lon="11.25981448156587"><ele>395.66666666666663</ele><time>2026-04-03T09:19:27Z</time></trkpt><trkpt lat="43.84795736021869" lon="11.259898420850211"><ele>396.8333333333333</ele><time>2026-04-03T09:19:28Z</time></trkpt><trkpt lat="43.848022716629764" lon="11.25996467178804"><ele>398.0</ele><time>2026-04-03T09:19:29Z</time></trkpt><trkpt lat="43.84807094559156" lon="11.260032555388769"><ele>398.0</ele><time>2026-04-03T09:19:30Z</time></trkpt><trkpt lat="43.848133868919646" lon="11.260090603941322"><ele>398.0</ele><time>2026-04-03T09:19:31Z</time></trkpt><trkpt lat="43.84822848424972" lon="11.260184306394676"><ele>398.0</ele><time>2026-04-03T09:19:33Z</time></trkpt><trkpt lat="43.848348324593644" lon="11.260200407625925"><ele>398.0</ele><time>2026-04-03T09:19:35Z</time></trkpt><trkpt lat="43.848420942818024" lon="11.260217355101847"><ele>398.0</ele><time>2026-04-03T09:19:36Z</time></trkpt><trkpt lat="43.84849783119655" lon="11.260181141984567"><ele>400.2</ele><time>2026-04-03T09:19:37Z</time></trkpt><trkpt lat="43.848573500154565" lon="11.260173319947016"><ele>402.4</ele><time>2026-04-03T09:19:38Z</time></trkpt><trkpt lat="43.84864967904529" lon="11.260190989045114"><ele>404.59999999999997</ele><time>2026-04-03T09:19:39Z</time></trkpt><trkpt lat="43.848720951024774" lon="11.260186721901412"><ele>406.79999999999995</ele><time>2026-04-03T09:19:40Z</time></trkpt><trkpt lat="43.84883879493374" lon="11.26019855936134"><ele>409.0</ele><time>2026-04-03T09:19:42Z</time></trkpt><trkpt lat="43.84896149197833" lon="11.260242598577554"><ele>409.00000000000006</ele><time>2026-04-03T09:19:44Z</time></trkpt><trkpt lat="43.84902871428032" lon="11.260276222507605"><ele>409.0</ele><time>2026-04-03T09:19:45Z</time></trkpt><trkpt lat="43.84909694909982" lon="11.26031379468401"><ele>409.0</ele><time>2026-04-03T09:19:46Z</time></trkpt><trkpt lat="43.84916104871333" lon="11.26035331787283"><ele>409.0</ele><time>2026-04-03T09:19:47Z</time></trkpt><trkpt lat="43.84922640041865" lon="11.26039504623776"><ele>409.00000000000006</ele><time>2026-04-03T09:19:48Z</time></trkpt><trkpt lat="43.849285686171335" lon="11.260436528593333"><ele>409.0</ele><time>2026-04-03T09:19:49Z</time></trkpt><trkpt lat="43.84938503427699" lon="11.260507006842632"><ele>410.50000000000006</ele><time>2026-04-03T09:19:51Z</time></trkpt><trkpt lat="43.84947394158046" lon="11.260553863486335"><ele>412.0</ele><time>2026-04-03T09:19:53Z</time></trkpt><trkpt lat="43.84952902533471" lon="11.260604649479681"><ele>413.5</ele><time>2026-04-03T09:19:55Z</time></trkpt><trkpt lat="43.849609710671636" lon="11.260668278193842"><ele>415.0</ele><time>2026-04-03T09:20:14Z</time></trkpt><trkpt lat="43.84960718331401" lon="11.260792906582221"><ele>416.50000000000006</ele><time>2026-04-03T09:20:16Z</time></trkpt><trkpt lat="43.84960968321416" lon="11.260893761198057"><ele>418.0</ele><time>2026-04-03T09:20:17Z</time></trkpt><trkpt lat="43.84960057734326" lon="11.260987367023771"><ele>418.00000000000006</ele><time>2026-04-03T09:20:18Z</time></trkpt><trkpt lat="43.84959793261475" lon="11.261083865390153"><ele>418.0</ele><time>2026-04-03T09:20:19Z</time></trkpt><trkpt lat="43.849582150768235" lon="11.261185330149269"><ele>418.0</ele><time>2026-04-03T09:20:20Z</time></trkpt><trkpt lat="43.849587827889884" lon="11.261279968597798"><ele>418.0</ele><time>2026-04-03T09:20:21Z</time></trkpt><trkpt lat="43.849612288502804" lon="11.26139906686406"><ele>418.00000000000006</ele><time>2026-04-03T09:20:22Z</time></trkpt><trkpt lat="43.8496456616201" lon="11.261505883574804"><ele>418.0</ele><time>2026-04-03T09:20:23Z</time></trkpt><trkpt lat="43.84968738552524" lon="11.261616452106878"><ele>417.83333333333337</ele><time>2026-04-03T09:20:24Z</time></trkpt><trkpt lat="43.84974059089796" lon="11.261735344462334"><ele>417.6666666666667</ele><time>2026-04-03T09:20:25Z</time></trkpt><trkpt lat="43.849809075554695" lon="11.261833320431082"><ele>417.5</ele><time>2026-04-03T09:20:26Z</time></trkpt><trkpt lat="43.84984150363625" lon="11.261938015382091"><ele>417.33333333333337</ele><time>2026-04-03T09:20:27Z</time></trkpt><trkpt lat="43.84988299144696" lon="11.262029539397188"><ele>417.1666666666667</ele><time>2026-04-03T09:20:28Z</time></trkpt><trkpt lat="43.84992854188647" lon="11.262120062482758"><ele>417.0</ele><time>2026-04-03T09:20:29Z</time></trkpt><trkpt lat="43.84998746442478" lon="11.262217456438531"><ele>415.6</ele><time>2026-04-03T09:20:30Z</time></trkpt><trkpt lat="43.850046088011155" lon="11.262311120880916"><ele>414.20000000000005</ele><time>2026-04-03T09:20:31Z</time></trkpt><trkpt lat="43.85009928844055" lon="11.262400509354546"><ele>412.8</ele><time>2026-04-03T09:20:32Z</time></trkpt><trkpt lat="43.8501463385257" lon="11.262481795915798"><ele>411.4</ele><time>2026-04-03T09:20:33Z</time></trkpt><trkpt lat="43.85019293146979" lon="11.262567441569008"><ele>410.0</ele><time>2026-04-03T09:20:34Z</time></trkpt><trkpt lat="43.85025591416998" lon="11.262716391751452"><ele>412.8333333333333</ele><time>2026-04-03T09:20:36Z</time></trkpt><trkpt lat="43.850287143694864" lon="11.262796033346579"><ele>415.66666666666663</ele><time>2026-04-03T09:20:37Z</time></trkpt><trkpt lat="43.8503404880319" lon="11.262942816761566"><ele>418.5</ele><time>2026-04-03T09:20:39Z</time></trkpt><trkpt lat="43.850369998797696" lon="11.263025653943796"><ele>421.33333333333337</ele><time>2026-04-03T09:20:40Z</time></trkpt><trkpt lat="43.850388215378025" lon="11.26317281117815"><ele>424.1666666666667</ele><time>2026-04-03T09:20:42Z</time></trkpt><trkpt lat="43.85042329488659" lon="11.263289011897347"><ele>427.0</ele><time>2026-04-03T09:20:44Z</time></trkpt><trkpt lat="43.85055691321161" lon="11.263324592860675"><ele>427.0</ele><time>2026-04-03T09:20:46Z</time></trkpt><trkpt lat="43.85066245925096" lon="11.263353470007381"><ele>427.00000000000006</ele><time>2026-04-03T09:20:47Z</time></trkpt><trkpt lat="43.850774873099134" lon="11.263373309916435"><ele>427.00000000000006</ele><time>2026-04-03T09:20:48Z</time></trkpt><trkpt lat="43.85087236606739" lon="11.263391610676893"><ele>427.0</ele><time>2026-04-03T09:20:49Z</time></trkpt><trkpt lat="43.85095905355401" lon="11.26340882960746"><ele>427.0</ele><time>2026-04-03T09:20:50Z</time></trkpt><trkpt lat="43.85103614714886" lon="11.263427198666925"><ele>429.20000000000005</ele><time>2026-04-03T09:20:51Z</time></trkpt><trkpt lat="43.85111798190048" lon="11.263423500325905"><ele>431.40000000000003</ele><time>2026-04-03T09:20:52Z</time></trkpt><trkpt lat="43.851204737780726" lon="11.263468159869166"><ele>433.59999999999997</ele><time>2026-04-03T09:20:53Z</time></trkpt><trkpt lat="43.851293923054186" lon="11.263492689760152"><ele>435.79999999999995</ele><time>2026-04-03T09:20:54Z</time></trkpt><trkpt lat="43.85139520578214" lon="11.2635222121449"><ele>438.0</ele><time>2026-04-03T09:20:55Z</time></trkpt><trkpt lat="43.85148458569113" lon="11.263548596950827"><ele>438.0</ele><time>2026-04-03T09:20:56Z</time></trkpt><trkpt lat="43.851582077342734" lon="11.263582134711227"><ele>438.0</ele><time>2026-04-03T09:20:57Z</time></trkpt><trkpt lat="43.851664677664616" lon="11.263606276679353"><ele>438.0</ele><time>2026-04-03T09:20:58Z</time></trkpt><trkpt lat="43.85174809098015" lon="11.2636043668783"><ele>438.0</ele><time>2026-04-03T09:20:59Z</time></trkpt><trkpt lat="43.851821560476985" lon="11.263606682437963"><ele>438.0</ele><time>2026-04-03T09:21:00Z</time></trkpt><trkpt lat="43.851889232027965" lon="11.263644536283579"><ele>438.0</ele><time>2026-04-03T09:21:01Z</time></trkpt><trkpt lat="43.85194903170563" lon="11.263680017609715"><ele>437.0</ele><time>2026-04-03T09:21:02Z</time></trkpt><trkpt lat="43.852008563195426" lon="11.263728448409923"><ele>435.99999999999994</ele><time>2026-04-03T09:21:03Z</time></trkpt><trkpt lat="43.85212464333099" lon="11.263775824674555"><ele>434.99999999999994</ele><time>2026-04-03T09:21:05Z</time></trkpt><trkpt lat="43.85218821874868" lon="11.263744181082282"><ele>434.0</ele><time>2026-04-03T09:21:06Z</time></trkpt><trkpt lat="43.85229453223476" lon="11.263696661494055"><ele>433.0</ele><time>2026-04-03T09:21:08Z</time></trkpt><trkpt lat="43.85240278536895" lon="11.263695510567256"><ele>433.0</ele><time>2026-04-03T09:21:10Z</time></trkpt><trkpt lat="43.852477749870175" lon="11.263699109409748"><ele>432.99999999999994</ele><time>2026-04-03T09:21:11Z</time></trkpt><trkpt lat="43.85257339141227" lon="11.263703225005715"><ele>432.99999999999994</ele><time>2026-04-03T09:21:12Z</time></trkpt><trkpt lat="43.85267291136684" lon="11.2637103211389"><ele>433.0</ele><time>2026-04-03T09:21:13Z</time></trkpt><trkpt lat="43.852777466957626" lon="11.263718317028603"><ele>433.0</ele><time>2026-04-03T09:21:14Z</time></trkpt><trkpt lat="43.85288772471085" lon="11.263726749001403"><ele>434.4</ele><time>2026-04-03T09:21:15Z</time></trkpt><trkpt lat="43.85299766647602" lon="11.263735156806693"><ele>435.79999999999995</ele><time>2026-04-03T09:21:16Z</time></trkpt><trkpt lat="43.85310711721101" lon="11.263743527061422"><ele>437.2</ele><time>2026-04-03T09:21:17Z</time></trkpt><trkpt lat="43.853219275585985" lon="11.263729958241274"><ele>438.6</ele><time>2026-04-03T09:21:18Z</time></trkpt><trkpt lat="43.85332927415853" lon="11.263738297276994"><ele>440.0</ele><time>2026-04-03T09:21:19Z</time></trkpt><trkpt lat="43.85343957466075" lon="11.26376816568364"><ele>442.8333333333333</ele><time>2026-04-03T09:21:20Z</time></trkpt><trkpt lat="43.85354982796854" lon="11.263775488054714"><ele>445.66666666666663</ele><time>2026-04-03T09:21:21Z</time></trkpt><trkpt lat="43.85365508958152" lon="11.263759664786212"><ele>448.5</ele><time>2026-04-03T09:21:22Z</time></trkpt><trkpt lat="43.85374669660842" lon="11.263767955033959"><ele>451.33333333333337</ele><time>2026-04-03T09:21:23Z</time></trkpt><trkpt lat="43.85381203830681" lon="11.263778288575546"><ele>454.1666666666667</ele><time>2026-04-03T09:21:24Z</time></trkpt><trkpt lat="43.853877079257884" lon="11.263802116137256"><ele>457.0</ele><time>2026-04-03T09:21:25Z</time></trkpt><trkpt lat="43.85396454110438" lon="11.263813068355187"><ele>457.00000000000006</ele><time>2026-04-03T09:21:26Z</time></trkpt><trkpt lat="43.854042767190414" lon="11.26380334120315"><ele>457.0</ele><time>2026-04-03T09:21:27Z</time></trkpt><trkpt lat="43.85411405238368" lon="11.26382600305361"><ele>457.0</ele><time>2026-04-03T09:21:28Z</time></trkpt><trkpt lat="43.85420141499358" lon="11.263831459518014"><ele>457.0</ele><time>2026-04-03T09:21:29Z</time></trkpt><trkpt lat="43.85427228718154" lon="11.263850534085604"><ele>457.00000000000006</ele><time>2026-04-03T09:21:30Z</time></trkpt><trkpt lat="43.854389369711015" lon="11.263906581809506"><ele>457.0</ele><time>2026-04-03T09:21:32Z</time></trkpt><trkpt lat="43.85444288424867" lon="11.263958557791826"><ele>458.83333333333337</ele><time>2026-04-03T09:21:33Z</time></trkpt><trkpt lat="43.85449714121133" lon="11.264012837474043"><ele>460.6666666666667</ele><time>2026-04-03T09:21:34Z</time></trkpt><trkpt lat="43.85454685929497" lon="11.264077793303477"><ele>462.5</ele><time>2026-04-03T09:21:35Z</time></trkpt><trkpt lat="43.85460259225382" lon="11.264157784355273"><ele>464.33333333333337</ele><time>2026-04-03T09:21:36Z</time></trkpt><trkpt lat="43.85466195806722" lon="11.264245606136079"><ele>466.1666666666667</ele><time>2026-04-03T09:21:37Z</time></trkpt><trkpt lat="43.85471401039483" lon="11.264330563908278"><ele>468.0</ele><time>2026-04-03T09:21:38Z</time></trkpt><trkpt lat="43.85476442776379" lon="11.26441113781895"><ele>468.0</ele><time>2026-04-03T09:21:39Z</time></trkpt><trkpt lat="43.85481594446946" lon="11.264478626897864"><ele>468.00000000000006</ele><time>2026-04-03T09:21:40Z</time></trkpt><trkpt lat="43.85488224779957" lon="11.26450752055312"><ele>468.0</ele><time>2026-04-03T09:21:41Z</time></trkpt><trkpt lat="43.85495426217286" lon="11.264526393707172"><ele>468.0</ele><time>2026-04-03T09:21:42Z</time></trkpt><trkpt lat="43.85503397576534" lon="11.264531574630142"><ele>468.00000000000006</ele><time>2026-04-03T09:21:43Z</time></trkpt><trkpt lat="43.85511015500406" lon="11.264524207829092"><ele>468.0</ele><time>2026-04-03T09:21:44Z</time></trkpt><trkpt lat="43.85518594297538" lon="11.26450528996836"><ele>468.0</ele><time>2026-04-03T09:21:45Z</time></trkpt><trkpt lat="43.8552615041178" lon="11.26450247612252"><ele>469.8571428571429</ele><time>2026-04-03T09:21:46Z</time></trkpt><trkpt lat="43.85533142369597" lon="11.264481183537173"><ele>471.7142857142858</ele><time>2026-04-03T09:21:47Z</time></trkpt><trkpt lat="43.85539851446256" lon="11.264480506872522"><ele>473.57142857142856</ele><time>2026-04-03T09:21:48Z</time></trkpt><trkpt lat="43.855469143166545" lon="11.264489869750678"><ele>475.42857142857144</ele><time>2026-04-03T09:21:49Z</time></trkpt><trkpt lat="43.85554518569388" lon="11.264504381921533"><ele>477.2857142857143</ele><time>2026-04-03T09:21:50Z</time></trkpt><trkpt lat="43.85561841382905" lon="11.264525869052752"><ele>479.1428571428571</ele><time>2026-04-03T09:21:51Z</time></trkpt><trkpt lat="43.85568979985618" lon="11.264557536482748"><ele>480.99999999999994</ele><time>2026-04-03T09:21:52Z</time></trkpt><trkpt lat="43.855757714354475" lon="11.26459799555148"><ele>481.00000000000006</ele><time>2026-04-03T09:21:53Z</time></trkpt><trkpt lat="43.855823462896595" lon="11.264649458414338"><ele>481.0</ele><time>2026-04-03T09:21:54Z</time></trkpt><trkpt lat="43.85589587034738" lon="11.264708441777218"><ele>481.0</ele><time>2026-04-03T09:21:55Z</time></trkpt><trkpt lat="43.855959467172006" lon="11.264756765720293"><ele>481.0</ele><time>2026-04-03T09:21:56Z</time></trkpt><trkpt lat="43.856026896836745" lon="11.264786153466558"><ele>481.00000000000006</ele><time>2026-04-03T09:21:57Z</time></trkpt><trkpt lat="43.856095570180194" lon="11.264824869552802"><ele>481.0</ele><time>2026-04-03T09:21:58Z</time></trkpt><trkpt lat="43.85617668477725" lon="11.26482995672239"><ele>483.00000000000006</ele><time>2026-04-03T09:21:59Z</time></trkpt><trkpt lat="43.85626572077694" lon="11.264833410463671"><ele>485.0</ele><time>2026-04-03T09:22:00Z</time></trkpt><trkpt lat="43.8563405168793" lon="11.264879460763874"><ele>487.0</ele><time>2026-04-03T09:22:01Z</time></trkpt><trkpt lat="43.856416995567045" lon="11.264904083483106"><ele>489.0</ele><time>2026-04-03T09:22:02Z</time></trkpt><trkpt lat="43.856485053517616" lon="11.264929774408493"><ele>491.00000000000006</ele><time>2026-04-03T09:22:03Z</time></trkpt><trkpt lat="43.85654907722635" lon="11.2649561007016"><ele>493.0</ele><time>2026-04-03T09:22:04Z</time></trkpt><trkpt lat="43.85665584669985" lon="11.265025733535705"><ele>493.00000000000006</ele><time>2026-04-03T09:22:06Z</time></trkpt><trkpt lat="43.856708009796414" lon="11.265079568824095"><ele>493.0</ele><time>2026-04-03T09:22:07Z</time></trkpt><trkpt lat="43.85678180715013" lon="11.265133814659189"><ele>493.0</ele><time>2026-04-03T09:22:08Z</time></trkpt><trkpt lat="43.85685509336033" lon="11.265227926656511"><ele>493.0</ele><time>2026-04-03T09:22:09Z</time></trkpt><trkpt lat="43.856933374008335" lon="11.265301431619632"><ele>493.00000000000006</ele><time>2026-04-03T09:22:10Z</time></trkpt><trkpt lat="43.8570124182627" lon="11.26537558001945"><ele>493.0</ele><time>2026-04-03T09:22:11Z</time></trkpt><trkpt lat="43.85709195689796" lon="11.265450172650922"><ele>494.1666666666667</ele><time>2026-04-03T09:22:12Z</time></trkpt><trkpt lat="43.85717224990995" lon="11.265528050423033"><ele>495.33333333333337</ele><time>2026-04-03T09:22:13Z</time></trkpt><trkpt lat="43.8572406442799" lon="11.265609672203693"><ele>496.5</ele><time>2026-04-03T09:22:14Z</time></trkpt><trkpt lat="43.857301651518135" lon="11.265693788654247"><ele>497.66666666666663</ele><time>2026-04-03T09:22:15Z</time></trkpt><trkpt lat="43.857354264885316" lon="11.265766001694846"><ele>498.8333333333333</ele><time>2026-04-03T09:22:16Z</time></trkpt><trkpt lat="43.85742902582419" lon="11.265832313827621"><ele>500.0</ele><time>2026-04-03T09:22:18Z</time></trkpt><trkpt lat="43.85751548820708" lon="11.26574317072865"><ele>499.99999999999994</ele><time>2026-04-03T09:22:21Z</time></trkpt><trkpt lat="43.857560914666294" lon="11.265665121214461"><ele>500.0</ele><time>2026-04-03T09:22:22Z</time></trkpt><trkpt lat="43.857619756614156" lon="11.265633116220284"><ele>500.0</ele><time>2026-04-03T09:22:23Z</time></trkpt><trkpt lat="43.85768647614633" lon="11.265594451843292"><ele>500.0</ele><time>2026-04-03T09:22:24Z</time></trkpt><trkpt lat="43.85776464975457" lon="11.26566983047716"><ele>499.99999999999994</ele><time>2026-04-03T09:22:25Z</time></trkpt><trkpt lat="43.85785866309063" lon="11.265702240004403"><ele>500.0</ele><time>2026-04-03T09:22:26Z</time></trkpt><trkpt lat="43.85795412632392" lon="11.265724799320369"><ele>503.3333333333333</ele><time>2026-04-03T09:22:27Z</time></trkpt><trkpt lat="43.8580467810261" lon="11.265745983288006"><ele>506.66666666666663</ele><time>2026-04-03T09:22:28Z</time></trkpt><trkpt lat="43.85812947168579" lon="11.265773742156039"><ele>510.0</ele><time>2026-04-03T09:22:29Z</time></trkpt><trkpt lat="43.858204604163575" lon="11.265818022417477"><ele>513.3333333333334</ele><time>2026-04-03T09:22:30Z</time></trkpt><trkpt lat="43.85829311075392" lon="11.265823986357873"><ele>516.6666666666667</ele><time>2026-04-03T09:22:31Z</time></trkpt><trkpt lat="43.858378509510665" lon="11.265858608022937"><ele>520.0</ele><time>2026-04-03T09:22:32Z</time></trkpt><trkpt lat="43.858473693047415" lon="11.26588124476668"><ele>525.8</ele><time>2026-04-03T09:22:33Z</time></trkpt><trkpt lat="43.85856716551573" lon="11.265904119659623"><ele>531.6</ele><time>2026-04-03T09:22:34Z</time></trkpt><trkpt lat="43.85865910007389" lon="11.265937093713935"><ele>537.4</ele><time>2026-04-03T09:22:35Z</time></trkpt><trkpt lat="43.85874716873237" lon="11.265952829046432"><ele>543.2</ele><time>2026-04-03T09:22:36Z</time></trkpt><trkpt lat="43.85883713698431" lon="11.26598729076972"><ele>549.0</ele><time>2026-04-03T09:22:37Z</time></trkpt><trkpt lat="43.85891768810526" lon="11.26602830062144"><ele>549.0</ele><time>2026-04-03T09:22:38Z</time></trkpt><trkpt lat="43.858999264481824" lon="11.26604338016421"><ele>549.0</ele><time>2026-04-03T09:22:39Z</time></trkpt><trkpt lat="43.85906527842136" lon="11.266114288881077"><ele>549.0</ele><time>2026-04-03T09:22:40Z</time></trkpt><trkpt lat="43.859136377580164" lon="11.266182528390841"><ele>549.0</ele><time>2026-04-03T09:22:41Z</time></trkpt><trkpt lat="43.85921203320937" lon="11.266242789039087"><ele>549.0</ele><time>2026-04-03T09:22:42Z</time></trkpt><trkpt lat="43.85926080786692" lon="11.266358289497207"><ele>549.0</ele><time>2026-04-03T09:22:43Z</time></trkpt><trkpt lat="43.859321841469765" lon="11.266480215925798"><ele>551.4</ele><time>2026-04-03T09:22:44Z</time></trkpt><trkpt lat="43.859392608310216" lon="11.266590658957782"><ele>553.8</ele><time>2026-04-03T09:22:45Z</time></trkpt><trkpt lat="43.85943494527066" lon="11.266723336455527"><ele>556.2</ele><time>2026-04-03T09:22:46Z</time></trkpt><trkpt lat="43.85948997348266" lon="11.266847986507518"><ele>558.6</ele><time>2026-04-03T09:22:47Z</time></trkpt><trkpt lat="43.8595373506247" lon="11.266965839344431"><ele>561.0</ele><time>2026-04-03T09:22:48Z</time></trkpt><trkpt lat="43.85957590084596" lon="11.267070175097654"><ele>561.0</ele><time>2026-04-03T09:22:49Z</time></trkpt><trkpt lat="43.85961263162113" lon="11.267180811932569"><ele>561.0</ele><time>2026-04-03T09:22:50Z</time></trkpt><trkpt lat="43.85963995777977" lon="11.267279621053053"><ele>561.0</ele><time>2026-04-03T09:22:51Z</time></trkpt><trkpt lat="43.859666142560194" lon="11.267389964540815"><ele>561.0</ele><time>2026-04-03T09:22:52Z</time></trkpt><trkpt lat="43.85969344670576" lon="11.267504152960436"><ele>561.0</ele><time>2026-04-03T09:22:53Z</time></trkpt><trkpt lat="43.8596436493261" lon="11.267628332439314"><ele>561.0</ele><time>2026-04-03T09:22:54Z</time></trkpt><trkpt lat="43.85964660267397" lon="11.26773639396159"><ele>561.5</ele><time>2026-04-03T09:22:55Z</time></trkpt><trkpt lat="43.859642959349465" lon="11.267839064848905"><ele>562.0</ele><time>2026-04-03T09:22:56Z</time></trkpt><trkpt lat="43.85968555822031" lon="11.267930648932856"><ele>562.5</ele><time>2026-04-03T09:22:58Z</time></trkpt><trkpt lat="43.85977057849922" lon="11.267978441324813"><ele>563.0</ele><time>2026-04-03T09:23:00Z</time></trkpt><trkpt lat="43.859837926237255" lon="11.267927775001079"><ele>563.5</ele><time>2026-04-03T09:23:03Z</time></trkpt><trkpt lat="43.85986012440914" lon="11.267826382298388"><ele>564.0</ele><time>2026-04-03T09:23:04Z</time></trkpt><trkpt lat="43.85987647082142" lon="11.267708853044537"><ele>564.0</ele><time>2026-04-03T09:23:05Z</time></trkpt><trkpt lat="43.859908820274235" lon="11.26759057294351"><ele>564.0</ele><time>2026-04-03T09:23:06Z</time></trkpt><trkpt lat="43.85995178205494" lon="11.267454111871114"><ele>564.0</ele><time>2026-04-03T09:23:07Z</time></trkpt><trkpt lat="43.859983013807565" lon="11.267301251630897"><ele>564.0</ele><time>2026-04-03T09:23:08Z</time></trkpt><trkpt lat="43.8599972601975" lon="11.267116280283837"><ele>564.0</ele><time>2026-04-03T09:23:09Z</time></trkpt><trkpt lat="43.86000379548556" lon="11.266932989194897"><ele>563.25</ele><time>2026-04-03T09:23:10Z</time></trkpt><trkpt lat="43.860013588232995" lon="11.26675378767143"><ele>562.5</ele><time>2026-04-03T09:23:11Z</time></trkpt><trkpt lat="43.860027222139145" lon="11.266582723069623"><ele>561.75</ele><time>2026-04-03T09:23:12Z</time></trkpt><trkpt lat="43.86001910810925" lon="11.266424580011947"><ele>561.0</ele><time>2026-04-03T09:23:13Z</time></trkpt><trkpt lat="43.85997465661273" lon="11.266270470308049"><ele>563.5</ele><time>2026-04-03T09:23:14Z</time></trkpt><trkpt lat="43.859901154150066" lon="11.266116751108443"><ele>566.0</ele><time>2026-04-03T09:23:15Z</time></trkpt><trkpt lat="43.85980449404763" lon="11.265961556397949"><ele>568.5</ele><time>2026-04-03T09:23:16Z</time></trkpt><trkpt lat="43.85969595928721" lon="11.26580178362745"><ele>571.0</ele><time>2026-04-03T09:23:17Z</time></trkpt><trkpt lat="43.8595883524989" lon="11.26563883645109"><ele>567.6666666666667</ele><time>2026-04-03T09:23:18Z</time></trkpt><trkpt lat="43.859485331394964" lon="11.265465213595629"><ele>564.3333333333334</ele><time>2026-04-03T09:23:19Z</time></trkpt><trkpt lat="43.85938006569777" lon="11.265290918625826"><ele>561.0</ele><time>2026-04-03T09:23:20Z</time></trkpt><trkpt lat="43.85927079144778" lon="11.265119870973265"><ele>561.0</ele><time>2026-04-03T09:23:21Z</time></trkpt><trkpt lat="43.859172171335494" lon="11.264954939338368"><ele>561.0</ele><time>2026-04-03T09:23:22Z</time></trkpt><trkpt lat="43.859089803962384" lon="11.264790598361232"><ele>561.0</ele><time>2026-04-03T09:23:23Z</time></trkpt><trkpt lat="43.85901457395143" lon="11.264606288887025"><ele>563.3333333333334</ele><time>2026-04-03T09:23:24Z</time></trkpt><trkpt lat="43.858952722051804" lon="11.264404391333777"><ele>565.6666666666667</ele><time>2026-04-03T09:23:25Z</time></trkpt><trkpt lat="43.85891139619776" lon="11.264198025918748"><ele>568.0</ele><time>2026-04-03T09:23:26Z</time></trkpt><trkpt lat="43.85885839183429" lon="11.263995125204378"><ele>566.75</ele><time>2026-04-03T09:23:27Z</time></trkpt><trkpt lat="43.858799369013894" lon="11.263819508124001"><ele>565.5</ele><time>2026-04-03T09:23:28Z</time></trkpt><trkpt lat="43.85876439138636" lon="11.263637365773972"><ele>564.25</ele><time>2026-04-03T09:23:29Z</time></trkpt><trkpt lat="43.85875095699003" lon="11.263474054625835"><ele>563.0</ele><time>2026-04-03T09:23:30Z</time></trkpt><trkpt lat="43.858756273981044" lon="11.263329368354594"><ele>563.0</ele><time>2026-04-03T09:23:31Z</time></trkpt><trkpt lat="43.85878749318366" lon="11.263212383043317"><ele>563.0</ele><time>2026-04-03T09:23:32Z</time></trkpt><trkpt lat="43.85882996325772" lon="11.263128100429233"><ele>563.0</ele><time>2026-04-03T09:23:33Z</time></trkpt><trkpt lat="43.85889089141649" lon="11.263059470749837"><ele>563.0</ele><time>2026-04-03T09:23:35Z</time></trkpt><trkpt lat="43.85896269525909" lon="11.263043223156172"><ele>563.0</ele><time>2026-04-03T09:23:39Z</time></trkpt><trkpt lat="43.85902639313756" lon="11.263030972241356"><ele>563.0</ele><time>2026-04-03T09:23:41Z</time></trkpt><trkpt lat="43.85910870880066" lon="11.263023771777293"><ele>562.1666666666666</ele><time>2026-04-03T09:23:43Z</time></trkpt><trkpt lat="43.85918582607631" lon="11.263026614401568"><ele>561.3333333333333</ele><time>2026-04-03T09:23:45Z</time></trkpt><trkpt lat="43.85925896029561" lon="11.263040760590439"><ele>560.5</ele><time>2026-04-03T09:23:48Z</time></trkpt><trkpt lat="43.85932824327717" lon="11.262972496299684"><ele>559.6666666666666</ele><time>2026-04-03T09:23:50Z</time></trkpt><trkpt lat="43.859393927963175" lon="11.262957628824585"><ele>558.8333333333334</ele><time>2026-04-03T09:23:52Z</time></trkpt><trkpt lat="43.859456708921655" lon="11.26290813210146"><ele>558.0</ele><time>2026-04-03T09:23:54Z</time></trkpt><trkpt lat="43.85953624377283" lon="11.262923501234981"><ele>556.5714285714286</ele><time>2026-04-03T09:23:56Z</time></trkpt><trkpt lat="43.859624909136095" lon="11.262974086529272"><ele>555.1428571428571</ele><time>2026-04-03T09:23:58Z</time></trkpt><trkpt lat="43.85969521716536" lon="11.262975514641003"><ele>553.7142857142858</ele><time>2026-04-03T09:24:00Z</time></trkpt><trkpt lat="43.85975585034189" lon="11.262943959084705"><ele>552.2857142857142</ele><time>2026-04-03T09:24:02Z</time></trkpt><trkpt lat="43.859801586157545" lon="11.262878838810472"><ele>550.8571428571429</ele><time>2026-04-03T09:24:04Z</time></trkpt><trkpt lat="43.859845436001265" lon="11.262808483503585"><ele>549.4285714285714</ele><time>2026-04-03T09:24:06Z</time></trkpt><trkpt lat="43.859890164687194" lon="11.262707374383936"><ele>548.0</ele><time>2026-04-03T09:24:08Z</time></trkpt><trkpt lat="43.859921739321784" lon="11.262619010399352"><ele>548.0</ele><time>2026-04-03T09:24:10Z</time></trkpt><trkpt lat="43.85996378880143" lon="11.262500019666241"><ele>548.0</ele><time>2026-04-03T09:24:12Z</time></trkpt><trkpt lat="43.860010707313165" lon="11.26236719534061"><ele>548.0</ele><time>2026-04-03T09:24:14Z</time></trkpt><trkpt lat="43.86006046385893" lon="11.262246232697661"><ele>548.0</ele><time>2026-04-03T09:24:16Z</time></trkpt><trkpt lat="43.86012197654365" lon="11.262134531989776"><ele>548.0</ele><time>2026-04-03T09:24:18Z</time></trkpt><trkpt lat="43.86018876842918" lon="11.262037811095173"><ele>547.0</ele><time>2026-04-03T09:24:20Z</time></trkpt><trkpt lat="43.86025893159999" lon="11.261960452151214"><ele>546.0</ele><time>2026-04-03T09:24:22Z</time></trkpt><trkpt lat="43.860340514694094" lon="11.261881086657377"><ele>545.0</ele><time>2026-04-03T09:24:24Z</time></trkpt><trkpt lat="43.860438361973316" lon="11.261805517693356"><ele>544.0</ele><time>2026-04-03T09:24:26Z</time></trkpt><trkpt lat="43.8605222767418" lon="11.261729242484469"><ele>543.0</ele><time>2026-04-03T09:24:28Z</time></trkpt><trkpt lat="43.86059353611882" lon="11.261662350357096"><ele>543.0</ele><time>2026-04-03T09:24:43Z</time></trkpt><trkpt lat="43.8606694575652" lon="11.2615744224208"><ele>543.0</ele><time>2026-04-03T09:24:45Z</time></trkpt><trkpt lat="43.860754348603564" lon="11.261464601051385"><ele>543.0</ele><time>2026-04-03T09:24:47Z</time></trkpt><trkpt lat="43.860845552461534" lon="11.261340229626454"><ele>543.0</ele><time>2026-04-03T09:24:49Z</time></trkpt><trkpt lat="43.86089577907197" lon="11.26126799096332"><ele>543.0</ele><time>2026-04-03T09:24:50Z</time></trkpt><trkpt lat="43.86094717257058" lon="11.26118948802947"><ele>541.0</ele><time>2026-04-03T09:24:51Z</time></trkpt><trkpt lat="43.86099566446812" lon="11.261109114310797"><ele>539.0</ele><time>2026-04-03T09:24:52Z</time></trkpt><trkpt lat="43.86105992803324" lon="11.261001134884335"><ele>537.0</ele><time>2026-04-03T09:24:53Z</time></trkpt><trkpt lat="43.86111373970872" lon="11.260918024870321"><ele>535.0</ele><time>2026-04-03T09:24:54Z</time></trkpt><trkpt lat="43.86116338441257" lon="11.260839024308227"><ele>533.0</ele><time>2026-04-03T09:24:55Z</time></trkpt><trkpt lat="43.86120298891421" lon="11.260768517196505"><ele>531.0</ele><time>2026-04-03T09:24:56Z</time></trkpt><trkpt lat="43.86123666986376" lon="11.260686978970481"><ele>531.0</ele><time>2026-04-03T09:24:57Z</time></trkpt><trkpt lat="43.861294647771174" lon="11.260638194187235"><ele>531.0</ele><time>2026-04-03T09:24:58Z</time></trkpt><trkpt lat="43.86140205823973" lon="11.26057140593833"><ele>531.0</ele><time>2026-04-03T09:25:00Z</time></trkpt><trkpt lat="43.86151562239581" lon="11.260512049271478"><ele>531.0</ele><time>2026-04-03T09:25:02Z</time></trkpt><trkpt lat="43.86157567757631" lon="11.260485670759772"><ele>531.0</ele><time>2026-04-03T09:25:03Z</time></trkpt><trkpt lat="43.86164013047339" lon="11.260460308096137"><ele>531.0</ele><time>2026-04-03T09:25:04Z</time></trkpt><trkpt lat="43.861706986228384" lon="11.260450659859394"><ele>529.5</ele><time>2026-04-03T09:25:05Z</time></trkpt><trkpt lat="43.861780273191336" lon="11.260439672290715"><ele>528.0</ele><time>2026-04-03T09:25:06Z</time></trkpt><trkpt lat="43.86184323714641" lon="11.260410806287847"><ele>526.5</ele><time>2026-04-03T09:25:07Z</time></trkpt><trkpt lat="43.861904730575574" lon="11.260383567274967"><ele>525.0</ele><time>2026-04-03T09:25:08Z</time></trkpt><trkpt lat="43.86195644950611" lon="11.260331622017496"><ele>523.5</ele><time>2026-04-03T09:25:09Z</time></trkpt><trkpt lat="43.86200002988797" lon="11.260268457367467"><ele>522.0</ele><time>2026-04-03T09:25:10Z</time></trkpt><trkpt lat="43.862093560340654" lon="11.260163210664698"><ele>520.8000000000001</ele><time>2026-04-03T09:25:12Z</time></trkpt><trkpt lat="43.862189785245285" lon="11.260052460154911"><ele>519.6</ele><time>2026-04-03T09:25:14Z</time></trkpt><trkpt lat="43.862242753248125" lon="11.259995169979044"><ele>518.4000000000001</ele><time>2026-04-03T09:25:15Z</time></trkpt><trkpt lat="43.86229807779201" lon="11.259940012357248"><ele>517.2</ele><time>2026-04-03T09:25:16Z</time></trkpt><trkpt lat="43.86235362364602" lon="11.259886268679253"><ele>516.0</ele><time>2026-04-03T09:25:17Z</time></trkpt><trkpt lat="43.86245686713968" lon="11.259793631838127"><ele>515.5</ele><time>2026-04-03T09:25:19Z</time></trkpt><trkpt lat="43.862517164965254" lon="11.259746621572964"><ele>515.0</ele><time>2026-04-03T09:25:20Z</time></trkpt><trkpt lat="43.86257641982423" lon="11.259704312879126"><ele>514.5</ele><time>2026-04-03T09:25:21Z</time></trkpt><trkpt lat="43.86264581733942" lon="11.259656594248845"><ele>514.0</ele><time>2026-04-03T09:25:22Z</time></trkpt><trkpt lat="43.86271135704224" lon="11.259614991079728"><ele>513.5</ele><time>2026-04-03T09:25:23Z</time></trkpt><trkpt lat="43.86277013322964" lon="11.259581000081974"><ele>513.0</ele><time>2026-04-03T09:25:24Z</time></trkpt><trkpt lat="43.86287125644136" lon="11.259533363411073"><ele>510.0</ele><time>2026-04-03T09:25:26Z</time></trkpt><trkpt lat="43.86295604215296" lon="11.259505581323607"><ele>507.0</ele><time>2026-04-03T09:25:28Z</time></trkpt><trkpt lat="43.86304528218696" lon="11.25947642910122"><ele>504.0</ele><time>2026-04-03T09:25:30Z</time></trkpt><trkpt lat="43.86313441929632" lon="11.259405835470368"><ele>501.0</ele><time>2026-04-03T09:25:32Z</time></trkpt><trkpt lat="43.86320472055454" lon="11.25935003413406"><ele>498.0</ele><time>2026-04-03T09:25:34Z</time></trkpt><trkpt lat="43.86327279207738" lon="11.25931888413104"><ele>495.0</ele><time>2026-04-03T09:25:36Z</time></trkpt><trkpt lat="43.86335380865379" lon="11.25929370258578"><ele>495.0</ele><time>2026-04-03T09:25:38Z</time></trkpt><trkpt lat="43.863427362949686" lon="11.259259281327893"><ele>495.0</ele><time>2026-04-03T09:25:41Z</time></trkpt><trkpt lat="43.8634149316566" lon="11.259133565768705"><ele>495.0</ele><time>2026-04-03T09:25:44Z</time></trkpt><trkpt lat="43.86331364381103" lon="11.25910973461251"><ele>495.0</ele><time>2026-04-03T09:25:46Z</time></trkpt><trkpt lat="43.86323543804861" lon="11.259071109394812"><ele>495.0</ele><time>2026-04-03T09:25:48Z</time></trkpt><trkpt lat="43.86313608689092" lon="11.259063732478136"><ele>495.0</ele><time>2026-04-03T09:25:50Z</time></trkpt><trkpt lat="43.863048662299164" lon="11.25904709137923"><ele>495.0</ele><time>2026-04-03T09:25:52Z</time></trkpt><trkpt lat="43.86300048668522" lon="11.258985735292583"><ele>495.0</ele><time>2026-04-03T09:25:54Z</time></trkpt><trkpt lat="43.86302075943634" lon="11.258888654271649"><ele>495.0</ele><time>2026-04-03T09:25:57Z</time></trkpt><trkpt lat="43.86309035836772" lon="11.258854519548198"><ele>495.0</ele><time>2026-04-03T09:26:00Z</time></trkpt><trkpt lat="43.86315691186584" lon="11.258841407270102"><ele>495.0</ele><time>2026-04-03T09:26:03Z</time></trkpt><trkpt lat="43.863233243185455" lon="11.258799610489207"><ele>491.3333333333333</ele><time>2026-04-03T09:26:06Z</time></trkpt><trkpt lat="43.86331364727258" lon="11.258779140504224"><ele>487.66666666666663</ele><time>2026-04-03T09:26:08Z</time></trkpt><trkpt lat="43.86339082470798" lon="11.258739468872985"><ele>484.0</ele><time>2026-04-03T09:26:10Z</time></trkpt><trkpt lat="43.8634595410692" lon="11.258710061606303"><ele>480.3333333333333</ele><time>2026-04-03T09:26:12Z</time></trkpt><trkpt lat="43.863553527413984" lon="11.258735528974603"><ele>476.66666666666663</ele><time>2026-04-03T09:26:15Z</time></trkpt><trkpt lat="43.86364169229014" lon="11.258780577581044"><ele>473.0</ele><time>2026-04-03T09:26:18Z</time></trkpt><trkpt lat="43.8637303693591" lon="11.258796649980493"><ele>468.66666666666663</ele><time>2026-04-03T09:26:21Z</time></trkpt><trkpt lat="43.86379068906902" lon="11.258770183143891"><ele>464.3333333333333</ele><time>2026-04-03T09:26:23Z</time></trkpt><trkpt lat="43.86385519243544" lon="11.258737840230536"><ele>460.0</ele><time>2026-04-03T09:26:25Z</time></trkpt><trkpt lat="43.86394824931646" lon="11.258704656554238"><ele>455.66666666666663</ele><time>2026-04-03T09:26:28Z</time></trkpt><trkpt lat="43.86402031271411" lon="11.25874178844266"><ele>451.3333333333333</ele><time>2026-04-03T09:26:30Z</time></trkpt><trkpt lat="43.86408614424065" lon="11.258796518678265"><ele>447.0</ele><time>2026-04-03T09:26:32Z</time></trkpt><trkpt lat="43.86416637843779" lon="11.258843270901322"><ele>447.0</ele><time>2026-04-03T09:26:34Z</time></trkpt><trkpt lat="43.86425650005938" lon="11.258847306118108"><ele>447.00000000000006</ele><time>2026-04-03T09:26:36Z</time></trkpt><trkpt lat="43.8643286759492" lon="11.258751523103177"><ele>447.00000000000006</ele><time>2026-04-03T09:26:38Z</time></trkpt><trkpt lat="43.86430495142094" lon="11.258619757766352"><ele>447.0</ele><time>2026-04-03T09:26:40Z</time></trkpt><trkpt lat="43.86426064752982" lon="11.258510286956763"><ele>447.0</ele><time>2026-04-03T09:26:42Z</time></trkpt><trkpt lat="43.864202099759225" lon="11.25842407984566"><ele>447.0</ele><time>2026-04-03T09:26:44Z</time></trkpt><trkpt lat="43.864138951165714" lon="11.258359282700352"><ele>447.0</ele><time>2026-04-03T09:26:46Z</time></trkpt><trkpt lat="43.8640834619846" lon="11.258268412173798"><ele>447.0</ele><time>2026-04-03T09:26:48Z</time></trkpt><trkpt lat="43.86405504313728" lon="11.258151493691502"><ele>447.0</ele><time>2026-04-03T09:26:50Z</time></trkpt><trkpt lat="43.8640202859532" lon="11.258039056266998"><ele>447.0</ele><time>2026-04-03T09:26:52Z</time></trkpt><trkpt lat="43.86399019179554" lon="11.25791531402458"><ele>447.0</ele><time>2026-04-03T09:26:54Z</time></trkpt><trkpt lat="43.86394358520492" lon="11.257814242810984"><ele>444.3333333333333</ele><time>2026-04-03T09:26:56Z</time></trkpt><trkpt lat="43.863903874045675" lon="11.2577169795365"><ele>441.66666666666663</ele><time>2026-04-03T09:26:58Z</time></trkpt><trkpt lat="43.863853331613306" lon="11.257623443507022"><ele>439.0</ele><time>2026-04-03T09:27:00Z</time></trkpt><trkpt lat="43.86383123496292" lon="11.257528820252304"><ele>436.3333333333333</ele><time>2026-04-03T09:27:03Z</time></trkpt><trkpt lat="43.86388129548954" lon="11.257429888686183"><ele>433.66666666666663</ele><time>2026-04-03T09:27:06Z</time></trkpt><trkpt lat="43.86393708970618" lon="11.257386037024633"><ele>431.0</ele><time>2026-04-03T09:27:08Z</time></trkpt><trkpt lat="43.86401379013274" lon="11.257373115754618"><ele>430.99999999999994</ele><time>2026-04-03T09:27:11Z</time></trkpt><trkpt lat="43.86409729579271" lon="11.257366224212268"><ele>431.0</ele><time>2026-04-03T09:27:14Z</time></trkpt><trkpt lat="43.86417674869845" lon="11.257346899554571"><ele>431.0</ele><time>2026-04-03T09:27:17Z</time></trkpt><trkpt lat="43.86424039702623" lon="11.257345270872413"><ele>431.0</ele><time>2026-04-03T09:30:01Z</time></trkpt><trkpt lat="43.864359189540814" lon="11.257287277528693"><ele>430.99999999999994</ele><time>2026-04-03T09:30:41Z</time></trkpt><trkpt lat="43.86442296510131" lon="11.25721040389861"><ele>431.0</ele><time>2026-04-03T09:30:43Z</time></trkpt><trkpt lat="43.86459868281828" lon="11.256997647445441"><ele>433.6</ele><time>2026-04-03T09:30:45Z</time></trkpt><trkpt lat="43.864679565522614" lon="11.256969748787862"><ele>436.20000000000005</ele><time>2026-04-03T09:30:46Z</time></trkpt><trkpt lat="43.86476912277619" lon="11.25701380355726"><ele>438.79999999999995</ele><time>2026-04-03T09:30:47Z</time></trkpt><trkpt lat="43.864870414648024" lon="11.257011644993842"><ele>441.4</ele><time>2026-04-03T09:30:48Z</time></trkpt><trkpt lat="43.86496847716333" lon="11.256991013009522"><ele>444.0</ele><time>2026-04-03T09:30:49Z</time></trkpt><trkpt lat="43.86507258648399" lon="11.25699193727835"><ele>446.2</ele><time>2026-04-03T09:30:50Z</time></trkpt><trkpt lat="43.86517863107636" lon="11.256989771714814"><ele>448.4</ele><time>2026-04-03T09:30:51Z</time></trkpt><trkpt lat="43.865269505683806" lon="11.256998753401005"><ele>450.6</ele><time>2026-04-03T09:30:52Z</time></trkpt><trkpt lat="43.8653375313175" lon="11.257006329701296"><ele>452.8</ele><time>2026-04-03T09:30:53Z</time></trkpt><trkpt lat="43.86545114566851" lon="11.25707232217327"><ele>455.0</ele><time>2026-04-03T09:30:55Z</time></trkpt><trkpt lat="43.865516975627756" lon="11.257122965678112"><ele>455.0</ele><time>2026-04-03T09:30:56Z</time></trkpt><trkpt lat="43.86559909376832" lon="11.257163445299328"><ele>455.0</ele><time>2026-04-03T09:30:57Z</time></trkpt><trkpt lat="43.86567904052234" lon="11.257232845053046"><ele>455.0</ele><time>2026-04-03T09:30:58Z</time></trkpt><trkpt lat="43.865765496773285" lon="11.25729428944554"><ele>455.0</ele><time>2026-04-03T09:30:59Z</time></trkpt><trkpt lat="43.865875439171674" lon="11.257337724570725"><ele>455.0</ele><time>2026-04-03T09:31:00Z</time></trkpt><trkpt lat="43.86600591491789" lon="11.257364422423764"><ele>451.4</ele><time>2026-04-03T09:31:01Z</time></trkpt><trkpt lat="43.86613880815765" lon="11.257391273072246"><ele>447.8</ele><time>2026-04-03T09:31:02Z</time></trkpt><trkpt lat="43.866234274451806" lon="11.257409696526564"><ele>444.20000000000005</ele><time>2026-04-03T09:31:03Z</time></trkpt><trkpt lat="43.86631538634215" lon="11.257398879521089"><ele>440.6</ele><time>2026-04-03T09:31:04Z</time></trkpt><trkpt lat="43.86642788586246" lon="11.2573654152416"><ele>437.0</ele><time>2026-04-03T09:31:05Z</time></trkpt><trkpt lat="43.86652929758425" lon="11.257331339801935"><ele>436.99999999999994</ele><time>2026-04-03T09:31:06Z</time></trkpt><trkpt lat="43.86660923458458" lon="11.25731700497386"><ele>437.0</ele><time>2026-04-03T09:31:07Z</time></trkpt><trkpt lat="43.86668370060621" lon="11.25732821744784"><ele>437.0</ele><time>2026-04-03T09:31:08Z</time></trkpt><trkpt lat="43.86673095189966" lon="11.257407538390419"><ele>437.0</ele><time>2026-04-03T09:31:09Z</time></trkpt><trkpt lat="43.866801935578394" lon="11.257473229836997"><ele>436.99999999999994</ele><time>2026-04-03T09:31:10Z</time></trkpt><trkpt lat="43.866889753517086" lon="11.257558560456426"><ele>437.0</ele><time>2026-04-03T09:31:11Z</time></trkpt><trkpt lat="43.866990554918836" lon="11.257623806146267"><ele>440.0</ele><time>2026-04-03T09:31:12Z</time></trkpt><trkpt lat="43.8670876842132" lon="11.257694952812574"><ele>443.00000000000006</ele><time>2026-04-03T09:31:13Z</time></trkpt><trkpt lat="43.867183616199945" lon="11.25773381437059"><ele>446.00000000000006</ele><time>2026-04-03T09:31:14Z</time></trkpt><trkpt lat="43.86728362616793" lon="11.257764829643772"><ele>449.0</ele><time>2026-04-03T09:31:15Z</time></trkpt><trkpt lat="43.86738059834813" lon="11.257786598706845"><ele>452.0</ele><time>2026-04-03T09:31:16Z</time></trkpt><trkpt lat="43.86747373611375" lon="11.25780167358834"><ele>451.99999999999994</ele><time>2026-04-03T09:31:17Z</time></trkpt><trkpt lat="43.86756348318099" lon="11.257800154001643"><ele>452.0</ele><time>2026-04-03T09:31:18Z</time></trkpt><trkpt lat="43.86765638404793" lon="11.25781372543979"><ele>452.0</ele><time>2026-04-03T09:31:19Z</time></trkpt><trkpt lat="43.867728433677634" lon="11.257803693524226"><ele>452.0</ele><time>2026-04-03T09:31:20Z</time></trkpt><trkpt lat="43.8677922965232" lon="11.25777047633232"><ele>451.99999999999994</ele><time>2026-04-03T09:31:21Z</time></trkpt><trkpt lat="43.8678477595591" lon="11.25770494488129"><ele>452.0</ele><time>2026-04-03T09:31:22Z</time></trkpt><trkpt lat="43.8679074874298" lon="11.257596950393445"><ele>453.20000000000005</ele><time>2026-04-03T09:31:23Z</time></trkpt><trkpt lat="43.86798387320608" lon="11.25747284647654"><ele>454.40000000000003</ele><time>2026-04-03T09:31:24Z</time></trkpt><trkpt lat="43.86806709471463" lon="11.257348813826955"><ele>455.59999999999997</ele><time>2026-04-03T09:31:25Z</time></trkpt><trkpt lat="43.86812788167458" lon="11.257241019345052"><ele>456.79999999999995</ele><time>2026-04-03T09:31:26Z</time></trkpt><trkpt lat="43.86816567876127" lon="11.257133029803821"><ele>458.0</ele><time>2026-04-03T09:31:27Z</time></trkpt><trkpt lat="43.86819682968236" lon="11.257015186303606"><ele>461.4</ele><time>2026-04-03T09:31:28Z</time></trkpt><trkpt lat="43.86821692255857" lon="11.256910763680889"><ele>464.79999999999995</ele><time>2026-04-03T09:31:29Z</time></trkpt><trkpt lat="43.868271097674175" lon="11.256776500369785"><ele>468.2</ele><time>2026-04-03T09:31:31Z</time></trkpt><trkpt lat="43.86834620599352" lon="11.256771656822092"><ele>471.6</ele><time>2026-04-03T09:31:33Z</time></trkpt><trkpt lat="43.86849625815422" lon="11.256913398640334"><ele>475.0</ele><time>2026-04-03T09:31:35Z</time></trkpt><trkpt lat="43.86859197358478" lon="11.25703474227941"><ele>475.00000000000006</ele><time>2026-04-03T09:31:36Z</time></trkpt><trkpt lat="43.86867958225639" lon="11.25713380414196"><ele>475.0</ele><time>2026-04-03T09:31:37Z</time></trkpt><trkpt lat="43.86873436253221" lon="11.257220708626477"><ele>475.0</ele><time>2026-04-03T09:31:38Z</time></trkpt><trkpt lat="43.86880555594804" lon="11.25733907888713"><ele>475.0</ele><time>2026-04-03T09:31:40Z</time></trkpt><trkpt lat="43.86886336590614" lon="11.257386917738609"><ele>475.00000000000006</ele><time>2026-04-03T09:31:42Z</time></trkpt><trkpt lat="43.86891440795708" lon="11.2573328107306"><ele>475.0</ele><time>2026-04-03T09:31:43Z</time></trkpt><trkpt lat="43.86892846758705" lon="11.257246316522867"><ele>477.50000000000006</ele><time>2026-04-03T09:31:44Z</time></trkpt><trkpt lat="43.86894546352846" lon="11.257127647184909"><ele>480.0</ele><time>2026-04-03T09:31:46Z</time></trkpt><trkpt lat="43.869033942934365" lon="11.257143460196502"><ele>482.5</ele><time>2026-04-03T09:31:49Z</time></trkpt><trkpt lat="43.869103466312154" lon="11.257140854143074"><ele>485.0</ele><time>2026-04-03T09:31:50Z</time></trkpt><trkpt lat="43.86922090670954" lon="11.257156735190579"><ele>487.50000000000006</ele><time>2026-04-03T09:31:52Z</time></trkpt><trkpt lat="43.8692873569986" lon="11.257167824604219"><ele>490.0</ele><time>2026-04-03T09:31:53Z</time></trkpt><trkpt lat="43.86935571980962" lon="11.25717550318125"><ele>491.50000000000006</ele><time>2026-04-03T09:31:54Z</time></trkpt><trkpt lat="43.86942419079617" lon="11.257164969949429"><ele>493.0</ele><time>2026-04-03T09:31:55Z</time></trkpt><trkpt lat="43.869485399186246" lon="11.257129983566918"><ele>494.5</ele><time>2026-04-03T09:31:56Z</time></trkpt><trkpt lat="43.86960714114581" lon="11.257082837562079"><ele>496.0</ele><time>2026-04-03T09:31:58Z</time></trkpt><trkpt lat="43.86967972926218" lon="11.25706719842353"><ele>497.50000000000006</ele><time>2026-04-03T09:31:59Z</time></trkpt><trkpt lat="43.86974370091" lon="11.257067017664232"><ele>499.0</ele><time>2026-04-03T09:32:00Z</time></trkpt><trkpt lat="43.86988471388735" lon="11.257089029340593"><ele>499.00000000000006</ele><time>2026-04-03T09:32:02Z</time></trkpt><trkpt lat="43.86995837739665" lon="11.257117303579331"><ele>499.0</ele><time>2026-04-03T09:32:03Z</time></trkpt><trkpt lat="43.870031210668884" lon="11.257108230612051"><ele>499.0</ele><time>2026-04-03T09:32:04Z</time></trkpt><trkpt lat="43.87011718665503" lon="11.257080882405303"><ele>499.0</ele><time>2026-04-03T09:32:05Z</time></trkpt><trkpt lat="43.870189126462975" lon="11.257014154389699"><ele>499.00000000000006</ele><time>2026-04-03T09:32:06Z</time></trkpt><trkpt lat="43.87024338301329" lon="11.25693396741633"><ele>499.0</ele><time>2026-04-03T09:32:07Z</time></trkpt><trkpt lat="43.870265765909735" lon="11.256848813748702"><ele>499.00000000000006</ele><time>2026-04-03T09:32:08Z</time></trkpt><trkpt lat="43.870301438837956" lon="11.2567512769872"><ele>499.0</ele><time>2026-04-03T09:32:09Z</time></trkpt><trkpt lat="43.87032910330928" lon="11.256657638891884"><ele>499.0</ele><time>2026-04-03T09:32:10Z</time></trkpt><trkpt lat="43.87035938148173" lon="11.256555409177238"><ele>499.0</ele><time>2026-04-03T09:32:11Z</time></trkpt><trkpt lat="43.87040809179927" lon="11.256445306726507"><ele>499.00000000000006</ele><time>2026-04-03T09:32:12Z</time></trkpt><trkpt lat="43.870506491897416" lon="11.256424416247103"><ele>499.0</ele><time>2026-04-03T09:32:14Z</time></trkpt><trkpt lat="43.87057918642576" lon="11.256386617194906"><ele>500.00000000000006</ele><time>2026-04-03T09:32:15Z</time></trkpt><trkpt lat="43.87067491719145" lon="11.256372806742764"><ele>501.0</ele><time>2026-04-03T09:32:16Z</time></trkpt><trkpt lat="43.870768255834314" lon="11.256348330985178"><ele>502.0</ele><time>2026-04-03T09:32:17Z</time></trkpt><trkpt lat="43.87084429517408" lon="11.256320996572722"><ele>503.0</ele><time>2026-04-03T09:32:18Z</time></trkpt><trkpt lat="43.87091223649409" lon="11.256292752939938"><ele>504.00000000000006</ele><time>2026-04-03T09:32:19Z</time></trkpt><trkpt lat="43.87099228884483" lon="11.256293607355268"><ele>505.0</ele><time>2026-04-03T09:32:20Z</time></trkpt><trkpt lat="43.87106643200018" lon="11.256303311648526"><ele>505.00000000000006</ele><time>2026-04-03T09:32:21Z</time></trkpt><trkpt lat="43.87113614505898" lon="11.256307157491035"><ele>505.0</ele><time>2026-04-03T09:32:22Z</time></trkpt><trkpt lat="43.871252292668196" lon="11.256311388639434"><ele>505.0</ele><time>2026-04-03T09:32:24Z</time></trkpt><trkpt lat="43.87133012525344" lon="11.256332608096212"><ele>505.0</ele><time>2026-04-03T09:32:26Z</time></trkpt><trkpt lat="43.87139174292302" lon="11.25639168712117"><ele>505.00000000000006</ele><time>2026-04-03T09:32:29Z</time></trkpt><trkpt lat="43.871403461764615" lon="11.256534229936774"><ele>505.0</ele><time>2026-04-03T09:32:33Z</time></trkpt><trkpt lat="43.871406072476134" lon="11.256624686061931"><ele>502.8</ele><time>2026-04-03T09:32:34Z</time></trkpt><trkpt lat="43.871446699328246" lon="11.256794925082904"><ele>500.6</ele><time>2026-04-03T09:32:36Z</time></trkpt><trkpt lat="43.87149101883166" lon="11.256937834532039"><ele>498.4</ele><time>2026-04-03T09:32:38Z</time></trkpt><trkpt lat="43.87152593511455" lon="11.257069739939798"><ele>496.2</ele><time>2026-04-03T09:32:40Z</time></trkpt><trkpt lat="43.871555175017654" lon="11.257188436990646"><ele>494.0</ele><time>2026-04-03T09:32:42Z</time></trkpt><trkpt lat="43.8715631510549" lon="11.257309717839854"><ele>491.4</ele><time>2026-04-03T09:32:45Z</time></trkpt><trkpt lat="43.87155107715789" lon="11.257416216957845"><ele>488.79999999999995</ele><time>2026-04-03T09:32:47Z</time></trkpt><trkpt lat="43.87152043038467" lon="11.257502238134645"><ele>486.20000000000005</ele><time>2026-04-03T09:32:49Z</time></trkpt><trkpt lat="43.87148909142148" lon="11.257609001231062"><ele>483.6</ele><time>2026-04-03T09:32:51Z</time></trkpt><trkpt lat="43.87146687863083" lon="11.257760379479533"><ele>481.0</ele><time>2026-04-03T09:32:53Z</time></trkpt><trkpt lat="43.87144852860285" lon="11.257912105491418"><ele>481.00000000000006</ele><time>2026-04-03T09:32:55Z</time></trkpt><trkpt lat="43.8714378150049" lon="11.258003853052681"><ele>481.0</ele><time>2026-04-03T09:32:56Z</time></trkpt><trkpt lat="43.8714295729461" lon="11.258115858597263"><ele>481.0</ele><time>2026-04-03T09:32:57Z</time></trkpt><trkpt lat="43.871429651032386" lon="11.258208371182647"><ele>481.0</ele><time>2026-04-03T09:32:58Z</time></trkpt><trkpt lat="43.87143397605796" lon="11.258295718750002"><ele>481.00000000000006</ele><time>2026-04-03T09:32:59Z</time></trkpt><trkpt lat="43.87143900573968" lon="11.258447214652602"><ele>481.0</ele><time>2026-04-03T09:33:01Z</time></trkpt><trkpt lat="43.871451192153195" lon="11.2585373884707"><ele>479.33333333333337</ele><time>2026-04-03T09:33:02Z</time></trkpt><trkpt lat="43.871472301784735" lon="11.258625512588143"><ele>477.6666666666667</ele><time>2026-04-03T09:33:03Z</time></trkpt><trkpt lat="43.87149714509985" lon="11.25870586584892"><ele>476.0</ele><time>2026-04-03T09:33:04Z</time></trkpt><trkpt lat="43.871566285018105" lon="11.258799345924857"><ele>474.33333333333337</ele><time>2026-04-03T09:33:06Z</time></trkpt><trkpt lat="43.87164494175674" lon="11.258712829367441"><ele>472.6666666666667</ele><time>2026-04-03T09:33:08Z</time></trkpt><trkpt lat="43.8716401239231" lon="11.258581466015634"><ele>471.0</ele><time>2026-04-03T09:33:10Z</time></trkpt><trkpt lat="43.87165520529919" lon="11.258434110234633"><ele>471.0</ele><time>2026-04-03T09:33:12Z</time></trkpt><trkpt lat="43.871713818492715" lon="11.258299863432514"><ele>471.0</ele><time>2026-04-03T09:33:14Z</time></trkpt><trkpt lat="43.871770313757246" lon="11.258169101362345"><ele>471.0</ele><time>2026-04-03T09:33:16Z</time></trkpt><trkpt lat="43.87182231906687" lon="11.25803988973229"><ele>471.0</ele><time>2026-04-03T09:33:18Z</time></trkpt><trkpt lat="43.871880294008655" lon="11.257924253428426"><ele>471.0</ele><time>2026-04-03T09:33:20Z</time></trkpt><trkpt lat="43.871952111514176" lon="11.25785918029309"><ele>468.6</ele><time>2026-04-03T09:33:22Z</time></trkpt><trkpt lat="43.87206323660072" lon="11.257880721850958"><ele>466.20000000000005</ele><time>2026-04-03T09:33:24Z</time></trkpt><trkpt lat="43.87212402726716" lon="11.257928786907598"><ele>463.79999999999995</ele><time>2026-04-03T09:33:25Z</time></trkpt><trkpt lat="43.87222450513489" lon="11.258033049769935"><ele>461.4</ele><time>2026-04-03T09:33:27Z</time></trkpt><trkpt lat="43.872303329176376" lon="11.258154027990834"><ele>459.0</ele><time>2026-04-03T09:33:29Z</time></trkpt><trkpt lat="43.87235636803804" lon="11.258298527905259"><ele>458.4</ele><time>2026-04-03T09:33:31Z</time></trkpt><trkpt lat="43.87241884056264" lon="11.258438309721784"><ele>457.79999999999995</ele><time>2026-04-03T09:33:33Z</time></trkpt><trkpt lat="43.87248050047286" lon="11.258587612904353"><ele>457.20000000000005</ele><time>2026-04-03T09:33:35Z</time></trkpt><trkpt lat="43.87256174286845" lon="11.258715745385338"><ele>456.6</ele><time>2026-04-03T09:33:37Z</time></trkpt><trkpt lat="43.872603485417685" lon="11.258785473614223"><ele>456.0</ele><time>2026-04-03T09:33:38Z</time></trkpt><trkpt lat="43.87262844243357" lon="11.258868221421114"><ele>451.0</ele><time>2026-04-03T09:33:39Z</time></trkpt><trkpt lat="43.872662786868766" lon="11.259040068834516"><ele>446.0</ele><time>2026-04-03T09:33:41Z</time></trkpt><trkpt lat="43.87270131474476" lon="11.259197042310939"><ele>441.0</ele><time>2026-04-03T09:33:43Z</time></trkpt><trkpt lat="43.872714767829024" lon="11.259364159297839"><ele>436.0</ele><time>2026-04-03T09:33:45Z</time></trkpt><trkpt lat="43.87274221843511" lon="11.259534751365141"><ele>436.0</ele><time>2026-04-03T09:33:47Z</time></trkpt><trkpt lat="43.872775039968985" lon="11.259698882569333"><ele>436.0</ele><time>2026-04-03T09:33:49Z</time></trkpt><trkpt lat="43.87279602068217" lon="11.259785321555428"><ele>436.0</ele><time>2026-04-03T09:33:50Z</time></trkpt><trkpt lat="43.87284586588905" lon="11.259930184895138"><ele>436.0</ele><time>2026-04-03T09:33:52Z</time></trkpt><trkpt lat="43.872908195498475" lon="11.260068305488536"><ele>436.0</ele><time>2026-04-03T09:33:54Z</time></trkpt><trkpt lat="43.87293990652107" lon="11.260235072684738"><ele>434.83333333333337</ele><time>2026-04-03T09:33:56Z</time></trkpt><trkpt lat="43.87295598402852" lon="11.260398742254601"><ele>433.6666666666667</ele><time>2026-04-03T09:33:58Z</time></trkpt><trkpt lat="43.87296305197477" lon="11.260569598471006"><ele>432.5</ele><time>2026-04-03T09:34:00Z</time></trkpt><trkpt lat="43.87296527094265" lon="11.260658471310654"><ele>431.33333333333337</ele><time>2026-04-03T09:34:01Z</time></trkpt><trkpt lat="43.872974377487644" lon="11.26074665251865"><ele>430.1666666666667</ele><time>2026-04-03T09:34:02Z</time></trkpt><trkpt lat="43.872998259787465" lon="11.260834848203796"><ele>429.0</ele><time>2026-04-03T09:34:03Z</time></trkpt><trkpt lat="43.87297395345814" lon="11.26095380793116"><ele>428.8571428571429</ele><time>2026-04-03T09:34:04Z</time></trkpt><trkpt lat="43.87307322883422" lon="11.26097396590531"><ele>428.7142857142857</ele><time>2026-04-03T09:34:05Z</time></trkpt><trkpt lat="43.87311560361141" lon="11.261045219026201"><ele>428.57142857142856</ele><time>2026-04-03T09:34:06Z</time></trkpt><trkpt lat="43.87315110485808" lon="11.26112072568309"><ele>428.42857142857144</ele><time>2026-04-03T09:34:07Z</time></trkpt><trkpt lat="43.873189244223425" lon="11.26119712070755"><ele>428.2857142857143</ele><time>2026-04-03T09:34:08Z</time></trkpt><trkpt lat="43.873232098910194" lon="11.261262144463398"><ele>428.14285714285717</ele><time>2026-04-03T09:34:09Z</time></trkpt><trkpt lat="43.873276200976726" lon="11.261329443452947"><ele>428.0</ele><time>2026-04-03T09:34:10Z</time></trkpt><trkpt lat="43.87336092383314" lon="11.26144980420369"><ele>428.7142857142857</ele><time>2026-04-03T09:34:12Z</time></trkpt><trkpt lat="43.87340649936037" lon="11.261519003421789"><ele>429.42857142857144</ele><time>2026-04-03T09:34:13Z</time></trkpt><trkpt lat="43.87344577782043" lon="11.261589560827892"><ele>430.1428571428571</ele><time>2026-04-03T09:34:14Z</time></trkpt><trkpt lat="43.87348212554977" lon="11.26167322540642"><ele>430.8571428571429</ele><time>2026-04-03T09:34:15Z</time></trkpt><trkpt lat="43.87352898483202" lon="11.261743423982876"><ele>431.57142857142856</ele><time>2026-04-03T09:34:16Z</time></trkpt><trkpt lat="43.87356454068343" lon="11.261816285268797"><ele>432.2857142857143</ele><time>2026-04-03T09:34:17Z</time></trkpt><trkpt lat="43.87363113401694" lon="11.261941833560252"><ele>433.0</ele><time>2026-04-03T09:34:19Z</time></trkpt><trkpt lat="43.87370179592077" lon="11.26196931139855"><ele>427.59999999999997</ele><time>2026-04-03T09:34:21Z</time></trkpt><trkpt lat="43.873767285739525" lon="11.261886861315844"><ele>422.19999999999993</ele><time>2026-04-03T09:34:23Z</time></trkpt><trkpt lat="43.8737903151297" lon="11.261729987219372"><ele>416.8</ele><time>2026-04-03T09:34:25Z</time></trkpt><trkpt lat="43.87375762634103" lon="11.261638127388641"><ele>411.4</ele><time>2026-04-03T09:34:26Z</time></trkpt><trkpt lat="43.87371434455189" lon="11.261562051462002"><ele>406.0</ele><time>2026-04-03T09:34:27Z</time></trkpt><trkpt lat="43.87363054781198" lon="11.261427639409067"><ele>406.0</ele><time>2026-04-03T09:34:29Z</time></trkpt><trkpt lat="43.8735954967118" lon="11.2613518904694"><ele>406.0</ele><time>2026-04-03T09:34:30Z</time></trkpt><trkpt lat="43.87356176247686" lon="11.261260501383749"><ele>406.0</ele><time>2026-04-03T09:34:31Z</time></trkpt><trkpt lat="43.873530778786204" lon="11.261173920802966"><ele>406.0</ele><time>2026-04-03T09:34:32Z</time></trkpt><trkpt lat="43.87350613885559" lon="11.261090138859213"><ele>406.0</ele><time>2026-04-03T09:34:33Z</time></trkpt><trkpt lat="43.87348361312833" lon="11.261006023840515"><ele>406.0</ele><time>2026-04-03T09:34:34Z</time></trkpt><trkpt lat="43.87347698671697" lon="11.26090958108885"><ele>406.0</ele><time>2026-04-03T09:34:35Z</time></trkpt><trkpt lat="43.873467196388376" lon="11.260814555560707"><ele>406.00000000000006</ele><time>2026-04-03T09:34:36Z</time></trkpt><trkpt lat="43.873456787765875" lon="11.260719091577247"><ele>406.0</ele><time>2026-04-03T09:34:37Z</time></trkpt><trkpt lat="43.87351009329032" lon="11.260587009785551"><ele>406.0</ele><time>2026-04-03T09:34:39Z</time></trkpt><trkpt lat="43.873563428366374" lon="11.260517855132205"><ele>406.0</ele><time>2026-04-03T09:34:40Z</time></trkpt><trkpt lat="43.87361642003186" lon="11.260461150934216"><ele>406.00000000000006</ele><time>2026-04-03T09:34:41Z</time></trkpt><trkpt lat="43.87369853994428" lon="11.260389037621133"><ele>406.0</ele><time>2026-04-03T09:34:43Z</time></trkpt><trkpt lat="43.8737718888553" lon="11.260440955915378"><ele>406.0</ele><time>2026-04-03T09:34:46Z</time></trkpt><trkpt lat="43.873782706963986" lon="11.260574230509189"><ele>406.0</ele><time>2026-04-03T09:34:48Z</time></trkpt><trkpt lat="43.873739217192295" lon="11.260718986619136"><ele>406.0</ele><time>2026-04-03T09:34:50Z</time></trkpt><trkpt lat="43.873679516329275" lon="11.260841616870813"><ele>406.0</ele><time>2026-04-03T09:34:52Z</time></trkpt><trkpt lat="43.87370077717589" lon="11.260992755756497"><ele>406.0</ele><time>2026-04-03T09:34:54Z</time></trkpt><trkpt lat="43.87378229203747" lon="11.261059005821107"><ele>406.00000000000006</ele><time>2026-04-03T09:34:56Z</time></trkpt><trkpt lat="43.873896662456076" lon="11.261022337881318"><ele>406.0</ele><time>2026-04-03T09:34:58Z</time></trkpt><trkpt lat="43.8739486144013" lon="11.260966750536712"><ele>406.0</ele><time>2026-04-03T09:34:59Z</time></trkpt><trkpt lat="43.873995944979114" lon="11.26089077046445"><ele>406.0</ele><time>2026-04-03T09:35:01Z</time></trkpt><trkpt lat="43.87403627183578" lon="11.26081841318911"><ele>406.00000000000006</ele><time>2026-04-03T09:35:04Z</time></trkpt><trkpt lat="43.87410858183221" lon="11.26070664785645"><ele>406.0</ele><time>2026-04-03T09:35:06Z</time></trkpt><trkpt lat="43.874216600841294" lon="11.260664884868522"><ele>409.83333333333337</ele><time>2026-04-03T09:35:08Z</time></trkpt><trkpt lat="43.87430000661349" lon="11.26071645361913"><ele>413.6666666666667</ele><time>2026-04-03T09:35:10Z</time></trkpt><trkpt lat="43.87435474273955" lon="11.26078179047922"><ele>417.5</ele><time>2026-04-03T09:35:11Z</time></trkpt><trkpt lat="43.874406887148936" lon="11.260885798539777"><ele>421.33333333333337</ele><time>2026-04-03T09:35:12Z</time></trkpt><trkpt lat="43.874448791004454" lon="11.260976579037287"><ele>425.1666666666667</ele><time>2026-04-03T09:35:13Z</time></trkpt><trkpt lat="43.87451844034749" lon="11.261104547532224"><ele>429.0</ele><time>2026-04-03T09:35:14Z</time></trkpt><trkpt lat="43.87459220484029" lon="11.26122337899303"><ele>429.0</ele><time>2026-04-03T09:35:15Z</time></trkpt><trkpt lat="43.87466078099307" lon="11.261374087876511"><ele>429.0</ele><time>2026-04-03T09:35:17Z</time></trkpt><trkpt lat="43.87468482474285" lon="11.261489111763941"><ele>429.0</ele><time>2026-04-03T09:35:18Z</time></trkpt><trkpt lat="43.87472086545731" lon="11.261596068847373"><ele>429.0</ele><time>2026-04-03T09:35:19Z</time></trkpt><trkpt lat="43.874752569563356" lon="11.261705212405664"><ele>429.0</ele><time>2026-04-03T09:35:20Z</time></trkpt><trkpt lat="43.87477979142917" lon="11.261805897933975"><ele>422.25</ele><time>2026-04-03T09:35:21Z</time></trkpt><trkpt lat="43.87484567155579" lon="11.261956542721377"><ele>415.5</ele><time>2026-04-03T09:35:23Z</time></trkpt><trkpt lat="43.87493047525625" lon="11.262071495893487"><ele>408.75</ele><time>2026-04-03T09:35:25Z</time></trkpt><trkpt lat="43.875012036742945" lon="11.262079970500952"><ele>402.0</ele><time>2026-04-03T09:35:27Z</time></trkpt><trkpt lat="43.87514908690869" lon="11.26214761103528"><ele>401.5</ele><time>2026-04-03T09:35:29Z</time></trkpt><trkpt lat="43.87522440006786" lon="11.262128028339799"><ele>401.0</ele><time>2026-04-03T09:35:30Z</time></trkpt><trkpt lat="43.8753064010175" lon="11.26211869908384"><ele>400.5</ele><time>2026-04-03T09:35:31Z</time></trkpt><trkpt lat="43.8753845968066" lon="11.262126180656326"><ele>400.0</ele><time>2026-04-03T09:35:32Z</time></trkpt><trkpt lat="43.87545706013011" lon="11.262144450451093"><ele>399.5</ele><time>2026-04-03T09:35:33Z</time></trkpt><trkpt lat="43.87552998923113" lon="11.262150572456546"><ele>399.0</ele><time>2026-04-03T09:35:34Z</time></trkpt><trkpt lat="43.8756022697665" lon="11.262139858292041"><ele>399.0</ele><time>2026-04-03T09:35:35Z</time></trkpt><trkpt lat="43.87567338929644" lon="11.262123754648245"><ele>399.0</ele><time>2026-04-03T09:35:36Z</time></trkpt><trkpt lat="43.8757438671093" lon="11.26209297626956"><ele>399.0</ele><time>2026-04-03T09:35:37Z</time></trkpt><trkpt lat="43.87581096745591" lon="11.262074538467418"><ele>399.0</ele><time>2026-04-03T09:35:38Z</time></trkpt><trkpt lat="43.87587860495974" lon="11.262057343211445"><ele>399.0</ele><time>2026-04-03T09:35:39Z</time></trkpt><trkpt lat="43.87594336700275" lon="11.262030907504432"><ele>399.0</ele><time>2026-04-03T09:35:40Z</time></trkpt><trkpt lat="43.87601125044669" lon="11.26198690812268"><ele>399.0</ele><time>2026-04-03T09:35:41Z</time></trkpt><trkpt lat="43.87607004829732" lon="11.261923566150363"><ele>397.57142857142856</ele><time>2026-04-03T09:35:42Z</time></trkpt><trkpt lat="43.87611840080433" lon="11.261850831111925"><ele>396.1428571428571</ele><time>2026-04-03T09:35:43Z</time></trkpt><trkpt lat="43.87617027140555" lon="11.261799000268446"><ele>394.7142857142857</ele><time>2026-04-03T09:35:44Z</time></trkpt><trkpt lat="43.876236822667266" lon="11.261757333183544"><ele>393.2857142857143</ele><time>2026-04-03T09:35:45Z</time></trkpt><trkpt lat="43.87630222138556" lon="11.261736104251087"><ele>391.85714285714283</ele><time>2026-04-03T09:35:46Z</time></trkpt><trkpt lat="43.87637105793014" lon="11.26174447682564"><ele>390.42857142857144</ele><time>2026-04-03T09:35:47Z</time></trkpt><trkpt lat="43.87643691845037" lon="11.261747129402355"><ele>389.0</ele><time>2026-04-03T09:35:48Z</time></trkpt><trkpt lat="43.876505587141494" lon="11.261730319207409"><ele>389.0</ele><time>2026-04-03T09:35:49Z</time></trkpt><trkpt lat="43.876570388864664" lon="11.26171931699984"><ele>389.0</ele><time>2026-04-03T09:35:50Z</time></trkpt><trkpt lat="43.876685076517816" lon="11.261724785500943"><ele>389.0</ele><time>2026-04-03T09:35:52Z</time></trkpt><trkpt lat="43.876797920514456" lon="11.26175766751143"><ele>389.0</ele><time>2026-04-03T09:35:54Z</time></trkpt><trkpt lat="43.87688697218414" lon="11.261769227006779"><ele>389.0</ele><time>2026-04-03T09:35:55Z</time></trkpt><trkpt lat="43.8769533675053" lon="11.26178094710303"><ele>388.3333333333333</ele><time>2026-04-03T09:35:56Z</time></trkpt><trkpt lat="43.877018599836276" lon="11.261807813991782"><ele>387.66666666666663</ele><time>2026-04-03T09:35:57Z</time></trkpt><trkpt lat="43.8770852533095" lon="11.261818554724254"><ele>387.0</ele><time>2026-04-03T09:35:58Z</time></trkpt><trkpt lat="43.877173041139784" lon="11.26182977838894"><ele>386.33333333333337</ele><time>2026-04-03T09:35:59Z</time></trkpt><trkpt lat="43.87726546788413" lon="11.261820408186367"><ele>385.6666666666667</ele><time>2026-04-03T09:36:00Z</time></trkpt><trkpt lat="43.877380405757826" lon="11.261819115867763"><ele>385.0</ele><time>2026-04-03T09:36:01Z</time></trkpt><trkpt lat="43.877494522464865" lon="11.261811190288103"><ele>386.25</ele><time>2026-04-03T09:36:02Z</time></trkpt><trkpt lat="43.87761533226433" lon="11.261783748780582"><ele>387.5</ele><time>2026-04-03T09:36:03Z</time></trkpt><trkpt lat="43.87774265901152" lon="11.26178709608116"><ele>388.75</ele><time>2026-04-03T09:36:04Z</time></trkpt><trkpt lat="43.877860932951485" lon="11.261811928722228"><ele>390.0</ele><time>2026-04-03T09:36:06Z</time></trkpt><trkpt lat="43.87796683873279" lon="11.26183125185923"><ele>390.0</ele><time>2026-04-03T09:36:07Z</time></trkpt><trkpt lat="43.87805052618308" lon="11.261858268250654"><ele>390.0</ele><time>2026-04-03T09:36:08Z</time></trkpt><trkpt lat="43.87812612059781" lon="11.261891090799718"><ele>390.0</ele><time>2026-04-03T09:36:09Z</time></trkpt><trkpt lat="43.878214664565974" lon="11.261927441377003"><ele>390.0</ele><time>2026-04-03T09:36:10Z</time></trkpt><trkpt lat="43.878291212270206" lon="11.261963852557793"><ele>390.0</ele><time>2026-04-03T09:36:11Z</time></trkpt><trkpt lat="43.87837437069842" lon="11.261993258508888"><ele>390.0</ele><time>2026-04-03T09:36:12Z</time></trkpt><trkpt lat="43.87844694784754" lon="11.262036087933314"><ele>392.4</ele><time>2026-04-03T09:36:13Z</time></trkpt><trkpt lat="43.87851796838702" lon="11.26208221260565"><ele>394.8</ele><time>2026-04-03T09:36:14Z</time></trkpt><trkpt lat="43.87858848380356" lon="11.262126344815524"><ele>397.20000000000005</ele><time>2026-04-03T09:36:15Z</time></trkpt><trkpt lat="43.87866785265549" lon="11.26217665559474"><ele>399.6</ele><time>2026-04-03T09:36:16Z</time></trkpt><trkpt lat="43.87879501002052" lon="11.262249646350467"><ele>402.0</ele><time>2026-04-03T09:36:18Z</time></trkpt><trkpt lat="43.87886766893034" lon="11.262276118398697"><ele>398.0</ele><time>2026-04-03T09:36:19Z</time></trkpt><trkpt lat="43.87894179979096" lon="11.262293522857785"><ele>394.0</ele><time>2026-04-03T09:36:20Z</time></trkpt><trkpt lat="43.879020055374205" lon="11.26230480665407"><ele>390.0</ele><time>2026-04-03T09:36:21Z</time></trkpt><trkpt lat="43.879116163162884" lon="11.26231998313312"><ele>386.0</ele><time>2026-04-03T09:36:22Z</time></trkpt><trkpt lat="43.879231585872" lon="11.2623264563751"><ele>382.0</ele><time>2026-04-03T09:36:24Z</time></trkpt><trkpt lat="43.87930631480846" lon="11.262319917810581"><ele>378.0</ele><time>2026-04-03T09:36:25Z</time></trkpt><trkpt lat="43.879380367282934" lon="11.262321854275807"><ele>378.0</ele><time>2026-04-03T09:36:26Z</time></trkpt><trkpt lat="43.87946423215673" lon="11.262352607514678"><ele>378.0</ele><time>2026-04-03T09:36:27Z</time></trkpt><trkpt lat="43.87954671132783" lon="11.262391988366542"><ele>378.0</ele><time>2026-04-03T09:36:28Z</time></trkpt><trkpt lat="43.8796298250275" lon="11.262430747138636"><ele>378.0</ele><time>2026-04-03T09:36:29Z</time></trkpt><trkpt lat="43.879715446718365" lon="11.26245887225826"><ele>378.0</ele><time>2026-04-03T09:36:30Z</time></trkpt><trkpt lat="43.879797782200846" lon="11.262491634711692"><ele>378.0</ele><time>2026-04-03T09:36:31Z</time></trkpt><trkpt lat="43.87987066624531" lon="11.262532839621242"><ele>378.0</ele><time>2026-04-03T09:36:32Z</time></trkpt><trkpt lat="43.87994572805052" lon="11.262587655248971"><ele>378.0</ele><time>2026-04-03T09:36:33Z</time></trkpt><trkpt lat="43.88001351811972" lon="11.262643977397"><ele>378.0</ele><time>2026-04-03T09:36:34Z</time></trkpt><trkpt lat="43.88007389157484" lon="11.262692651480952"><ele>378.0</ele><time>2026-04-03T09:36:35Z</time></trkpt><trkpt lat="43.88012998544677" lon="11.262736737052558"><ele>378.0</ele><time>2026-04-03T09:36:36Z</time></trkpt><trkpt lat="43.88018489755808" lon="11.262781319347694"><ele>378.0</ele><time>2026-04-03T09:36:37Z</time></trkpt><trkpt lat="43.88024018323367" lon="11.262828286682167"><ele>378.0</ele><time>2026-04-03T09:36:38Z</time></trkpt><trkpt lat="43.8803035573299" lon="11.262853118895503"><ele>378.57142857142856</ele><time>2026-04-03T09:36:39Z</time></trkpt><trkpt lat="43.88036937356195" lon="11.262864651004362"><ele>379.1428571428571</ele><time>2026-04-03T09:36:40Z</time></trkpt><trkpt lat="43.880442057313594" lon="11.262850847284279"><ele>379.7142857142857</ele><time>2026-04-03T09:36:41Z</time></trkpt><trkpt lat="43.88051852690989" lon="11.262832560363174"><ele>380.2857142857143</ele><time>2026-04-03T09:36:42Z</time></trkpt><trkpt lat="43.880588881604034" lon="11.262822258130752"><ele>380.85714285714283</ele><time>2026-04-03T09:36:43Z</time></trkpt><trkpt lat="43.88067636711673" lon="11.26282724139032"><ele>381.42857142857144</ele><time>2026-04-03T09:36:44Z</time></trkpt><trkpt lat="43.88074229476077" lon="11.262834905710529"><ele>382.0</ele><time>2026-04-03T09:36:45Z</time></trkpt><trkpt lat="43.88080497792046" lon="11.262860049259192"><ele>382.0</ele><time>2026-04-03T09:36:46Z</time></trkpt><trkpt lat="43.88088035588638" lon="11.262899151389073"><ele>382.0</ele><time>2026-04-03T09:36:47Z</time></trkpt><trkpt lat="43.88094618199972" lon="11.2629468581667"><ele>382.0</ele><time>2026-04-03T09:36:48Z</time></trkpt><trkpt lat="43.88100677758715" lon="11.263002987880615"><ele>382.0</ele><time>2026-04-03T09:36:49Z</time></trkpt><trkpt lat="43.88106537232954" lon="11.26304473922893"><ele>382.0</ele><time>2026-04-03T09:36:50Z</time></trkpt><trkpt lat="43.88112629460173" lon="11.263070936402537"><ele>382.0</ele><time>2026-04-03T09:36:51Z</time></trkpt><trkpt lat="43.881198243788255" lon="11.263077830410907"><ele>382.0</ele><time>2026-04-03T09:36:52Z</time></trkpt><trkpt lat="43.88127786366434" lon="11.26307705046468"><ele>383.20000000000005</ele><time>2026-04-03T09:36:53Z</time></trkpt><trkpt lat="43.88136470693459" lon="11.263083683631093"><ele>384.4</ele><time>2026-04-03T09:36:54Z</time></trkpt><trkpt lat="43.88144950239346" lon="11.263090316354022"><ele>385.6</ele><time>2026-04-03T09:36:55Z</time></trkpt><trkpt lat="43.88156399384187" lon="11.263088690580988"><ele>386.79999999999995</ele><time>2026-04-03T09:36:57Z</time></trkpt><trkpt lat="43.88163097394808" lon="11.2630761776863"><ele>388.0</ele><time>2026-04-03T09:36:58Z</time></trkpt><trkpt lat="43.881739369771296" lon="11.263127206865626"><ele>389.0</ele><time>2026-04-03T09:37:00Z</time></trkpt><trkpt lat="43.881800977714114" lon="11.263188300022376"><ele>390.0</ele><time>2026-04-03T09:37:01Z</time></trkpt><trkpt lat="43.881854946364314" lon="11.263273500646717"><ele>391.0</ele><time>2026-04-03T09:37:02Z</time></trkpt><trkpt lat="43.8819200778376" lon="11.263361114919467"><ele>392.0</ele><time>2026-04-03T09:37:03Z</time></trkpt><trkpt lat="43.881958883272446" lon="11.26344265068109"><ele>393.0</ele><time>2026-04-03T09:37:04Z</time></trkpt><trkpt lat="43.88207246311848" lon="11.263587999894353"><ele>393.0</ele><time>2026-04-03T09:37:06Z</time></trkpt><trkpt lat="43.88216889006798" lon="11.26367525978533"><ele>393.0</ele><time>2026-04-03T09:37:07Z</time></trkpt><trkpt lat="43.882250979983674" lon="11.263766076252685"><ele>393.0</ele><time>2026-04-03T09:37:09Z</time></trkpt><trkpt lat="43.8824634085903" lon="11.26392461079182"><ele>387.25</ele><time>2026-04-03T09:37:11Z</time></trkpt><trkpt lat="43.88258795535302" lon="11.263993114068022"><ele>381.5</ele><time>2026-04-03T09:37:12Z</time></trkpt><trkpt lat="43.88270995795373" lon="11.264056690293776"><ele>375.75</ele><time>2026-04-03T09:37:13Z</time></trkpt><trkpt lat="43.88281853464495" lon="11.264105683658698"><ele>370.0</ele><time>2026-04-03T09:37:14Z</time></trkpt><trkpt lat="43.88290689718983" lon="11.264141339820382"><ele>370.0</ele><time>2026-04-03T09:37:15Z</time></trkpt><trkpt lat="43.88298738981218" lon="11.26417081254915"><ele>370.0</ele><time>2026-04-03T09:37:16Z</time></trkpt><trkpt lat="43.883066542521405" lon="11.2641978797189"><ele>370.0</ele><time>2026-04-03T09:37:17Z</time></trkpt><trkpt lat="43.883142626760495" lon="11.264250763840764"><ele>370.0</ele><time>2026-04-03T09:37:18Z</time></trkpt><trkpt lat="43.88322329230566" lon="11.26432345194012"><ele>370.0</ele><time>2026-04-03T09:37:19Z</time></trkpt><trkpt lat="43.883318486780794" lon="11.264399588381432"><ele>370.0</ele><time>2026-04-03T09:37:20Z</time></trkpt><trkpt lat="43.88341794358345" lon="11.264457063175746"><ele>370.0</ele><time>2026-04-03T09:37:21Z</time></trkpt><trkpt lat="43.88354226303894" lon="11.26448946840716"><ele>370.0</ele><time>2026-04-03T09:37:22Z</time></trkpt><trkpt lat="43.883710037792575" lon="11.26451068140129"><ele>370.0</ele><time>2026-04-03T09:37:23Z</time></trkpt><trkpt lat="43.88386533410514" lon="11.264537373742156"><ele>374.8</ele><time>2026-04-03T09:37:24Z</time></trkpt><trkpt lat="43.88398948891191" lon="11.26457661981203"><ele>379.6</ele><time>2026-04-03T09:37:25Z</time></trkpt><trkpt lat="43.88408780277746" lon="11.264612526010271"><ele>384.4</ele><time>2026-04-03T09:37:26Z</time></trkpt><trkpt lat="43.884177754502176" lon="11.264643233862843"><ele>389.2</ele><time>2026-04-03T09:37:27Z</time></trkpt><trkpt lat="43.88425389445402" lon="11.264671495208436"><ele>394.0</ele><time>2026-04-03T09:37:28Z</time></trkpt><trkpt lat="43.88434495928634" lon="11.264733928590742"><ele>387.2</ele><time>2026-04-03T09:37:29Z</time></trkpt><trkpt lat="43.884440443776484" lon="11.264802648637222"><ele>380.4</ele><time>2026-04-03T09:37:30Z</time></trkpt><trkpt lat="43.88453702041168" lon="11.26485830787754"><ele>373.6</ele><time>2026-04-03T09:37:31Z</time></trkpt><trkpt lat="43.884632676889886" lon="11.26489730516516"><ele>366.8</ele><time>2026-04-03T09:37:32Z</time></trkpt><trkpt lat="43.884759505700636" lon="11.264947476571328"><ele>360.0</ele><time>2026-04-03T09:37:33Z</time></trkpt><trkpt lat="43.88490439280764" lon="11.26498066468117"><ele>360.0</ele><time>2026-04-03T09:37:34Z</time></trkpt><trkpt lat="43.88504197990226" lon="11.265011339140372"><ele>360.0</ele><time>2026-04-03T09:37:35Z</time></trkpt><trkpt lat="43.885164829479514" lon="11.265035540072423"><ele>360.0</ele><time>2026-04-03T09:37:36Z</time></trkpt><trkpt lat="43.88524459009656" lon="11.265101994112712"><ele>360.0</ele><time>2026-04-03T09:37:37Z</time></trkpt><trkpt lat="43.885317331441044" lon="11.265160293866835"><ele>360.0</ele><time>2026-04-03T09:37:38Z</time></trkpt><trkpt lat="43.88538475950063" lon="11.265221500586948"><ele>360.8333333333333</ele><time>2026-04-03T09:37:39Z</time></trkpt><trkpt lat="43.88544168541816" lon="11.265307568965449"><ele>361.6666666666667</ele><time>2026-04-03T09:37:40Z</time></trkpt><trkpt lat="43.8854899625374" lon="11.26540532510006"><ele>362.5</ele><time>2026-04-03T09:37:41Z</time></trkpt><trkpt lat="43.88552472570685" lon="11.265490900371443"><ele>363.33333333333337</ele><time>2026-04-03T09:37:42Z</time></trkpt><trkpt lat="43.88557438780771" lon="11.265587874223426"><ele>364.1666666666667</ele><time>2026-04-03T09:37:45Z</time></trkpt><trkpt lat="43.88562866391262" lon="11.265651645974982"><ele>365.0</ele><time>2026-04-03T09:37:46Z</time></trkpt><trkpt lat="43.88568673659165" lon="11.265719429497302"><ele>360.6</ele><time>2026-04-03T09:37:47Z</time></trkpt><trkpt lat="43.88576102245277" lon="11.265804842586595"><ele>356.2</ele><time>2026-04-03T09:37:48Z</time></trkpt><trkpt lat="43.885850851579725" lon="11.26589698885927"><ele>351.79999999999995</ele><time>2026-04-03T09:37:49Z</time></trkpt><trkpt lat="43.88594115298472" lon="11.265997031414695"><ele>347.4</ele><time>2026-04-03T09:37:50Z</time></trkpt><trkpt lat="43.886029887993075" lon="11.266093078504465"><ele>343.0</ele><time>2026-04-03T09:37:51Z</time></trkpt><trkpt lat="43.886111596539976" lon="11.266184946658822"><ele>341.25</ele><time>2026-04-03T09:37:52Z</time></trkpt><trkpt lat="43.88619042846035" lon="11.266273776508685"><ele>339.5</ele><time>2026-04-03T09:37:53Z</time></trkpt><trkpt lat="43.88628307805303" lon="11.266367429357873"><ele>337.75</ele><time>2026-04-03T09:37:54Z</time></trkpt><trkpt lat="43.88639939203009" lon="11.266443487261311"><ele>336.0</ele><time>2026-04-03T09:37:55Z</time></trkpt><trkpt lat="43.88653656189719" lon="11.266512390227678"><ele>336.0</ele><time>2026-04-03T09:37:56Z</time></trkpt><trkpt lat="43.88668576628078" lon="11.266594244859657"><ele>336.0</ele><time>2026-04-03T09:37:57Z</time></trkpt><trkpt lat="43.8868401481866" lon="11.266680788625532"><ele>336.0</ele><time>2026-04-03T09:37:58Z</time></trkpt><trkpt lat="43.88698747320541" lon="11.266761013190225"><ele>336.20000000000005</ele><time>2026-04-03T09:37:59Z</time></trkpt><trkpt lat="43.88711957584665" lon="11.266841274567785"><ele>336.40000000000003</ele><time>2026-04-03T09:38:00Z</time></trkpt><trkpt lat="43.887231490479365" lon="11.266897374170512"><ele>336.6</ele><time>2026-04-03T09:38:01Z</time></trkpt><trkpt lat="43.887328049071634" lon="11.266930031851906"><ele>336.8</ele><time>2026-04-03T09:38:02Z</time></trkpt><trkpt lat="43.887403449957546" lon="11.266944940135078"><ele>337.0</ele><time>2026-04-03T09:38:03Z</time></trkpt><trkpt lat="43.8874722943091" lon="11.266944047516859"><ele>337.0</ele><time>2026-04-03T09:38:05Z</time></trkpt><trkpt lat="43.887485858389915" lon="11.26684815523599"><ele>337.0</ele><time>2026-04-03T09:38:10Z</time></trkpt><trkpt lat="43.88745056188628" lon="11.266680467049856"><ele>337.0</ele><time>2026-04-03T09:38:12Z</time></trkpt><trkpt lat="43.88743529633113" lon="11.266576650925215"><ele>337.0</ele><time>2026-04-03T09:38:13Z</time></trkpt><trkpt lat="43.88741248727536" lon="11.266461928540393"><ele>337.0</ele><time>2026-04-03T09:38:14Z</time></trkpt><trkpt lat="43.887371145764426" lon="11.266344524274084"><ele>338.0</ele><time>2026-04-03T09:38:15Z</time></trkpt><trkpt lat="43.887321440772084" lon="11.266217534788051"><ele>339.0</ele><time>2026-04-03T09:38:16Z</time></trkpt><trkpt lat="43.88728010637219" lon="11.266094037749859"><ele>340.0</ele><time>2026-04-03T09:38:17Z</time></trkpt><trkpt lat="43.88724042890811" lon="11.26596633854355"><ele>341.0</ele><time>2026-04-03T09:38:18Z</time></trkpt><trkpt lat="43.88719982757215" lon="11.265845710849273"><ele>342.0</ele><time>2026-04-03T09:38:19Z</time></trkpt><trkpt lat="43.887153019974136" lon="11.265728376482064"><ele>343.6</ele><time>2026-04-03T09:38:20Z</time></trkpt><trkpt lat="43.88710483237184" lon="11.265611478762107"><ele>345.20000000000005</ele><time>2026-04-03T09:38:21Z</time></trkpt><trkpt lat="43.887065134629204" lon="11.26549354597038"><ele>346.8</ele><time>2026-04-03T09:38:22Z</time></trkpt><trkpt lat="43.887038495771456" lon="11.265366137064103"><ele>348.4</ele><time>2026-04-03T09:38:23Z</time></trkpt><trkpt lat="43.88702642568709" lon="11.265238618872411"><ele>350.0</ele><time>2026-04-03T09:38:24Z</time></trkpt><trkpt lat="43.88702397336598" lon="11.265113195670821"><ele>350.0</ele><time>2026-04-03T09:38:25Z</time></trkpt><trkpt lat="43.887023229657764" lon="11.265016900200822"><ele>350.0</ele><time>2026-04-03T09:38:26Z</time></trkpt><trkpt lat="43.88703575137101" lon="11.264872960850388"><ele>350.0</ele><time>2026-04-03T09:38:28Z</time></trkpt><trkpt lat="43.88705437095133" lon="11.264747941959698"><ele>350.0</ele><time>2026-04-03T09:38:30Z</time></trkpt><trkpt lat="43.88706516531887" lon="11.264644735145861"><ele>350.0</ele><time>2026-04-03T09:38:32Z</time></trkpt><trkpt lat="43.88708321957697" lon="11.264474862339632"><ele>352.0</ele><time>2026-04-03T09:38:34Z</time></trkpt><trkpt lat="43.887096854168334" lon="11.26436770080891"><ele>354.0</ele><time>2026-04-03T09:38:35Z</time></trkpt><trkpt lat="43.887114646082644" lon="11.26423278867836"><ele>356.0</ele><time>2026-04-03T09:38:36Z</time></trkpt><trkpt lat="43.88713423268308" lon="11.264087402704982"><ele>358.0</ele><time>2026-04-03T09:38:37Z</time></trkpt><trkpt lat="43.887158318767895" lon="11.263942593138522"><ele>360.0</ele><time>2026-04-03T09:38:38Z</time></trkpt><trkpt lat="43.88718845690248" lon="11.26380447092985"><ele>360.0</ele><time>2026-04-03T09:38:39Z</time></trkpt><trkpt lat="43.88721957099221" lon="11.26366794517458"><ele>360.0</ele><time>2026-04-03T09:38:40Z</time></trkpt><trkpt lat="43.887252525982525" lon="11.263530432825407"><ele>360.0</ele><time>2026-04-03T09:38:41.001Z</time></trkpt><trkpt lat="43.88727582772478" lon="11.26339383479365"><ele>360.0</ele><time>2026-04-03T09:38:42.001Z</time></trkpt><trkpt lat="43.88729221512903" lon="11.263254856514617"><ele>360.0</ele><time>2026-04-03T09:38:43.001Z</time></trkpt><trkpt lat="43.88730581456823" lon="11.263120873621157"><ele>359.6</ele><time>2026-04-03T09:38:44.001Z</time></trkpt><trkpt lat="43.887319351769435" lon="11.262977355894522"><ele>359.2</ele><time>2026-04-03T09:38:45.001Z</time></trkpt><trkpt lat="43.88733188548388" lon="11.26283756777758"><ele>358.79999999999995</ele><time>2026-04-03T09:38:46.001Z</time></trkpt><trkpt lat="43.887343845694666" lon="11.26270750620339"><ele>358.4</ele><time>2026-04-03T09:38:47.001Z</time></trkpt><trkpt lat="43.88734882313281" lon="11.262582518927982"><ele>358.0</ele><time>2026-04-03T09:38:48.001Z</time></trkpt><trkpt lat="43.88736191306533" lon="11.262462548404"><ele>358.0</ele><time>2026-04-03T09:38:49.001Z</time></trkpt><trkpt lat="43.88738771299582" lon="11.262350779728658"><ele>358.0</ele><time>2026-04-03T09:38:50.001Z</time></trkpt><trkpt lat="43.88741652585575" lon="11.262247228657888"><ele>358.0</ele><time>2026-04-03T09:38:51.001Z</time></trkpt><trkpt lat="43.88743940618172" lon="11.26214029017993"><ele>358.0</ele><time>2026-04-03T09:38:52.001Z</time></trkpt><trkpt lat="43.88745968225308" lon="11.262043632637617"><ele>358.0</ele><time>2026-04-03T09:38:53.001Z</time></trkpt><trkpt lat="43.88749944932682" lon="11.261881844084293"><ele>358.0</ele><time>2026-04-03T09:38:55.001Z</time></trkpt><trkpt lat="43.887552612446" lon="11.261725580705157"><ele>361.5</ele><time>2026-04-03T09:38:57.001Z</time></trkpt><trkpt lat="43.887600611613884" lon="11.2615738660329"><ele>365.0</ele><time>2026-04-03T09:38:59.001Z</time></trkpt><trkpt lat="43.887626466992984" lon="11.261475781220438"><ele>368.5</ele><time>2026-04-03T09:39:00.001Z</time></trkpt><trkpt lat="43.887650528072186" lon="11.261392304592457"><ele>372.0</ele><time>2026-04-03T09:39:01.001Z</time></trkpt><trkpt lat="43.88767444599935" lon="11.261304296668301"><ele>375.5</ele><time>2026-04-03T09:39:02.001Z</time></trkpt><trkpt lat="43.887708805066644" lon="11.26121176352644"><ele>379.0</ele><time>2026-04-03T09:39:03.001Z</time></trkpt><trkpt lat="43.88775037328609" lon="11.261116106400035"><ele>379.0</ele><time>2026-04-03T09:39:04.001Z</time></trkpt><trkpt lat="43.887780965486414" lon="11.261019398388934"><ele>379.0</ele><time>2026-04-03T09:39:05.001Z</time></trkpt><trkpt lat="43.88780602746127" lon="11.260937938198195"><ele>379.0</ele><time>2026-04-03T09:39:06.001Z</time></trkpt><trkpt lat="43.88785264938719" lon="11.260769124284632"><ele>379.0</ele><time>2026-04-03T09:39:08.001Z</time></trkpt><trkpt lat="43.887889059743635" lon="11.260665167500337"><ele>379.0</ele><time>2026-04-03T09:39:09.001Z</time></trkpt><trkpt lat="43.88791781024413" lon="11.260556746937084"><ele>379.0</ele><time>2026-04-03T09:39:10.001Z</time></trkpt><trkpt lat="43.88795114648827" lon="11.260459804449226"><ele>376.66666666666663</ele><time>2026-04-03T09:39:11.001Z</time></trkpt><trkpt lat="43.88798511546253" lon="11.260321294686232"><ele>374.3333333333333</ele><time>2026-04-03T09:39:13.001Z</time></trkpt><trkpt lat="43.888029120939606" lon="11.260184782342591"><ele>372.0</ele><time>2026-04-03T09:39:15Z</time></trkpt><trkpt lat="43.888076619311924" lon="11.260099938761535"><ele>369.6666666666667</ele><time>2026-04-03T09:39:16Z</time></trkpt><trkpt lat="43.88814326460112" lon="11.260018437140772"><ele>367.33333333333337</ele><time>2026-04-03T09:39:17Z</time></trkpt><trkpt lat="43.88820011113557" lon="11.259963655668338"><ele>365.0</ele><time>2026-04-03T09:39:18Z</time></trkpt><trkpt lat="43.88830848600958" lon="11.259838504526376"><ele>364.2</ele><time>2026-04-03T09:39:20Z</time></trkpt><trkpt lat="43.888361739498045" lon="11.259780541917756"><ele>363.4</ele><time>2026-04-03T09:39:21Z</time></trkpt><trkpt lat="43.88844950876312" lon="11.259649710568322"><ele>362.6</ele><time>2026-04-03T09:39:23Z</time></trkpt><trkpt lat="43.888502191053796" lon="11.259576269288496"><ele>361.8</ele><time>2026-04-03T09:39:24Z</time></trkpt><trkpt lat="43.88856960979392" lon="11.259498080630765"><ele>361.0</ele><time>2026-04-03T09:39:25Z</time></trkpt><trkpt lat="43.8886484104429" lon="11.259420282038448"><ele>362.20000000000005</ele><time>2026-04-03T09:39:26Z</time></trkpt><trkpt lat="43.88867921424654" lon="11.259327618121697"><ele>363.40000000000003</ele><time>2026-04-03T09:39:27Z</time></trkpt><trkpt lat="43.88873380681891" lon="11.259225136365844"><ele>364.6</ele><time>2026-04-03T09:39:28Z</time></trkpt><trkpt lat="43.88880501604342" lon="11.259118366073446"><ele>365.8</ele><time>2026-04-03T09:39:29Z</time></trkpt><trkpt lat="43.88888254820392" lon="11.259004126583735"><ele>367.0</ele><time>2026-04-03T09:39:30Z</time></trkpt><trkpt lat="43.888950113502204" lon="11.258902605119129"><ele>367.0</ele><time>2026-04-03T09:39:31Z</time></trkpt><trkpt lat="43.889004060000445" lon="11.258811098732826"><ele>367.0</ele><time>2026-04-03T09:39:32Z</time></trkpt><trkpt lat="43.88905531040993" lon="11.25870246335785"><ele>367.0</ele><time>2026-04-03T09:39:33Z</time></trkpt><trkpt lat="43.88908965794958" lon="11.258602825286708"><ele>367.0</ele><time>2026-04-03T09:39:34Z</time></trkpt><trkpt lat="43.88910685550795" lon="11.25850573527268"><ele>367.0</ele><time>2026-04-03T09:39:35Z</time></trkpt><trkpt lat="43.88912760405644" lon="11.258411828201574"><ele>367.0</ele><time>2026-04-03T09:39:36Z</time></trkpt><trkpt lat="43.88919103814496" lon="11.258273793544129"><ele>367.0</ele><time>2026-04-03T09:39:38Z</time></trkpt><trkpt lat="43.88924505593953" lon="11.258195400145468"><ele>367.0</ele><time>2026-04-03T09:39:39Z</time></trkpt><trkpt lat="43.8893193562637" lon="11.258131637500272"><ele>367.0</ele><time>2026-04-03T09:39:40Z</time></trkpt><trkpt lat="43.88938654406828" lon="11.258061358103996"><ele>367.0</ele><time>2026-04-03T09:39:41Z</time></trkpt><trkpt lat="43.889452895288834" lon="11.257991632043954"><ele>367.0</ele><time>2026-04-03T09:39:42Z</time></trkpt><trkpt lat="43.88951828195265" lon="11.257928405354708"><ele>367.0</ele><time>2026-04-03T09:39:43Z</time></trkpt><trkpt lat="43.889597904006386" lon="11.257863319649525"><ele>368.0</ele><time>2026-04-03T09:39:44Z</time></trkpt><trkpt lat="43.889670542401134" lon="11.257786826828827"><ele>369.0</ele><time>2026-04-03T09:39:45.001Z</time></trkpt><trkpt lat="43.88973399487441" lon="11.25770580710155"><ele>370.0</ele><time>2026-04-03T09:39:46.001Z</time></trkpt><trkpt lat="43.88980285177344" lon="11.25760860981318"><ele>371.0</ele><time>2026-04-03T09:39:47.001Z</time></trkpt><trkpt lat="43.88989871105894" lon="11.257508288016181"><ele>372.0</ele><time>2026-04-03T09:39:48.001Z</time></trkpt><trkpt lat="43.88999400951697" lon="11.25743411303198"><ele>372.0</ele><time>2026-04-03T09:39:49.001Z</time></trkpt><trkpt lat="43.89007359031976" lon="11.25738071900161"><ele>372.0</ele><time>2026-04-03T09:39:50.001Z</time></trkpt><trkpt lat="43.89016333521349" lon="11.25733562220307"><ele>372.0</ele><time>2026-04-03T09:39:51.001Z</time></trkpt><trkpt lat="43.890251573310074" lon="11.257308306412371"><ele>372.0</ele><time>2026-04-03T09:39:52.001Z</time></trkpt><trkpt lat="43.89033908990057" lon="11.2572804810509"><ele>372.0</ele><time>2026-04-03T09:39:53.001Z</time></trkpt><trkpt lat="43.890430307994265" lon="11.257255789927227"><ele>371.40000000000003</ele><time>2026-04-03T09:39:54.001Z</time></trkpt><trkpt lat="43.8905216682514" lon="11.25723712865279"><ele>370.8</ele><time>2026-04-03T09:39:55.001Z</time></trkpt><trkpt lat="43.890619437254124" lon="11.257214380988444"><ele>370.2</ele><time>2026-04-03T09:39:56.001Z</time></trkpt><trkpt lat="43.89070863981634" lon="11.257183932278291"><ele>369.6</ele><time>2026-04-03T09:39:57.001Z</time></trkpt><trkpt lat="43.89079460891578" lon="11.257163868698317"><ele>369.0</ele><time>2026-04-03T09:39:58.001Z</time></trkpt><trkpt lat="43.89087728952908" lon="11.257156723798918"><ele>371.6666666666667</ele><time>2026-04-03T09:39:59.001Z</time></trkpt><trkpt lat="43.8909552041726" lon="11.257167460167775"><ele>374.33333333333337</ele><time>2026-04-03T09:40:00.001Z</time></trkpt><trkpt lat="43.891033469044025" lon="11.257177651324074"><ele>377.0</ele><time>2026-04-03T09:40:01.001Z</time></trkpt><trkpt lat="43.89110903688674" lon="11.257182520744065"><ele>379.6666666666667</ele><time>2026-04-03T09:40:02.001Z</time></trkpt><trkpt lat="43.89118175881878" lon="11.257163406532394"><ele>382.33333333333337</ele><time>2026-04-03T09:40:03.001Z</time></trkpt><trkpt lat="43.89125879345225" lon="11.257124126514032"><ele>385.0</ele><time>2026-04-03T09:40:04.001Z</time></trkpt><trkpt lat="43.891347044171034" lon="11.257096756807973"><ele>385.0</ele><time>2026-04-03T09:40:06Z</time></trkpt><trkpt lat="43.89141699970417" lon="11.257069192868428"><ele>385.0</ele><time>2026-04-03T09:40:14Z</time></trkpt><trkpt lat="43.891486423286594" lon="11.257048686367527"><ele>385.0</ele><time>2026-04-03T09:40:15Z</time></trkpt><trkpt lat="43.89156089607836" lon="11.257036341296546"><ele>385.0</ele><time>2026-04-03T09:40:16Z</time></trkpt><trkpt lat="43.89163535500721" lon="11.257029334463672"><ele>385.0</ele><time>2026-04-03T09:40:17Z</time></trkpt><trkpt lat="43.89171252545587" lon="11.257017511548476"><ele>385.0</ele><time>2026-04-03T09:40:18Z</time></trkpt><trkpt lat="43.89177968698968" lon="11.257008274432952"><ele>385.0</ele><time>2026-04-03T09:40:19Z</time></trkpt><trkpt lat="43.89187429800277" lon="11.257029924975999"><ele>387.6</ele><time>2026-04-03T09:40:21Z</time></trkpt><trkpt lat="43.891948908029335" lon="11.257037690766001"><ele>390.2</ele><time>2026-04-03T09:40:22Z</time></trkpt><trkpt lat="43.89205178562256" lon="11.25707462365078"><ele>392.79999999999995</ele><time>2026-04-03T09:40:23Z</time></trkpt><trkpt lat="43.892184563194334" lon="11.257141114872537"><ele>395.4</ele><time>2026-04-03T09:40:24Z</time></trkpt><trkpt lat="43.89229623745294" lon="11.25719373216592"><ele>398.0</ele><time>2026-04-03T09:40:25Z</time></trkpt><trkpt lat="43.89238521868239" lon="11.257129987540017"><ele>397.99999999999994</ele><time>2026-04-03T09:40:27Z</time></trkpt><trkpt lat="43.89245694367793" lon="11.25712174586968"><ele>398.0</ele><time>2026-04-03T09:40:28Z</time></trkpt><trkpt lat="43.89253620156086" lon="11.257094642354291"><ele>398.0</ele><time>2026-04-03T09:40:29Z</time></trkpt><trkpt lat="43.89260273696895" lon="11.25709286028377"><ele>398.0</ele><time>2026-04-03T09:40:30Z</time></trkpt><trkpt lat="43.89269717984764" lon="11.257044811556542"><ele>397.99999999999994</ele><time>2026-04-03T09:40:31Z</time></trkpt><trkpt lat="43.892772026877275" lon="11.257026038433384"><ele>398.0</ele><time>2026-04-03T09:40:32Z</time></trkpt><trkpt lat="43.892837563430724" lon="11.257006941946829"><ele>398.0</ele><time>2026-04-03T09:40:33Z</time></trkpt><trkpt lat="43.89290899599065" lon="11.256964582632328"><ele>398.0</ele><time>2026-04-03T09:40:34Z</time></trkpt><trkpt lat="43.8929835668732" lon="11.25688726626633"><ele>398.0</ele><time>2026-04-03T09:40:35Z</time></trkpt><trkpt lat="43.89306426587979" lon="11.256801229095029"><ele>398.0</ele><time>2026-04-03T09:40:36Z</time></trkpt><trkpt lat="43.89314410062055" lon="11.256720330711742"><ele>398.0</ele><time>2026-04-03T09:40:37Z</time></trkpt><trkpt lat="43.89321577862617" lon="11.256630540351036"><ele>398.0</ele><time>2026-04-03T09:40:38Z</time></trkpt><trkpt lat="43.893278684900416" lon="11.256548403392303"><ele>398.0</ele><time>2026-04-03T09:40:39Z</time></trkpt><trkpt lat="43.89333421464117" lon="11.256479518800303"><ele>398.0</ele><time>2026-04-03T09:40:40Z</time></trkpt><trkpt lat="43.89340506068666" lon="11.256366615461227"><ele>398.0</ele><time>2026-04-03T09:40:42Z</time></trkpt><trkpt lat="43.893344439307484" lon="11.25625993454415"><ele>398.0</ele><time>2026-04-03T09:40:44Z</time></trkpt><trkpt lat="43.89322780000824" lon="11.256250744339479"><ele>402.0</ele><time>2026-04-03T09:40:46Z</time></trkpt><trkpt lat="43.893148224358306" lon="11.256276158666608"><ele>406.0</ele><time>2026-04-03T09:40:47Z</time></trkpt><trkpt lat="43.89306290813542" lon="11.256290408969228"><ele>410.0</ele><time>2026-04-03T09:40:48Z</time></trkpt><trkpt lat="43.892939651640354" lon="11.256298939961818"><ele>414.0</ele><time>2026-04-03T09:40:49Z</time></trkpt><trkpt lat="43.89281778012319" lon="11.256297801873304"><ele>418.0</ele><time>2026-04-03T09:40:50Z</time></trkpt><trkpt lat="43.89267501375163" lon="11.256295863797833"><ele>418.6666666666667</ele><time>2026-04-03T09:40:51Z</time></trkpt><trkpt lat="43.892565430188455" lon="11.256293771331062"><ele>419.33333333333337</ele><time>2026-04-03T09:40:52Z</time></trkpt><trkpt lat="43.892479757570804" lon="11.256275430582193"><ele>420.0</ele><time>2026-04-03T09:40:53Z</time></trkpt><trkpt lat="43.892411359217746" lon="11.256250464515704"><ele>420.66666666666663</ele><time>2026-04-03T09:40:54Z</time></trkpt><trkpt lat="43.89235016480141" lon="11.256219466185714"><ele>421.3333333333333</ele><time>2026-04-03T09:40:55Z</time></trkpt><trkpt lat="43.89229115323483" lon="11.256091634756883"><ele>422.0</ele><time>2026-04-03T09:40:57Z</time></trkpt><trkpt lat="43.89236107408932" lon="11.255976326855235"><ele>422.0</ele><time>2026-04-03T09:40:59Z</time></trkpt><trkpt lat="43.89244684417985" lon="11.25593045566193"><ele>422.0</ele><time>2026-04-03T09:41:00Z</time></trkpt><trkpt lat="43.89253355432184" lon="11.255906292082672"><ele>422.0</ele><time>2026-04-03T09:41:01Z</time></trkpt><trkpt lat="43.892623904232394" lon="11.255850246710674"><ele>422.0</ele><time>2026-04-03T09:41:02Z</time></trkpt><trkpt lat="43.89269151143718" lon="11.255753618299892"><ele>422.0</ele><time>2026-04-03T09:41:03Z</time></trkpt><trkpt lat="43.89274593815949" lon="11.255635299953305"><ele>423.99999999999994</ele><time>2026-04-03T09:41:04Z</time></trkpt><trkpt lat="43.892784261945266" lon="11.255501954649315"><ele>426.0</ele><time>2026-04-03T09:41:05Z</time></trkpt><trkpt lat="43.89280768735678" lon="11.255378670805003"><ele>428.0</ele><time>2026-04-03T09:41:06Z</time></trkpt><trkpt lat="43.89282157148767" lon="11.255279316352096"><ele>430.0</ele><time>2026-04-03T09:41:07Z</time></trkpt><trkpt lat="43.89281754591645" lon="11.25517134802715"><ele>431.99999999999994</ele><time>2026-04-03T09:41:08Z</time></trkpt><trkpt lat="43.89280982970486" lon="11.255071788895776"><ele>434.0</ele><time>2026-04-03T09:41:09Z</time></trkpt><trkpt lat="43.89281739484182" lon="11.254954586759299"><ele>434.0</ele><time>2026-04-03T09:41:11Z</time></trkpt><trkpt lat="43.89288935761767" lon="11.254850996780652"><ele>434.0</ele><time>2026-04-03T09:41:13Z</time></trkpt><trkpt lat="43.892980138962" lon="11.254748314579055"><ele>434.0</ele><time>2026-04-03T09:41:15Z</time></trkpt><trkpt lat="43.89303254221759" lon="11.254670736987105"><ele>434.0</ele><time>2026-04-03T09:41:16Z</time></trkpt><trkpt lat="43.89309941606679" lon="11.254577220638621"><ele>434.0</ele><time>2026-04-03T09:41:17Z</time></trkpt><trkpt lat="43.89317795099883" lon="11.254483391790437"><ele>435.3333333333333</ele><time>2026-04-03T09:41:18Z</time></trkpt><trkpt lat="43.89324364968715" lon="11.254400424985963"><ele>436.66666666666663</ele><time>2026-04-03T09:41:19Z</time></trkpt><trkpt lat="43.89329212370389" lon="11.254321208156068"><ele>438.0</ele><time>2026-04-03T09:41:20Z</time></trkpt><trkpt lat="43.89333942091659" lon="11.254244022342395"><ele>439.33333333333337</ele><time>2026-04-03T09:41:21Z</time></trkpt><trkpt lat="43.89336874619386" lon="11.254156123771924"><ele>440.6666666666667</ele><time>2026-04-03T09:41:22Z</time></trkpt><trkpt lat="43.89337564270066" lon="11.254038948565071"><ele>442.0</ele><time>2026-04-03T09:41:24Z</time></trkpt><trkpt lat="43.89332331747465" lon="11.253974718507864"><ele>442.40000000000003</ele><time>2026-04-03T09:41:31Z</time></trkpt><trkpt lat="43.89336396879875" lon="11.253890138513334"><ele>442.80000000000007</ele><time>2026-04-03T09:41:34Z</time></trkpt><trkpt lat="43.89342482503993" lon="11.253824338318342"><ele>443.2</ele><time>2026-04-03T09:41:36Z</time></trkpt><trkpt lat="43.893498459273296" lon="11.253742251624534"><ele>443.6</ele><time>2026-04-03T09:41:38Z</time></trkpt><trkpt lat="43.89358980198286" lon="11.253680075022332"><ele>444.0</ele><time>2026-04-03T09:41:40Z</time></trkpt><trkpt lat="43.89371324991608" lon="11.253618463414421"><ele>445.79999999999995</ele><time>2026-04-03T09:41:42Z</time></trkpt><trkpt lat="43.89379616233269" lon="11.253614131252846"><ele>447.59999999999997</ele><time>2026-04-03T09:41:43Z</time></trkpt><trkpt lat="43.89387881448739" lon="11.253605936430423"><ele>449.4</ele><time>2026-04-03T09:41:44Z</time></trkpt><trkpt lat="43.893901823083155" lon="11.253517655995097"><ele>451.2</ele><time>2026-04-03T09:41:45Z</time></trkpt><trkpt lat="43.89399277732317" lon="11.253427035455308"><ele>453.0</ele><time>2026-04-03T09:41:47Z</time></trkpt><trkpt lat="43.89400604313906" lon="11.253271066001885"><ele>453.0</ele><time>2026-04-03T09:41:49Z</time></trkpt><trkpt lat="43.89396824759576" lon="11.25319085174651"><ele>453.0</ele><time>2026-04-03T09:41:50Z</time></trkpt><trkpt lat="43.89391507925128" lon="11.25311742976583"><ele>453.0</ele><time>2026-04-03T09:41:51Z</time></trkpt><trkpt lat="43.893849114971" lon="11.253054932631116"><ele>453.0</ele><time>2026-04-03T09:41:52Z</time></trkpt><trkpt lat="43.89380395748894" lon="11.2529612625582"><ele>453.0</ele><time>2026-04-03T09:41:54Z</time></trkpt><trkpt lat="43.89382008048445" lon="11.252844424456205"><ele>453.0</ele><time>2026-04-03T09:41:56Z</time></trkpt><trkpt lat="43.89384518558335" lon="11.252694565958647"><ele>454.8333333333333</ele><time>2026-04-03T09:41:58Z</time></trkpt><trkpt lat="43.893866172762095" lon="11.25261032351964"><ele>456.66666666666663</ele><time>2026-04-03T09:41:59Z</time></trkpt><trkpt lat="43.893892951443945" lon="11.252523107659885"><ele>458.5</ele><time>2026-04-03T09:42:00Z</time></trkpt><trkpt lat="43.8939296533396" lon="11.252421676903877"><ele>460.3333333333333</ele><time>2026-04-03T09:42:01Z</time></trkpt><trkpt lat="43.893986390799284" lon="11.252334608376195"><ele>462.16666666666663</ele><time>2026-04-03T09:42:02Z</time></trkpt><trkpt lat="43.894055317759694" lon="11.25226531407394"><ele>464.0</ele><time>2026-04-03T09:42:03Z</time></trkpt><trkpt lat="43.89411814300091" lon="11.252223343276887"><ele>465.66666666666663</ele><time>2026-04-03T09:42:04Z</time></trkpt><trkpt lat="43.89418798250941" lon="11.252178300049087"><ele>467.3333333333333</ele><time>2026-04-03T09:42:05Z</time></trkpt><trkpt lat="43.89423991686369" lon="11.25211518932224"><ele>469.0</ele><time>2026-04-03T09:42:06Z</time></trkpt><trkpt lat="43.8942777641707" lon="11.252021244850235"><ele>470.66666666666663</ele><time>2026-04-03T09:42:07Z</time></trkpt><trkpt lat="43.894313902172705" lon="11.251907117786205"><ele>472.3333333333333</ele><time>2026-04-03T09:42:08Z</time></trkpt><trkpt lat="43.89434772733704" lon="11.25179211242712"><ele>474.0</ele><time>2026-04-03T09:42:09Z</time></trkpt><trkpt lat="43.894376745829305" lon="11.25166599881173"><ele>476.1666666666667</ele><time>2026-04-03T09:42:10Z</time></trkpt><trkpt lat="43.89442453282122" lon="11.251568193793661"><ele>478.33333333333337</ele><time>2026-04-03T09:42:11Z</time></trkpt><trkpt lat="43.8944619581343" lon="11.251482909543993"><ele>480.5</ele><time>2026-04-03T09:42:12Z</time></trkpt><trkpt lat="43.894494649695964" lon="11.251379166834068"><ele>482.6666666666667</ele><time>2026-04-03T09:42:13Z</time></trkpt><trkpt lat="43.89452818187866" lon="11.251267974026478"><ele>484.83333333333337</ele><time>2026-04-03T09:42:14Z</time></trkpt><trkpt lat="43.894569161061156" lon="11.251165159925645"><ele>487.0</ele><time>2026-04-03T09:42:15Z</time></trkpt><trkpt lat="43.89463007956718" lon="11.251059895745069"><ele>489.0</ele><time>2026-04-03T09:42:16Z</time></trkpt><trkpt lat="43.894703255692136" lon="11.250932973691015"><ele>491.0</ele><time>2026-04-03T09:42:17Z</time></trkpt><trkpt lat="43.89478092273264" lon="11.250786477986855"><ele>493.0</ele><time>2026-04-03T09:42:18Z</time></trkpt><trkpt lat="43.89485177775231" lon="11.250647250288086"><ele>495.0</ele><time>2026-04-03T09:42:19Z</time></trkpt><trkpt lat="43.894907799061464" lon="11.25053844205006"><ele>496.1666666666667</ele><time>2026-04-03T09:42:20Z</time></trkpt><trkpt lat="43.89495475754422" lon="11.250460583236446"><ele>497.33333333333337</ele><time>2026-04-03T09:42:21Z</time></trkpt><trkpt lat="43.89501293819445" lon="11.250367095017337"><ele>498.5</ele><time>2026-04-03T09:42:22Z</time></trkpt><trkpt lat="43.89506066937951" lon="11.25027788508878"><ele>499.6666666666667</ele><time>2026-04-03T09:42:23Z</time></trkpt><trkpt lat="43.895102611889314" lon="11.25014854432503"><ele>500.83333333333337</ele><time>2026-04-03T09:42:25Z</time></trkpt><trkpt lat="43.89506244131378" lon="11.25008011060727"><ele>502.0</ele><time>2026-04-03T09:42:26Z</time></trkpt><trkpt lat="43.89498666644289" lon="11.250002315557525"><ele>502.00000000000006</ele><time>2026-04-03T09:42:27Z</time></trkpt><trkpt lat="43.89489644535492" lon="11.249909956527633"><ele>502.0</ele><time>2026-04-03T09:42:28Z</time></trkpt><trkpt lat="43.89481917003192" lon="11.249839179508623"><ele>502.0</ele><time>2026-04-03T09:42:29Z</time></trkpt><trkpt lat="43.89476260611577" lon="11.249800537727545"><ele>502.0</ele><time>2026-04-03T09:42:30Z</time></trkpt><trkpt lat="43.894676140486176" lon="11.24973175088939"><ele>502.00000000000006</ele><time>2026-04-03T09:42:31Z</time></trkpt><trkpt lat="43.89461119427335" lon="11.24970953821898"><ele>502.0</ele><time>2026-04-03T09:42:32Z</time></trkpt><trkpt lat="43.89454398324171" lon="11.249723332122628"><ele>502.00000000000006</ele><time>2026-04-03T09:42:33Z</time></trkpt><trkpt lat="43.89449106061446" lon="11.249776730059935"><ele>502.0</ele><time>2026-04-03T09:42:34Z</time></trkpt><trkpt lat="43.89443360723606" lon="11.249869391969817"><ele>502.0</ele><time>2026-04-03T09:42:35Z</time></trkpt><trkpt lat="43.89437056469125" lon="11.249983697946128"><ele>502.0</ele><time>2026-04-03T09:42:36Z</time></trkpt><trkpt lat="43.894315854227415" lon="11.25006610848468"><ele>502.00000000000006</ele><time>2026-04-03T09:42:37Z</time></trkpt><trkpt lat="43.89421456108495" lon="11.250057182832284"><ele>502.0</ele><time>2026-04-03T09:42:39Z</time></trkpt><trkpt lat="43.89411553937433" lon="11.250016818263205"><ele>503.00000000000006</ele><time>2026-04-03T09:42:41Z</time></trkpt><trkpt lat="43.89405868162359" lon="11.249950736675046"><ele>504.0</ele><time>2026-04-03T09:42:42Z</time></trkpt><trkpt lat="43.89401192242316" lon="11.24986063692577"><ele>505.0</ele><time>2026-04-03T09:42:43Z</time></trkpt><trkpt lat="43.89398137121511" lon="11.249755849631594"><ele>506.0</ele><time>2026-04-03T09:42:44Z</time></trkpt><trkpt lat="43.89393927862468" lon="11.249622767421835"><ele>507.00000000000006</ele><time>2026-04-03T09:42:45Z</time></trkpt><trkpt lat="43.893904155740586" lon="11.249526219976199"><ele>508.0</ele><time>2026-04-03T09:42:46Z</time></trkpt><trkpt lat="43.89383448897911" lon="11.249436970832157"><ele>511.0</ele><time>2026-04-03T09:42:48Z</time></trkpt><trkpt lat="43.89376289903767" lon="11.249398611613621"><ele>514.0</ele><time>2026-04-03T09:42:49Z</time></trkpt><trkpt lat="43.89367505668918" lon="11.249361342340203"><ele>517.0</ele><time>2026-04-03T09:42:50Z</time></trkpt><trkpt lat="43.8935848674318" lon="11.249312034401436"><ele>520.0</ele><time>2026-04-03T09:42:52Z</time></trkpt><trkpt lat="43.89352399106735" lon="11.249201597804865"><ele>523.0</ele><time>2026-04-03T09:42:54Z</time></trkpt><trkpt lat="43.893479806922294" lon="11.249076617423949"><ele>523.0</ele><time>2026-04-03T09:42:56Z</time></trkpt><trkpt lat="43.893547142097376" lon="11.249014634057412"><ele>523.0</ele><time>2026-04-03T09:43:01Z</time></trkpt><trkpt lat="43.89362736051353" lon="11.24904925452828"><ele>523.0</ele><time>2026-04-03T09:43:03Z</time></trkpt><trkpt lat="43.89369786120834" lon="11.249108335502495"><ele>523.0</ele><time>2026-04-03T09:43:05Z</time></trkpt><trkpt lat="43.893797618455146" lon="11.249025724710672"><ele>523.0</ele><time>2026-04-03T09:43:07Z</time></trkpt><trkpt lat="43.893831544457846" lon="11.248938962862104"><ele>523.0</ele><time>2026-04-03T09:43:08Z</time></trkpt><trkpt lat="43.89387238814927" lon="11.248861419529934"><ele>523.6666666666667</ele><time>2026-04-03T09:43:09Z</time></trkpt><trkpt lat="43.89394676823821" lon="11.248813080729203"><ele>524.3333333333334</ele><time>2026-04-03T09:43:10Z</time></trkpt><trkpt lat="43.8940309238155" lon="11.248766295895784"><ele>525.0</ele><time>2026-04-03T09:43:11Z</time></trkpt><trkpt lat="43.89410014929709" lon="11.248712742554863"><ele>525.6666666666666</ele><time>2026-04-03T09:43:12Z</time></trkpt><trkpt lat="43.89415166892594" lon="11.248658927430345"><ele>526.3333333333333</ele><time>2026-04-03T09:43:13Z</time></trkpt><trkpt lat="43.894208336372635" lon="11.248588125230139"><ele>527.0</ele><time>2026-04-03T09:43:14Z</time></trkpt><trkpt lat="43.8942660651731" lon="11.248508688718726"><ele>527.7142857142858</ele><time>2026-04-03T09:43:15Z</time></trkpt><trkpt lat="43.894323238996236" lon="11.248436675352782"><ele>528.4285714285714</ele><time>2026-04-03T09:43:16Z</time></trkpt><trkpt lat="43.89438745719062" lon="11.248379445429729"><ele>529.1428571428571</ele><time>2026-04-03T09:43:17Z</time></trkpt><trkpt lat="43.894438179567985" lon="11.248292799027512"><ele>529.8571428571429</ele><time>2026-04-03T09:43:18Z</time></trkpt><trkpt lat="43.89446996818955" lon="11.248183871671795"><ele>530.5714285714286</ele><time>2026-04-03T09:43:19Z</time></trkpt><trkpt lat="43.894500048829116" lon="11.248106116436475"><ele>531.2857142857143</ele><time>2026-04-03T09:43:20Z</time></trkpt><trkpt lat="43.89454619754653" lon="11.248039180215613"><ele>532.0</ele><time>2026-04-03T09:43:21Z</time></trkpt><trkpt lat="43.89461309187711" lon="11.247966796704935"><ele>533.8000000000001</ele><time>2026-04-03T09:43:23Z</time></trkpt><trkpt lat="43.894692494918104" lon="11.247913640331305"><ele>535.6</ele><time>2026-04-03T09:43:26Z</time></trkpt><trkpt lat="43.894804385425616" lon="11.247913611628967"><ele>537.4000000000001</ele><time>2026-04-03T09:43:28Z</time></trkpt><trkpt lat="43.89490785730867" lon="11.247939299523022"><ele>539.2</ele><time>2026-04-03T09:43:30Z</time></trkpt><trkpt lat="43.89501349227187" lon="11.247906537040567"><ele>541.0</ele><time>2026-04-03T09:43:32Z</time></trkpt><trkpt lat="43.89508885208574" lon="11.24782299196745"><ele>542.8</ele><time>2026-04-03T09:43:34Z</time></trkpt><trkpt lat="43.895165390708655" lon="11.247793518713925"><ele>544.6</ele><time>2026-04-03T09:43:36Z</time></trkpt><trkpt lat="43.89526975955127" lon="11.247740403282242"><ele>546.4</ele><time>2026-04-03T09:43:41Z</time></trkpt><trkpt lat="43.89536240422597" lon="11.247678779944026"><ele>548.2</ele><time>2026-04-03T09:43:43Z</time></trkpt><trkpt lat="43.89544700130396" lon="11.247632305622572"><ele>550.0</ele><time>2026-04-03T09:43:45Z</time></trkpt><trkpt lat="43.89552298652411" lon="11.247633738746632"><ele>550.0</ele><time>2026-04-03T09:43:47Z</time></trkpt><trkpt lat="43.895595112342775" lon="11.24763718286467"><ele>550.0</ele><time>2026-04-03T09:43:50Z</time></trkpt><trkpt lat="43.89567402089428" lon="11.24762112642477"><ele>550.0</ele><time>2026-04-03T09:43:53Z</time></trkpt><trkpt lat="43.8957408893625" lon="11.247607664061556"><ele>550.0</ele><time>2026-04-03T09:43:55Z</time></trkpt><trkpt lat="43.89583344895846" lon="11.247603616885792"><ele>550.0</ele><time>2026-04-03T09:43:57Z</time></trkpt><trkpt lat="43.895899395606705" lon="11.247618642920655"><ele>550.0</ele><time>2026-04-03T09:43:59Z</time></trkpt><trkpt lat="43.895978725952105" lon="11.247644064805653"><ele>549.4</ele><time>2026-04-03T09:44:01Z</time></trkpt><trkpt lat="43.89607537369113" lon="11.247674592947988"><ele>548.8</ele><time>2026-04-03T09:44:03Z</time></trkpt><trkpt lat="43.896174338629905" lon="11.247728012783215"><ele>548.2</ele><time>2026-04-03T09:44:05Z</time></trkpt><trkpt lat="43.89624700799605" lon="11.247810371641778"><ele>547.6</ele><time>2026-04-03T09:44:07Z</time></trkpt><trkpt lat="43.89632413399184" lon="11.247829909649758"><ele>547.0</ele><time>2026-04-03T09:44:09Z</time></trkpt><trkpt lat="43.89639985833414" lon="11.247845848496496"><ele>547.0</ele><time>2026-04-03T09:44:11Z</time></trkpt><trkpt lat="43.896474190437516" lon="11.247917528739592"><ele>547.0</ele><time>2026-04-03T09:44:14Z</time></trkpt><trkpt lat="43.89655658277767" lon="11.247993924360156"><ele>547.0</ele><time>2026-04-03T09:44:17Z</time></trkpt><trkpt lat="43.896621590596574" lon="11.248044293860987"><ele>547.0</ele><time>2026-04-03T09:44:23Z</time></trkpt><trkpt lat="43.89667342335268" lon="11.248096613725224"><ele>547.0</ele><time>2026-04-03T09:44:25Z</time></trkpt><trkpt lat="43.896724033594694" lon="11.248150036062924"><ele>547.0</ele><time>2026-04-03T09:44:27Z</time></trkpt><trkpt lat="43.89681682889189" lon="11.248236744834328"><ele>545.8000000000001</ele><time>2026-04-03T09:44:31Z</time></trkpt><trkpt lat="43.89691034405426" lon="11.248380776059625"><ele>544.6</ele><time>2026-04-03T09:44:33Z</time></trkpt><trkpt lat="43.89698671430111" lon="11.248330714897591"><ele>543.4000000000001</ele><time>2026-04-03T09:44:35Z</time></trkpt><trkpt lat="43.897085334504446" lon="11.24845190523817"><ele>542.2</ele><time>2026-04-03T09:44:37Z</time></trkpt><trkpt lat="43.8971370059648" lon="11.248515667554345"><ele>541.0</ele><time>2026-04-03T09:44:39Z</time></trkpt><trkpt lat="43.897203815273066" lon="11.248624652168026"><ele>541.0</ele><time>2026-04-03T09:44:42Z</time></trkpt><trkpt lat="43.8972559894234" lon="11.248684012377534"><ele>541.0</ele><time>2026-04-03T09:44:45Z</time></trkpt><trkpt lat="43.89733303078372" lon="11.248668098494141"><ele>541.0</ele><time>2026-04-03T09:44:56Z</time></trkpt><trkpt lat="43.897428817259126" lon="11.248694784913994"><ele>541.0</ele><time>2026-04-03T09:44:58Z</time></trkpt><trkpt lat="43.89750650020073" lon="11.24869606297133"><ele>541.0</ele><time>2026-04-03T09:45:01Z</time></trkpt><trkpt lat="43.89756580288798" lon="11.248618465415936"><ele>541.0</ele><time>2026-04-03T09:45:04Z</time></trkpt><trkpt lat="43.897638706740466" lon="11.248563150061175"><ele>540.2</ele><time>2026-04-03T09:45:07Z</time></trkpt><trkpt lat="43.89771705418654" lon="11.24853306643384"><ele>539.4000000000001</ele><time>2026-04-03T09:45:09Z</time></trkpt><trkpt lat="43.897792668622024" lon="11.248472790733432"><ele>538.6</ele><time>2026-04-03T09:45:11Z</time></trkpt><trkpt lat="43.897870786914" lon="11.248400903096485"><ele>537.8000000000001</ele><time>2026-04-03T09:45:13Z</time></trkpt><trkpt lat="43.897943566788406" lon="11.248299046729063"><ele>537.0</ele><time>2026-04-03T09:45:15Z</time></trkpt><trkpt lat="43.898024605311036" lon="11.248225068097094"><ele>537.0</ele><time>2026-04-03T09:45:17Z</time></trkpt><trkpt lat="43.89810941821546" lon="11.248181287506359"><ele>537.0</ele><time>2026-04-03T09:45:19Z</time></trkpt><trkpt lat="43.898193809792154" lon="11.248115764420922"><ele>537.0</ele><time>2026-04-03T09:45:21Z</time></trkpt><trkpt lat="43.89827455885905" lon="11.248064056928195"><ele>537.0</ele><time>2026-04-03T09:45:23Z</time></trkpt><trkpt lat="43.89837699830946" lon="11.248014080841585"><ele>537.0</ele><time>2026-04-03T09:45:25Z</time></trkpt><trkpt lat="43.8984381828698" lon="11.247964596439898"><ele>532.8000000000001</ele><time>2026-04-03T09:45:26Z</time></trkpt><trkpt lat="43.89851321730661" lon="11.247877280887375"><ele>528.6</ele><time>2026-04-03T09:45:27Z</time></trkpt><trkpt lat="43.898592878220654" lon="11.247827968088902"><ele>524.4000000000001</ele><time>2026-04-03T09:45:29Z</time></trkpt><trkpt lat="43.898675943368886" lon="11.247764531149532"><ele>520.2</ele><time>2026-04-03T09:45:31Z</time></trkpt><trkpt lat="43.89874964010822" lon="11.247683126919629"><ele>516.0</ele><time>2026-04-03T09:45:33Z</time></trkpt><trkpt lat="43.89880698730789" lon="11.24760050005311"><ele>516.0</ele><time>2026-04-03T09:45:35Z</time></trkpt><trkpt lat="43.89887766544828" lon="11.247565005679938"><ele>516.0</ele><time>2026-04-03T09:45:37Z</time></trkpt><trkpt lat="43.89895350593669" lon="11.247596064452123"><ele>516.0</ele><time>2026-04-03T09:45:39Z</time></trkpt><trkpt lat="43.899049966874664" lon="11.24761970476616"><ele>516.0</ele><time>2026-04-03T09:45:41Z</time></trkpt><trkpt lat="43.89911825204549" lon="11.247618748680258"><ele>516.0</ele><time>2026-04-03T09:45:43Z</time></trkpt><trkpt lat="43.8992064824997" lon="11.247609259054373"><ele>516.0</ele><time>2026-04-03T09:45:46Z</time></trkpt><trkpt lat="43.899250979122336" lon="11.247545064756023"><ele>515.0</ele><time>2026-04-03T09:45:48Z</time></trkpt><trkpt lat="43.89927960697562" lon="11.247459445886985"><ele>514.0</ele><time>2026-04-03T09:45:50Z</time></trkpt><trkpt lat="43.89930537816519" lon="11.24735040009969"><ele>513.0</ele><time>2026-04-03T09:45:53Z</time></trkpt><trkpt lat="43.89928941546658" lon="11.24723133295157"><ele>512.0</ele><time>2026-04-03T09:45:56Z</time></trkpt><trkpt lat="43.89938568613261" lon="11.24709928342689"><ele>511.0</ele><time>2026-04-03T09:46:01Z</time></trkpt><trkpt lat="43.8994394657048" lon="11.247040385429225"><ele>510.0</ele><time>2026-04-03T09:46:02Z</time></trkpt><trkpt lat="43.89950072427797" lon="11.246977931397973"><ele>509.0</ele><time>2026-04-03T09:46:03Z</time></trkpt><trkpt lat="43.8995686009844" lon="11.246920361473471"><ele>508.0</ele><time>2026-04-03T09:46:04Z</time></trkpt><trkpt lat="43.89965956739471" lon="11.246800526462993"><ele>507.0</ele><time>2026-04-03T09:46:06Z</time></trkpt><trkpt lat="43.89970032756179" lon="11.246682623525588"><ele>506.0</ele><time>2026-04-03T09:46:08Z</time></trkpt><trkpt lat="43.89976457033075" lon="11.246560387952055"><ele>505.0</ele><time>2026-04-03T09:46:10Z</time></trkpt><trkpt lat="43.899857189476094" lon="11.246473167553432"><ele>503.6666666666667</ele><time>2026-04-03T09:46:12Z</time></trkpt><trkpt lat="43.89992134651929" lon="11.246397239671856"><ele>502.33333333333337</ele><time>2026-04-03T09:46:14Z</time></trkpt><trkpt lat="43.899959036899126" lon="11.246318981791322"><ele>501.0</ele><time>2026-04-03T09:46:17Z</time></trkpt><trkpt lat="43.89995204703599" lon="11.246217662179175"><ele>499.66666666666663</ele><time>2026-04-03T09:46:21Z</time></trkpt><trkpt lat="43.89985824586087" lon="11.24620966675193"><ele>498.3333333333333</ele><time>2026-04-03T09:46:24Z</time></trkpt><trkpt lat="43.899764762684846" lon="11.24616732579005"><ele>497.0</ele><time>2026-04-03T09:46:27Z</time></trkpt><trkpt lat="43.899704666034765" lon="11.246128976135676"><ele>497.0</ele><time>2026-04-03T09:46:29Z</time></trkpt><trkpt lat="43.89963278705125" lon="11.246086621064068"><ele>497.00000000000006</ele><time>2026-04-03T09:46:31Z</time></trkpt><trkpt lat="43.8995465011397" lon="11.24604364041983"><ele>497.00000000000006</ele><time>2026-04-03T09:46:33Z</time></trkpt><trkpt lat="43.89945715793107" lon="11.245982419797901"><ele>497.0</ele><time>2026-04-03T09:46:35Z</time></trkpt><trkpt lat="43.89938366558341" lon="11.245908820817128"><ele>497.0</ele><time>2026-04-03T09:46:37Z</time></trkpt><trkpt lat="43.89930538514486" lon="11.245822015411287"><ele>497.20000000000005</ele><time>2026-04-03T09:46:39Z</time></trkpt><trkpt lat="43.89924873356414" lon="11.24571478950838"><ele>497.40000000000003</ele><time>2026-04-03T09:46:41Z</time></trkpt><trkpt lat="43.89921035003099" lon="11.245590289117706"><ele>497.59999999999997</ele><time>2026-04-03T09:46:43Z</time></trkpt><trkpt lat="43.89915880353199" lon="11.245442137379538"><ele>497.79999999999995</ele><time>2026-04-03T09:46:45Z</time></trkpt><trkpt lat="43.899100282853354" lon="11.245356804587441"><ele>498.0</ele><time>2026-04-03T09:46:47Z</time></trkpt><trkpt lat="43.89905504505351" lon="11.245288393446513"><ele>496.3333333333333</ele><time>2026-04-03T09:46:49Z</time></trkpt><trkpt lat="43.89899700156562" lon="11.245207076907842"><ele>494.66666666666663</ele><time>2026-04-03T09:46:51Z</time></trkpt><trkpt lat="43.89895533894755" lon="11.245120160666243"><ele>493.0</ele><time>2026-04-03T09:46:53Z</time></trkpt><trkpt lat="43.89888866926178" lon="11.24498593692249"><ele>491.3333333333333</ele><time>2026-04-03T09:46:55Z</time></trkpt><trkpt lat="43.89885690219002" lon="11.24490914231097"><ele>489.66666666666663</ele><time>2026-04-03T09:46:56Z</time></trkpt><trkpt lat="43.8988053789794" lon="11.244822107251297"><ele>488.0</ele><time>2026-04-03T09:46:57Z</time></trkpt><trkpt lat="43.89873208887624" lon="11.244704253976312"><ele>485.79999999999995</ele><time>2026-04-03T09:46:58Z</time></trkpt><trkpt lat="43.89866811896287" lon="11.244612821602946"><ele>483.59999999999997</ele><time>2026-04-03T09:46:59Z</time></trkpt><trkpt lat="43.89862170611725" lon="11.244543274203078"><ele>481.40000000000003</ele><time>2026-04-03T09:47:00Z</time></trkpt><trkpt lat="43.89858150972854" lon="11.24442213161984"><ele>479.20000000000005</ele><time>2026-04-03T09:47:02Z</time></trkpt><trkpt lat="43.89857533236955" lon="11.24427654226567"><ele>477.0</ele><time>2026-04-03T09:47:04Z</time></trkpt><trkpt lat="43.89857770446367" lon="11.244129742034538"><ele>475.20000000000005</ele><time>2026-04-03T09:47:06Z</time></trkpt><trkpt lat="43.898597022320146" lon="11.243954168080453"><ele>473.40000000000003</ele><time>2026-04-03T09:47:08Z</time></trkpt><trkpt lat="43.89859522536664" lon="11.243832122905246"><ele>471.59999999999997</ele><time>2026-04-03T09:47:09Z</time></trkpt><trkpt lat="43.89859380113996" lon="11.243702853417465"><ele>469.79999999999995</ele><time>2026-04-03T09:47:10Z</time></trkpt><trkpt lat="43.898588391474924" lon="11.243590767677354"><ele>468.0</ele><time>2026-04-03T09:47:11Z</time></trkpt><trkpt lat="43.89857699918606" lon="11.243494131178995"><ele>468.0</ele><time>2026-04-03T09:47:12Z</time></trkpt><trkpt lat="43.898544775922474" lon="11.243403609739048"><ele>468.0</ele><time>2026-04-03T09:47:13Z</time></trkpt><trkpt lat="43.898500562944044" lon="11.243315926470508"><ele>468.0</ele><time>2026-04-03T09:47:14Z</time></trkpt><trkpt lat="43.89844128100238" lon="11.243229016090066"><ele>468.0</ele><time>2026-04-03T09:47:15Z</time></trkpt><trkpt lat="43.89836772287979" lon="11.243139318284058"><ele>468.0</ele><time>2026-04-03T09:47:16Z</time></trkpt><trkpt lat="43.89829138648505" lon="11.24305346003407"><ele>468.0</ele><time>2026-04-03T09:47:17Z</time></trkpt><trkpt lat="43.89822538845818" lon="11.242980067988194"><ele>468.5</ele><time>2026-04-03T09:47:18Z</time></trkpt><trkpt lat="43.89816191055238" lon="11.242905766527842"><ele>469.0</ele><time>2026-04-03T09:47:19Z</time></trkpt><trkpt lat="43.89810834749358" lon="11.242840503962375"><ele>469.5</ele><time>2026-04-03T09:47:20Z</time></trkpt><trkpt lat="43.89805476399448" lon="11.242769043241012"><ele>470.0</ele><time>2026-04-03T09:47:21Z</time></trkpt><trkpt lat="43.89797028544134" lon="11.242670258847433"><ele>470.5</ele><time>2026-04-03T09:47:23Z</time></trkpt><trkpt lat="43.89791550897285" lon="11.242607809214311"><ele>471.0</ele><time>2026-04-03T09:47:24Z</time></trkpt><trkpt lat="43.89785571530859" lon="11.242544530734747"><ele>471.0</ele><time>2026-04-03T09:47:25Z</time></trkpt><trkpt lat="43.89779220653948" lon="11.242493517211857"><ele>471.0</ele><time>2026-04-03T09:47:26Z</time></trkpt><trkpt lat="43.89771562576429" lon="11.242463423696188"><ele>471.0</ele><time>2026-04-03T09:47:27Z</time></trkpt><trkpt lat="43.89764704543837" lon="11.242370874782711"><ele>471.0</ele><time>2026-04-03T09:47:29Z</time></trkpt><trkpt lat="43.89767328611857" lon="11.242244549928989"><ele>471.0</ele><time>2026-04-03T09:47:31Z</time></trkpt><trkpt lat="43.89767172389978" lon="11.242069217751771"><ele>469.20000000000005</ele><time>2026-04-03T09:47:33Z</time></trkpt><trkpt lat="43.89767085635704" lon="11.241966932564047"><ele>467.40000000000003</ele><time>2026-04-03T09:47:34Z</time></trkpt><trkpt lat="43.897672122701294" lon="11.241877910662456"><ele>465.6</ele><time>2026-04-03T09:47:35Z</time></trkpt><trkpt lat="43.8976606832377" lon="11.241717470718836"><ele>463.8</ele><time>2026-04-03T09:47:37Z</time></trkpt><trkpt lat="43.89765518218676" lon="11.241549693116848"><ele>462.0</ele><time>2026-04-03T09:47:39Z</time></trkpt><trkpt lat="43.89765844831803" lon="11.241437566119831"><ele>460.6</ele><time>2026-04-03T09:47:40Z</time></trkpt><trkpt lat="43.89765492114754" lon="11.241323548220437"><ele>459.20000000000005</ele><time>2026-04-03T09:47:41Z</time></trkpt><trkpt lat="43.897647113334074" lon="11.241201767776099"><ele>457.8</ele><time>2026-04-03T09:47:42Z</time></trkpt><trkpt lat="43.89763577044128" lon="11.241076492296816"><ele>456.4</ele><time>2026-04-03T09:47:43Z</time></trkpt><trkpt lat="43.89763262373699" lon="11.24092670063106"><ele>455.0</ele><time>2026-04-03T09:47:44Z</time></trkpt><trkpt lat="43.89763386144546" lon="11.24080119486371"><ele>454.99999999999994</ele><time>2026-04-03T09:47:45Z</time></trkpt><trkpt lat="43.89763590373484" lon="11.240689902053523"><ele>455.0</ele><time>2026-04-03T09:47:46Z</time></trkpt><trkpt lat="43.89764212113546" lon="11.240582262475161"><ele>455.0</ele><time>2026-04-03T09:47:47Z</time></trkpt><trkpt lat="43.897654259187526" lon="11.240483568711488"><ele>455.0</ele><time>2026-04-03T09:47:48Z</time></trkpt><trkpt lat="43.89769297764037" lon="11.24036281035659"><ele>454.99999999999994</ele><time>2026-04-03T09:47:49Z</time></trkpt><trkpt lat="43.89775391430074" lon="11.240222028985032"><ele>455.0</ele><time>2026-04-03T09:47:50Z</time></trkpt><trkpt lat="43.897827179811614" lon="11.24006831688015"><ele>455.0</ele><time>2026-04-03T09:47:51Z</time></trkpt><trkpt lat="43.897894518847544" lon="11.239902092024352"><ele>455.0</ele><time>2026-04-03T09:47:52Z</time></trkpt><trkpt lat="43.89794768561573" lon="11.239762237189233"><ele>455.0</ele><time>2026-04-03T09:47:53Z</time></trkpt><trkpt lat="43.89799492503773" lon="11.239659921092695"><ele>455.0</ele><time>2026-04-03T09:47:54Z</time></trkpt><trkpt lat="43.89803492362494" lon="11.239563136934517"><ele>455.0</ele><time>2026-04-03T09:47:55Z</time></trkpt><trkpt lat="43.89805951768907" lon="11.239466432613689"><ele>455.0</ele><time>2026-04-03T09:47:56Z</time></trkpt><trkpt lat="43.89805868067311" lon="11.239349539572737"><ele>455.0</ele><time>2026-04-03T09:47:57Z</time></trkpt><trkpt lat="43.89806185549571" lon="11.239210872401122"><ele>455.0</ele><time>2026-04-03T09:47:58Z</time></trkpt><trkpt lat="43.898070086593435" lon="11.239077153601263"><ele>455.0</ele><time>2026-04-03T09:47:59Z</time></trkpt><trkpt lat="43.898081637774304" lon="11.238961359784746"><ele>455.0</ele><time>2026-04-03T09:48:00Z</time></trkpt><trkpt lat="43.898075752758224" lon="11.238803065241495"><ele>453.3333333333333</ele><time>2026-04-03T09:48:02Z</time></trkpt><trkpt lat="43.89804844474146" lon="11.238723439220323"><ele>451.66666666666663</ele><time>2026-04-03T09:48:03Z</time></trkpt><trkpt lat="43.89801721566272" lon="11.238642149150252"><ele>450.0</ele><time>2026-04-03T09:48:04Z</time></trkpt><trkpt lat="43.89796543580748" lon="11.238499304021943"><ele>448.33333333333337</ele><time>2026-04-03T09:48:06Z</time></trkpt><trkpt lat="43.89788801807189" lon="11.23836537465068"><ele>446.6666666666667</ele><time>2026-04-03T09:48:08Z</time></trkpt><trkpt lat="43.89785865205907" lon="11.238267882094865"><ele>445.0</ele><time>2026-04-03T09:48:09Z</time></trkpt><trkpt lat="43.89779110104652" lon="11.238255288279875"><ele>445.00000000000006</ele><time>2026-04-03T09:48:10Z</time></trkpt><trkpt lat="43.89771059372011" lon="11.238270215467189"><ele>445.0</ele><time>2026-04-03T09:48:11Z</time></trkpt><trkpt lat="43.89763975012319" lon="11.238252306320486"><ele>445.0</ele><time>2026-04-03T09:48:12Z</time></trkpt><trkpt lat="43.89761201171702" lon="11.238166418469705"><ele>445.0</ele><time>2026-04-03T09:48:13Z</time></trkpt><trkpt lat="43.89755266088687" lon="11.238096798711432"><ele>445.00000000000006</ele><time>2026-04-03T09:48:14Z</time></trkpt><trkpt lat="43.897469332283535" lon="11.238119383570893"><ele>445.0</ele><time>2026-04-03T09:48:15Z</time></trkpt><trkpt lat="43.89739022241392" lon="11.238100869547825"><ele>444.5714285714286</ele><time>2026-04-03T09:48:16Z</time></trkpt><trkpt lat="43.89731484796878" lon="11.238096072125522"><ele>444.1428571428571</ele><time>2026-04-03T09:48:17Z</time></trkpt><trkpt lat="43.897242236304244" lon="11.238105340251009"><ele>443.7142857142857</ele><time>2026-04-03T09:48:18Z</time></trkpt><trkpt lat="43.897167220863544" lon="11.23812982023835"><ele>443.28571428571433</ele><time>2026-04-03T09:48:19Z</time></trkpt><trkpt lat="43.89710346229244" lon="11.238167890558636"><ele>442.8571428571429</ele><time>2026-04-03T09:48:20Z</time></trkpt><trkpt lat="43.89704285547257" lon="11.238212209462876"><ele>442.42857142857144</ele><time>2026-04-03T09:48:21Z</time></trkpt><trkpt lat="43.89698741152305" lon="11.238268848559985"><ele>442.0</ele><time>2026-04-03T09:48:22Z</time></trkpt><trkpt lat="43.89689728952259" lon="11.238236146913932"><ele>442.0</ele><time>2026-04-03T09:48:25Z</time></trkpt><trkpt lat="43.89689670783532" lon="11.238090868219816"><ele>442.00000000000006</ele><time>2026-04-03T09:48:27Z</time></trkpt><trkpt lat="43.89690769683918" lon="11.237995747464932"><ele>442.00000000000006</ele><time>2026-04-03T09:48:28Z</time></trkpt><trkpt lat="43.89692233509016" lon="11.237815385815244"><ele>442.0</ele><time>2026-04-03T09:48:30Z</time></trkpt><trkpt lat="43.896922677924536" lon="11.237707172105866"><ele>442.0</ele><time>2026-04-03T09:48:31Z</time></trkpt><trkpt lat="43.89692530719824" lon="11.237605554805732"><ele>442.00000000000006</ele><time>2026-04-03T09:48:32Z</time></trkpt><trkpt lat="43.896928961753325" lon="11.237494070933606"><ele>442.0</ele><time>2026-04-03T09:48:33Z</time></trkpt><trkpt lat="43.89692942190453" lon="11.237388462405907"><ele>442.0</ele><time>2026-04-03T09:48:34Z</time></trkpt><trkpt lat="43.896929877626015" lon="11.237290148936346"><ele>442.0</ele><time>2026-04-03T09:48:35Z</time></trkpt><trkpt lat="43.89693174582975" lon="11.237201259484124"><ele>442.00000000000006</ele><time>2026-04-03T09:48:36Z</time></trkpt><trkpt lat="43.896953514388336" lon="11.237055899722424"><ele>442.0</ele><time>2026-04-03T09:48:38Z</time></trkpt><trkpt lat="43.89697531877243" lon="11.236953511370002"><ele>438.83333333333337</ele><time>2026-04-03T09:48:39Z</time></trkpt><trkpt lat="43.896947211625985" lon="11.236846256616717"><ele>435.6666666666667</ele><time>2026-04-03T09:48:40Z</time></trkpt><trkpt lat="43.89693356405494" lon="11.236756164906078"><ele>432.5</ele><time>2026-04-03T09:48:41Z</time></trkpt><trkpt lat="43.896921180209375" lon="11.23666326639696"><ele>429.33333333333337</ele><time>2026-04-03T09:48:42Z</time></trkpt><trkpt lat="43.89689071561217" lon="11.236586449746962"><ele>426.1666666666667</ele><time>2026-04-03T09:48:43Z</time></trkpt><trkpt lat="43.8968223955295" lon="11.236458796844973"><ele>423.0</ele><time>2026-04-03T09:48:45Z</time></trkpt><trkpt lat="43.89678894290943" lon="11.236366799743145"><ele>421.8333333333333</ele><time>2026-04-03T09:48:47Z</time></trkpt><trkpt lat="43.89680520605108" lon="11.236258850765315"><ele>420.66666666666663</ele><time>2026-04-03T09:48:50Z</time></trkpt><trkpt lat="43.8968541730246" lon="11.23616751711278"><ele>419.5</ele><time>2026-04-03T09:48:52Z</time></trkpt><trkpt lat="43.89688947964381" lon="11.236092588211683"><ele>418.3333333333333</ele><time>2026-04-03T09:48:54Z</time></trkpt><trkpt lat="43.89690423608296" lon="11.235995608268357"><ele>417.16666666666663</ele><time>2026-04-03T09:48:56Z</time></trkpt><trkpt lat="43.89690270915841" lon="11.235866851220315"><ele>416.0</ele><time>2026-04-03T09:48:58Z</time></trkpt><trkpt lat="43.89687206677377" lon="11.235739312599188"><ele>415.0</ele><time>2026-04-03T09:49:00Z</time></trkpt><trkpt lat="43.89684035750598" lon="11.235630368197029"><ele>414.0</ele><time>2026-04-03T09:49:02Z</time></trkpt><trkpt lat="43.89685775478332" lon="11.235498972926317"><ele>413.0</ele><time>2026-04-03T09:49:04Z</time></trkpt><trkpt lat="43.896865344129544" lon="11.235408026520714"><ele>412.0</ele><time>2026-04-03T09:49:05Z</time></trkpt><trkpt lat="43.89681736883164" lon="11.235273399773773"><ele>411.0</ele><time>2026-04-03T09:49:07Z</time></trkpt><trkpt lat="43.89689114858407" lon="11.235100288744894"><ele>411.0</ele><time>2026-04-03T09:49:09Z</time></trkpt><trkpt lat="43.89687407501946" lon="11.234974773277983"><ele>411.0</ele><time>2026-04-03T09:49:11Z</time></trkpt><trkpt lat="43.896875523753" lon="11.234849924195977"><ele>411.0</ele><time>2026-04-03T09:49:13Z</time></trkpt><trkpt lat="43.89684883835276" lon="11.234712992180995"><ele>411.0</ele><time>2026-04-03T09:49:15Z</time></trkpt><trkpt lat="43.89683153292279" lon="11.234578467661645"><ele>411.0</ele><time>2026-04-03T09:49:17Z</time></trkpt><trkpt lat="43.8967868868962" lon="11.234467561209502"><ele>413.6</ele><time>2026-04-03T09:49:19Z</time></trkpt><trkpt lat="43.896710663334915" lon="11.23439352981226"><ele>416.20000000000005</ele><time>2026-04-03T09:49:21Z</time></trkpt><trkpt lat="43.89663319082701" lon="11.234304689433461"><ele>418.79999999999995</ele><time>2026-04-03T09:49:23Z</time></trkpt><trkpt lat="43.89655711126747" lon="11.234244137250892"><ele>421.4</ele><time>2026-04-03T09:49:25Z</time></trkpt><trkpt lat="43.8964554728329" lon="11.234237759490489"><ele>424.0</ele><time>2026-04-03T09:49:27Z</time></trkpt><trkpt lat="43.89641549345069" lon="11.234156353119857"><ele>424.0</ele><time>2026-04-03T09:49:30Z</time></trkpt><trkpt lat="43.89641960989803" lon="11.234049753191972"><ele>424.0</ele><time>2026-04-03T09:49:32Z</time></trkpt><trkpt lat="43.89644620805249" lon="11.233967102929983"><ele>424.0</ele><time>2026-04-03T09:49:33Z</time></trkpt><trkpt lat="43.896507300180126" lon="11.233839366480092"><ele>424.0</ele><time>2026-04-03T09:49:35Z</time></trkpt><trkpt lat="43.89653606537675" lon="11.233695195465765"><ele>424.0</ele><time>2026-04-03T09:49:37Z</time></trkpt><trkpt lat="43.89658321123128" lon="11.233520345532552"><ele>423.50000000000006</ele><time>2026-04-03T09:49:39Z</time></trkpt><trkpt lat="43.896619474348064" lon="11.233385278807885"><ele>423.0</ele><time>2026-04-03T09:49:40Z</time></trkpt><trkpt lat="43.89664857021236" lon="11.233261996364556"><ele>422.5</ele><time>2026-04-03T09:49:41Z</time></trkpt><trkpt lat="43.89667135100832" lon="11.233166539315949"><ele>422.0</ele><time>2026-04-03T09:49:42Z</time></trkpt><trkpt lat="43.89669869343482" lon="11.233074209655276"><ele>421.50000000000006</ele><time>2026-04-03T09:49:43Z</time></trkpt><trkpt lat="43.896726772672174" lon="11.23298782571495"><ele>421.0</ele><time>2026-04-03T09:49:44Z</time></trkpt><trkpt lat="43.89675023708934" lon="11.232894780637443"><ele>413.50000000000006</ele><time>2026-04-03T09:49:45Z</time></trkpt><trkpt lat="43.89676663104607" lon="11.232803486477776"><ele>406.0</ele><time>2026-04-03T09:49:46Z</time></trkpt><trkpt lat="43.896782984504874" lon="11.232701379281147"><ele>398.5</ele><time>2026-04-03T09:49:47Z</time></trkpt><trkpt lat="43.89679858911556" lon="11.232595359546519"><ele>391.0</ele><time>2026-04-03T09:49:48Z</time></trkpt><trkpt lat="43.89681399223812" lon="11.23249598984995"><ele>383.5</ele><time>2026-04-03T09:49:49Z</time></trkpt><trkpt lat="43.8968154613083" lon="11.232407283201654"><ele>376.0</ele><time>2026-04-03T09:49:50Z</time></trkpt><trkpt lat="43.896778967274415" lon="11.232246953866253"><ele>380.0</ele><time>2026-04-03T09:49:52Z</time></trkpt><trkpt lat="43.896723295939374" lon="11.23210205218687"><ele>384.0</ele><time>2026-04-03T09:49:54Z</time></trkpt><trkpt lat="43.896638250476755" lon="11.231988610464473"><ele>388.0</ele><time>2026-04-03T09:49:56Z</time></trkpt><trkpt lat="43.89658342917504" lon="11.231924767182777"><ele>392.0</ele><time>2026-04-03T09:49:57Z</time></trkpt><trkpt lat="43.89652627888365" lon="11.231855258064591"><ele>396.0</ele><time>2026-04-03T09:49:58Z</time></trkpt><trkpt lat="43.89647082811536" lon="11.231786462052494"><ele>396.0</ele><time>2026-04-03T09:49:59Z</time></trkpt><trkpt lat="43.89641569765366" lon="11.231728723655921"><ele>396.0</ele><time>2026-04-03T09:50:00Z</time></trkpt><trkpt lat="43.89635466846357" lon="11.23166382324149"><ele>396.0</ele><time>2026-04-03T09:50:01Z</time></trkpt><trkpt lat="43.896296214488075" lon="11.231612531701378"><ele>396.0</ele><time>2026-04-03T09:50:02Z</time></trkpt><trkpt lat="43.89624681486652" lon="11.23155483957916"><ele>396.0</ele><time>2026-04-03T09:50:03Z</time></trkpt><trkpt lat="43.896137375893886" lon="11.23148188077466"><ele>396.0</ele><time>2026-04-03T09:50:05Z</time></trkpt><trkpt lat="43.89607378987868" lon="11.231428303625222"><ele>394.6</ele><time>2026-04-03T09:50:07Z</time></trkpt><trkpt lat="43.89608081241924" lon="11.231331763617845"><ele>393.20000000000005</ele><time>2026-04-03T09:50:09Z</time></trkpt><trkpt lat="43.896137011102006" lon="11.231245836133905"><ele>391.79999999999995</ele><time>2026-04-03T09:50:11Z</time></trkpt><trkpt lat="43.896192899835604" lon="11.231138584228951"><ele>390.4</ele><time>2026-04-03T09:50:13Z</time></trkpt><trkpt lat="43.896268815732014" lon="11.231017024034589"><ele>389.0</ele><time>2026-04-03T09:50:15Z</time></trkpt><trkpt lat="43.896336160751574" lon="11.230892386662836"><ele>388.99999999999994</ele><time>2026-04-03T09:50:17Z</time></trkpt><trkpt lat="43.89640340396792" lon="11.23076069055131"><ele>389.0</ele><time>2026-04-03T09:50:19Z</time></trkpt><trkpt lat="43.89644201586186" lon="11.23068804197834"><ele>389.0</ele><time>2026-04-03T09:50:20Z</time></trkpt><trkpt lat="43.89651615123602" lon="11.230563381432619"><ele>389.0</ele><time>2026-04-03T09:50:22Z</time></trkpt><trkpt lat="43.896555265077865" lon="11.230481594083153"><ele>388.99999999999994</ele><time>2026-04-03T09:50:23Z</time></trkpt><trkpt lat="43.896593070041526" lon="11.230391647109993"><ele>389.0</ele><time>2026-04-03T09:50:24Z</time></trkpt><trkpt lat="43.89663160678013" lon="11.230309678356695"><ele>389.4</ele><time>2026-04-03T09:50:25Z</time></trkpt><trkpt lat="43.8966668503713" lon="11.230216236116378"><ele>389.79999999999995</ele><time>2026-04-03T09:50:26Z</time></trkpt><trkpt lat="43.89669967257196" lon="11.230130323726005"><ele>390.20000000000005</ele><time>2026-04-03T09:50:27Z</time></trkpt><trkpt lat="43.89673365067348" lon="11.229951308233602"><ele>390.6</ele><time>2026-04-03T09:50:29Z</time></trkpt><trkpt lat="43.89674083551779" lon="11.229845927092361"><ele>391.0</ele><time>2026-04-03T09:50:30Z</time></trkpt><trkpt lat="43.89682130411108" lon="11.229733132735706"><ele>391.0</ele><time>2026-04-03T09:50:32Z</time></trkpt><trkpt lat="43.89675177317253" lon="11.229562037306552"><ele>391.0</ele><time>2026-04-03T09:50:33Z</time></trkpt><trkpt lat="43.8968278524739" lon="11.229472079271721"><ele>391.0</ele><time>2026-04-03T09:50:36Z</time></trkpt><trkpt lat="43.89691762103409" lon="11.229438607170623"><ele>391.0</ele><time>2026-04-03T09:50:38Z</time></trkpt><trkpt lat="43.89700946961002" lon="11.229389175006126"><ele>391.0</ele><time>2026-04-03T09:50:40Z</time></trkpt><trkpt lat="43.89710312727508" lon="11.229328247494733"><ele>387.1666666666667</ele><time>2026-04-03T09:50:42Z</time></trkpt><trkpt lat="43.89715795107463" lon="11.229217988589221"><ele>383.33333333333337</ele><time>2026-04-03T09:50:44Z</time></trkpt><trkpt lat="43.89718594569945" lon="11.229063168095161"><ele>379.5</ele><time>2026-04-03T09:50:46Z</time></trkpt><trkpt lat="43.897198764470794" lon="11.22896549588116"><ele>375.6666666666667</ele><time>2026-04-03T09:50:47Z</time></trkpt><trkpt lat="43.89721438143963" lon="11.228874418363722"><ele>371.83333333333337</ele><time>2026-04-03T09:50:48Z</time></trkpt><trkpt lat="43.89721481305783" lon="11.228778449533587"><ele>368.0</ele><time>2026-04-03T09:50:49Z</time></trkpt><trkpt lat="43.897216375417194" lon="11.228689859605627"><ele>368.33333333333337</ele><time>2026-04-03T09:50:50Z</time></trkpt><trkpt lat="43.89720282286091" lon="11.22858363256269"><ele>368.6666666666667</ele><time>2026-04-03T09:50:51Z</time></trkpt><trkpt lat="43.89718335077023" lon="11.228485141542151"><ele>369.0</ele><time>2026-04-03T09:50:52Z</time></trkpt><trkpt lat="43.89715480308399" lon="11.228395596560357"><ele>369.3333333333333</ele><time>2026-04-03T09:50:53Z</time></trkpt><trkpt lat="43.89712840258047" lon="11.22827855283555"><ele>369.66666666666663</ele><time>2026-04-03T09:50:55Z</time></trkpt><trkpt lat="43.89710677968831" lon="11.228147256708919"><ele>370.0</ele><time>2026-04-03T09:50:57Z</time></trkpt><trkpt lat="43.897079892912714" lon="11.228057425968466"><ele>370.0</ele><time>2026-04-03T09:50:59Z</time></trkpt><trkpt lat="43.89708667975034" lon="11.227933055160333"><ele>370.0</ele><time>2026-04-03T09:51:02Z</time></trkpt><trkpt lat="43.897147163643446" lon="11.22785639004674"><ele>370.0</ele><time>2026-04-03T09:51:04Z</time></trkpt><trkpt lat="43.897216619324126" lon="11.22780652519095"><ele>370.0</ele><time>2026-04-03T09:51:06Z</time></trkpt><trkpt lat="43.89729382965285" lon="11.227759012624407"><ele>370.0</ele><time>2026-04-03T09:51:08Z</time></trkpt><trkpt lat="43.89737289719214" lon="11.227698140785284"><ele>370.0</ele><time>2026-04-03T09:51:13Z</time></trkpt><trkpt lat="43.89745406708448" lon="11.227656865615302"><ele>370.0</ele><time>2026-04-03T09:51:16Z</time></trkpt><trkpt lat="43.897532637977434" lon="11.227610648529469"><ele>370.0</ele><time>2026-04-03T09:51:18Z</time></trkpt><trkpt lat="43.89759186064435" lon="11.22752628690004"><ele>370.0</ele><time>2026-04-03T09:51:20Z</time></trkpt><trkpt lat="43.89764682650723" lon="11.227474816495128"><ele>370.0</ele><time>2026-04-03T09:51:22Z</time></trkpt><trkpt lat="43.89769977234818" lon="11.227424037693826"><ele>370.0</ele><time>2026-04-03T09:51:24Z</time></trkpt><trkpt lat="43.89776672412029" lon="11.227362972734877"><ele>370.0</ele><time>2026-04-03T09:51:26Z</time></trkpt><trkpt lat="43.89784194178877" lon="11.22728011982468"><ele>366.8333333333333</ele><time>2026-04-03T09:51:28Z</time></trkpt><trkpt lat="43.89789565587763" lon="11.22720076784823"><ele>363.66666666666663</ele><time>2026-04-03T09:51:30Z</time></trkpt><trkpt lat="43.8979415860096" lon="11.227139515530064"><ele>360.5</ele><time>2026-04-03T09:51:31Z</time></trkpt><trkpt lat="43.897969361959525" lon="11.22706098073825"><ele>357.3333333333333</ele><time>2026-04-03T09:51:32Z</time></trkpt><trkpt lat="43.89800464448036" lon="11.22697249842903"><ele>354.1666666666667</ele><time>2026-04-03T09:51:33Z</time></trkpt><trkpt lat="43.89805140786878" lon="11.22691356371196"><ele>351.0</ele><time>2026-04-03T09:51:34Z</time></trkpt><trkpt lat="43.89816817197638" lon="11.22684682166396"><ele>351.0</ele><time>2026-04-03T09:51:36Z</time></trkpt><trkpt lat="43.89828055039422" lon="11.226798105614115"><ele>351.0</ele><time>2026-04-03T09:51:38Z</time></trkpt><trkpt lat="43.89840380550162" lon="11.226763112114682"><ele>351.0</ele><time>2026-04-03T09:51:40Z</time></trkpt><trkpt lat="43.8985043576582" lon="11.226713179481337"><ele>351.0</ele><time>2026-04-03T09:51:42Z</time></trkpt><trkpt lat="43.898579236976126" lon="11.22669687319446"><ele>351.0</ele><time>2026-04-03T09:51:43Z</time></trkpt><trkpt lat="43.898705376793814" lon="11.226704445277408"><ele>347.0</ele><time>2026-04-03T09:51:45Z</time></trkpt><trkpt lat="43.89877180680045" lon="11.226598533357025"><ele>343.0</ele><time>2026-04-03T09:51:47Z</time></trkpt><trkpt lat="43.898837521733675" lon="11.226519933280484"><ele>339.0</ele><time>2026-04-03T09:51:49Z</time></trkpt><trkpt lat="43.89888954359327" lon="11.226404996757198"><ele>335.0</ele><time>2026-04-03T09:51:51Z</time></trkpt><trkpt lat="43.89892874417039" lon="11.226256622120719"><ele>331.0</ele><time>2026-04-03T09:51:53Z</time></trkpt><trkpt lat="43.89900779453368" lon="11.226123208851059"><ele>331.0</ele><time>2026-04-03T09:51:55Z</time></trkpt><trkpt lat="43.89908861002176" lon="11.226041266865058"><ele>331.0</ele><time>2026-04-03T09:51:57Z</time></trkpt><trkpt lat="43.899203012825716" lon="11.226007971491208"><ele>331.0</ele><time>2026-04-03T09:51:59Z</time></trkpt><trkpt lat="43.8993048487649" lon="11.225978898107282"><ele>331.0</ele><time>2026-04-03T09:52:01Z</time></trkpt><trkpt lat="43.89941510332957" lon="11.225973507231764"><ele>331.0</ele><time>2026-04-03T09:52:03Z</time></trkpt><trkpt lat="43.899498210400175" lon="11.225932377181405"><ele>326.8333333333333</ele><time>2026-04-03T09:52:05Z</time></trkpt><trkpt lat="43.89954775605239" lon="11.225815627024357"><ele>322.66666666666663</ele><time>2026-04-03T09:52:07Z</time></trkpt><trkpt lat="43.89958035324903" lon="11.225722490131828"><ele>318.5</ele><time>2026-04-03T09:52:09Z</time></trkpt><trkpt lat="43.89965349121469" lon="11.225672653292692"><ele>314.3333333333333</ele><time>2026-04-03T09:52:11Z</time></trkpt><trkpt lat="43.89969628558067" lon="11.225597194310238"><ele>310.1666666666667</ele><time>2026-04-03T09:52:14Z</time></trkpt><trkpt lat="43.89967128921219" lon="11.225490745630818"><ele>306.0</ele><time>2026-04-03T09:52:16Z</time></trkpt><trkpt lat="43.89961874530569" lon="11.225402871098753"><ele>305.40000000000003</ele><time>2026-04-03T09:52:18Z</time></trkpt><trkpt lat="43.899532702051815" lon="11.225338339744242"><ele>304.8</ele><time>2026-04-03T09:52:20Z</time></trkpt><trkpt lat="43.899462073042244" lon="11.22525903293633"><ele>304.20000000000005</ele><time>2026-04-03T09:52:22Z</time></trkpt><trkpt lat="43.89948954613487" lon="11.225163693506998"><ele>303.6</ele><time>2026-04-03T09:52:24Z</time></trkpt><trkpt lat="43.89953515610543" lon="11.225081607134586"><ele>303.0</ele><time>2026-04-03T09:52:25Z</time></trkpt><trkpt lat="43.89961754759002" lon="11.224938980936349"><ele>303.0</ele><time>2026-04-03T09:52:26Z</time></trkpt><trkpt lat="43.89954130574253" lon="11.22491872518267"><ele>303.0</ele><time>2026-04-03T09:52:27Z</time></trkpt><trkpt lat="43.89957723081147" lon="11.224736484261008"><ele>303.0</ele><time>2026-04-03T09:52:29Z</time></trkpt><trkpt lat="43.89960624098222" lon="11.224638393870782"><ele>303.0</ele><time>2026-04-03T09:52:30Z</time></trkpt><trkpt lat="43.89963432741851" lon="11.224544253863721"><ele>303.0</ele><time>2026-04-03T09:52:31Z</time></trkpt><trkpt lat="43.899648915171134" lon="11.224450427154258"><ele>303.0</ele><time>2026-04-03T09:52:32Z</time></trkpt><trkpt lat="43.89964936550088" lon="11.224341763047567"><ele>301.5</ele><time>2026-04-03T09:52:33Z</time></trkpt><trkpt lat="43.899638241996165" lon="11.224216892358791"><ele>300.0</ele><time>2026-04-03T09:52:34Z</time></trkpt><trkpt lat="43.899615410236784" lon="11.224081917319534"><ele>298.5</ele><time>2026-04-03T09:52:35Z</time></trkpt><trkpt lat="43.89958510503413" lon="11.223960467181188"><ele>297.0</ele><time>2026-04-03T09:52:36Z</time></trkpt><trkpt lat="43.89956338634543" lon="11.223860459204904"><ele>295.5</ele><time>2026-04-03T09:52:37Z</time></trkpt><trkpt lat="43.8995602216502" lon="11.223771291262587"><ele>294.0</ele><time>2026-04-03T09:52:38Z</time></trkpt><trkpt lat="43.899584351729345" lon="11.223615279217391"><ele>294.0</ele><time>2026-04-03T09:52:40Z</time></trkpt><trkpt lat="43.89961997068935" lon="11.22353308579715"><ele>294.0</ele><time>2026-04-03T09:52:41Z</time></trkpt><trkpt lat="43.89966325506644" lon="11.223456195126689"><ele>294.0</ele><time>2026-04-03T09:52:42Z</time></trkpt><trkpt lat="43.899707704635595" lon="11.223385715574242"><ele>294.0</ele><time>2026-04-03T09:52:43Z</time></trkpt><trkpt lat="43.8997979082777" lon="11.223294328702735"><ele>294.0</ele><time>2026-04-03T09:52:45Z</time></trkpt><trkpt lat="43.89989369734052" lon="11.22326145513461"><ele>294.0</ele><time>2026-04-03T09:52:47Z</time></trkpt><trkpt lat="43.89997062715516" lon="11.223257437865232"><ele>294.0</ele><time>2026-04-03T09:52:48Z</time></trkpt><trkpt lat="43.90004271436679" lon="11.223241410714397"><ele>294.0</ele><time>2026-04-03T09:52:49Z</time></trkpt><trkpt lat="43.90010117575138" lon="11.223203010388087"><ele>294.0</ele><time>2026-04-03T09:52:50Z</time></trkpt><trkpt lat="43.90021280726054" lon="11.223133000971776"><ele>294.0</ele><time>2026-04-03T09:52:52Z</time></trkpt><trkpt lat="43.90026758277893" lon="11.223083242346503"><ele>294.0</ele><time>2026-04-03T09:52:53Z</time></trkpt><trkpt lat="43.90031163457505" lon="11.2230050020509"><ele>294.0</ele><time>2026-04-03T09:52:54Z</time></trkpt><trkpt lat="43.90035599882905" lon="11.222930428953763"><ele>291.2857142857143</ele><time>2026-04-03T09:52:55Z</time></trkpt><trkpt lat="43.90039978477051" lon="11.222858360937884"><ele>288.57142857142856</ele><time>2026-04-03T09:52:56Z</time></trkpt><trkpt lat="43.900433201545894" lon="11.222776362503623"><ele>285.8571428571429</ele><time>2026-04-03T09:52:57Z</time></trkpt><trkpt lat="43.90047314199005" lon="11.222693999742852"><ele>283.1428571428571</ele><time>2026-04-03T09:52:58Z</time></trkpt><trkpt lat="43.90050288757796" lon="11.2226055843954"><ele>280.42857142857144</ele><time>2026-04-03T09:52:59Z</time></trkpt><trkpt lat="43.90052566808185" lon="11.222522344595898"><ele>277.7142857142857</ele><time>2026-04-03T09:53:00Z</time></trkpt><trkpt lat="43.900549606974984" lon="11.222440149712886"><ele>275.0</ele><time>2026-04-03T09:53:01Z</time></trkpt><trkpt lat="43.900576495037484" lon="11.222357855508506"><ele>275.0</ele><time>2026-04-03T09:53:02Z</time></trkpt><trkpt lat="43.9006339767766" lon="11.222287348618304"><ele>275.0</ele><time>2026-04-03T09:53:04Z</time></trkpt><trkpt lat="43.90072119247372" lon="11.22234388547026"><ele>275.0</ele><time>2026-04-03T09:53:06Z</time></trkpt><trkpt lat="43.90078424496736" lon="11.222380983796977"><ele>275.0</ele><time>2026-04-03T09:53:07Z</time></trkpt><trkpt lat="43.9008568926332" lon="11.222392252030803"><ele>275.0</ele><time>2026-04-03T09:53:08Z</time></trkpt><trkpt lat="43.90092260547532" lon="11.222374038341465"><ele>275.0</ele><time>2026-04-03T09:53:09Z</time></trkpt><trkpt lat="43.900997163477186" lon="11.222251277500852"><ele>276.0</ele><time>2026-04-03T09:53:11Z</time></trkpt><trkpt lat="43.90103985801701" lon="11.222130326561505"><ele>277.0</ele><time>2026-04-03T09:53:12Z</time></trkpt><trkpt lat="43.9010770608862" lon="11.222039675442538"><ele>278.0</ele><time>2026-04-03T09:53:13Z</time></trkpt><trkpt lat="43.90111909632293" lon="11.221972459409827"><ele>279.0</ele><time>2026-04-03T09:53:14Z</time></trkpt><trkpt lat="43.90118544554636" lon="11.221906784320298"><ele>280.0</ele><time>2026-04-03T09:53:15Z</time></trkpt><trkpt lat="43.9012379970457" lon="11.221844528173353"><ele>281.0</ele><time>2026-04-03T09:53:16Z</time></trkpt><trkpt lat="43.901331234198516" lon="11.221738628950945"><ele>281.0</ele><time>2026-04-03T09:53:18Z</time></trkpt><trkpt lat="43.90139589616732" lon="11.221705914744213"><ele>281.0</ele><time>2026-04-03T09:53:19Z</time></trkpt><trkpt lat="43.90147838946638" lon="11.221714058777243"><ele>281.0</ele><time>2026-04-03T09:53:20Z</time></trkpt><trkpt lat="43.90156752813406" lon="11.221753820831763"><ele>281.0</ele><time>2026-04-03T09:53:21Z</time></trkpt><trkpt lat="43.901663359526346" lon="11.221782178907747"><ele>281.0</ele><time>2026-04-03T09:53:22Z</time></trkpt><trkpt lat="43.90176706335892" lon="11.221800419857924"><ele>281.0</ele><time>2026-04-03T09:53:23Z</time></trkpt><trkpt lat="43.90187692615815" lon="11.221837646451236"><ele>280.2</ele><time>2026-04-03T09:53:24Z</time></trkpt><trkpt lat="43.9019902229873" lon="11.221904249271919"><ele>279.40000000000003</ele><time>2026-04-03T09:53:25Z</time></trkpt><trkpt lat="43.90209366691754" lon="11.221974604765224"><ele>278.6</ele><time>2026-04-03T09:53:26Z</time></trkpt><trkpt lat="43.90217226788579" lon="11.22203671178033"><ele>277.8</ele><time>2026-04-03T09:53:27Z</time></trkpt><trkpt lat="43.90223774109397" lon="11.222079120868262"><ele>277.0</ele><time>2026-04-03T09:53:28Z</time></trkpt><trkpt lat="43.902360952573275" lon="11.222104045173756"><ele>277.0</ele><time>2026-04-03T09:53:30Z</time></trkpt><trkpt lat="43.90249219461561" lon="11.222057232826227"><ele>277.0</ele><time>2026-04-03T09:53:32Z</time></trkpt><trkpt lat="43.90257004838401" lon="11.222029670806704"><ele>277.0</ele><time>2026-04-03T09:53:33Z</time></trkpt><trkpt lat="43.902659240783464" lon="11.222013944740816"><ele>277.0</ele><time>2026-04-03T09:53:34Z</time></trkpt><trkpt lat="43.902736978290754" lon="11.222009422518115"><ele>277.0</ele><time>2026-04-03T09:53:35Z</time></trkpt><trkpt lat="43.90280562691123" lon="11.222003067549023"><ele>274.5</ele><time>2026-04-03T09:53:36Z</time></trkpt><trkpt lat="43.90289529466075" lon="11.221993360013325"><ele>272.0</ele><time>2026-04-03T09:53:38Z</time></trkpt><trkpt lat="43.90295947110641" lon="11.22198951223298"><ele>269.5</ele><time>2026-04-03T09:53:41Z</time></trkpt><trkpt lat="43.90302432534633" lon="11.222017446225017"><ele>267.0</ele><time>2026-04-03T09:53:42Z</time></trkpt><trkpt lat="43.90308661024164" lon="11.22205194120246"><ele>264.5</ele><time>2026-04-03T09:53:43Z</time></trkpt><trkpt lat="43.9031581534813" lon="11.222088899848023"><ele>262.0</ele><time>2026-04-03T09:53:44Z</time></trkpt><trkpt lat="43.90323921897932" lon="11.222120120355159"><ele>262.0</ele><time>2026-04-03T09:53:45Z</time></trkpt><trkpt lat="43.90331418171094" lon="11.222132063871893"><ele>262.0</ele><time>2026-04-03T09:53:46Z</time></trkpt><trkpt lat="43.903388758129765" lon="11.222146359764217"><ele>262.0</ele><time>2026-04-03T09:53:47Z</time></trkpt><trkpt lat="43.90347812165683" lon="11.222172177131005"><ele>262.0</ele><time>2026-04-03T09:53:48Z</time></trkpt><trkpt lat="43.90357635860301" lon="11.222229098651304"><ele>262.0</ele><time>2026-04-03T09:53:49Z</time></trkpt><trkpt lat="43.90367263231213" lon="11.222268704730524"><ele>262.0</ele><time>2026-04-03T09:53:50Z</time></trkpt><trkpt lat="43.90376500186441" lon="11.22230127471322"><ele>261.16666666666663</ele><time>2026-04-03T09:53:51Z</time></trkpt><trkpt lat="43.90384782812918" lon="11.222340518295693"><ele>260.3333333333333</ele><time>2026-04-03T09:53:52Z</time></trkpt><trkpt lat="43.90393225262475" lon="11.222388945724356"><ele>259.5</ele><time>2026-04-03T09:53:53Z</time></trkpt><trkpt lat="43.90400415500706" lon="11.222431605091254"><ele>258.6666666666667</ele><time>2026-04-03T09:53:54Z</time></trkpt><trkpt lat="43.90406082194994" lon="11.222474154530842"><ele>257.83333333333337</ele><time>2026-04-03T09:53:55Z</time></trkpt><trkpt lat="43.90414680300424" lon="11.222532704820297"><ele>257.0</ele><time>2026-04-03T09:53:57Z</time></trkpt><trkpt lat="43.90421674587107" lon="11.2224596163362"><ele>256.4</ele><time>2026-04-03T09:53:59Z</time></trkpt><trkpt lat="43.90428964221312" lon="11.222330437019716"><ele>255.79999999999998</ele><time>2026-04-03T09:54:01Z</time></trkpt><trkpt lat="43.90432372157518" lon="11.222256863574934"><ele>255.2</ele><time>2026-04-03T09:54:02Z</time></trkpt><trkpt lat="43.904425232157095" lon="11.222152983460832"><ele>254.6</ele><time>2026-04-03T09:54:04Z</time></trkpt><trkpt lat="43.90449501126766" lon="11.222113507632535"><ele>254.0</ele><time>2026-04-03T09:54:05Z</time></trkpt><trkpt lat="43.904580350054296" lon="11.22206534518962"><ele>254.0</ele><time>2026-04-03T09:54:06Z</time></trkpt><trkpt lat="43.90465221589253" lon="11.22202396128602"><ele>254.0</ele><time>2026-04-03T09:54:07Z</time></trkpt><trkpt lat="43.90472338719358" lon="11.221992034746098"><ele>254.0</ele><time>2026-04-03T09:54:08Z</time></trkpt><trkpt lat="43.90479213359518" lon="11.221960274666925"><ele>254.0</ele><time>2026-04-03T09:54:09Z</time></trkpt><trkpt lat="43.90485519710477" lon="11.221936900578047"><ele>254.0</ele><time>2026-04-03T09:54:10Z</time></trkpt><trkpt lat="43.904922787434565" lon="11.221904656903076"><ele>254.0</ele><time>2026-04-03T09:54:11Z</time></trkpt><trkpt lat="43.9049884899321" lon="11.221891881794248"><ele>254.0</ele><time>2026-04-03T09:54:12Z</time></trkpt><trkpt lat="43.905110299861995" lon="11.22191569964069"><ele>252.33333333333334</ele><time>2026-04-03T09:54:14Z</time></trkpt><trkpt lat="43.90520240864402" lon="11.221881306780793"><ele>250.66666666666669</ele><time>2026-04-03T09:54:15Z</time></trkpt><trkpt lat="43.90526110414799" lon="11.221842023719928"><ele>249.0</ele><time>2026-04-03T09:54:16Z</time></trkpt><trkpt lat="43.90532364307792" lon="11.22180149196453"><ele>247.33333333333331</ele><time>2026-04-03T09:54:17Z</time></trkpt><trkpt lat="43.90539545227431" lon="11.2217684146083"><ele>245.66666666666666</ele><time>2026-04-03T09:54:18Z</time></trkpt><trkpt lat="43.905469601345104" lon="11.221740180375251"><ele>244.0</ele><time>2026-04-03T09:54:19Z</time></trkpt><trkpt lat="43.905559189599515" lon="11.22171528910194"><ele>244.0</ele><time>2026-04-03T09:54:20Z</time></trkpt><trkpt lat="43.90564778350551" lon="11.221683697694775"><ele>243.99999999999997</ele><time>2026-04-03T09:54:21Z</time></trkpt><trkpt lat="43.90570805138591" lon="11.221652554935199"><ele>243.99999999999997</ele><time>2026-04-03T09:54:22Z</time></trkpt><trkpt lat="43.90581868249196" lon="11.221610760006856"><ele>244.0</ele><time>2026-04-03T09:54:24Z</time></trkpt><trkpt lat="43.905922856504496" lon="11.221621041306848"><ele>244.0</ele><time>2026-04-03T09:54:26Z</time></trkpt><trkpt lat="43.90604153519071" lon="11.221661685768371"><ele>239.79999999999998</ele><time>2026-04-03T09:54:28Z</time></trkpt><trkpt lat="43.90615398238541" lon="11.22171904246334"><ele>235.59999999999997</ele><time>2026-04-03T09:54:30Z</time></trkpt><trkpt lat="43.90624774613571" lon="11.22171983300356"><ele>231.4</ele><time>2026-04-03T09:54:32Z</time></trkpt><trkpt lat="43.90628602172157" lon="11.221589554779532"><ele>227.2</ele><time>2026-04-03T09:54:34Z</time></trkpt><trkpt lat="43.90629854684687" lon="11.221431728550028"><ele>223.0</ele><time>2026-04-03T09:54:36Z</time></trkpt><trkpt lat="43.90625865011314" lon="11.221294612131423"><ele>222.49999999999997</ele><time>2026-04-03T09:54:38Z</time></trkpt><trkpt lat="43.90617056355353" lon="11.221199413466845"><ele>222.0</ele><time>2026-04-03T09:54:40Z</time></trkpt><trkpt lat="43.90611134319644" lon="11.221154037012099"><ele>221.5</ele><time>2026-04-03T09:54:41Z</time></trkpt><trkpt lat="43.90605045793297" lon="11.22112261680234"><ele>221.0</ele><time>2026-04-03T09:54:42Z</time></trkpt><trkpt lat="43.90598810902078" lon="11.22107850372226"><ele>220.49999999999997</ele><time>2026-04-03T09:54:43Z</time></trkpt><trkpt lat="43.905924762097726" lon="11.221006647353056"><ele>220.0</ele><time>2026-04-03T09:54:44Z</time></trkpt><trkpt lat="43.905851453584724" lon="11.220934002988342"><ele>219.8</ele><time>2026-04-03T09:54:45Z</time></trkpt><trkpt lat="43.90578400125315" lon="11.220867339638398"><ele>219.6</ele><time>2026-04-03T09:54:46Z</time></trkpt><trkpt lat="43.90572268507428" lon="11.220798267179115"><ele>219.39999999999998</ele><time>2026-04-03T09:54:47Z</time></trkpt><trkpt lat="43.90565857504079" lon="11.22072870234034"><ele>219.2</ele><time>2026-04-03T09:54:48Z</time></trkpt><trkpt lat="43.90555314765166" lon="11.22060915583832"><ele>219.0</ele><time>2026-04-03T09:54:50Z</time></trkpt><trkpt lat="43.905490612945215" lon="11.220547463037079"><ele>219.0</ele><time>2026-04-03T09:54:51Z</time></trkpt><trkpt lat="43.90542985472345" lon="11.220451412222417"><ele>218.99999999999997</ele><time>2026-04-03T09:54:52Z</time></trkpt><trkpt lat="43.90536447286035" lon="11.220370010861446"><ele>218.99999999999997</ele><time>2026-04-03T09:54:53Z</time></trkpt><trkpt lat="43.905260227192116" lon="11.220236868025141"><ele>219.0</ele><time>2026-04-03T09:54:55Z</time></trkpt><trkpt lat="43.90520372883787" lon="11.220147931095738"><ele>219.0</ele><time>2026-04-03T09:54:56Z</time></trkpt><trkpt lat="43.90516880517421" lon="11.220060603941244"><ele>219.0</ele><time>2026-04-03T09:54:57Z</time></trkpt><trkpt lat="43.905237890018135" lon="11.220035371124276"><ele>219.0</ele><time>2026-04-03T09:55:05Z</time></trkpt><trkpt lat="43.90535909364581" lon="11.220090590883604"><ele>219.0</ele><time>2026-04-03T09:55:07Z</time></trkpt></trkseg></trk></gpx>